ECMWFNIL_sfc_thetae_000.txt.gz
Theta_e
301 302 302 302 302 303 303 303 305 305 306 307 307 308 309 311 312 312 313 314 314 315 317 319 322 324 327 329 329 330 329 328 328 329 327 327 326 325 325 325 325 325
299 301 303 303 302 303 303 304 304 304 304 305 306 307 308 309 310 312 313 314 314 314 315 317 319 321 324 326 327 328 328 328 328 329 327 326 326 326 325 326 325 326
299 299 299 300 301 302 302 303 303 303 303 304 305 306 308 311 312 312 313 313 313 314 314 315 316 318 321 324 326 327 327 327 327 329 328 327 327 326 326 327 326 326
299 300 300 300 300 301 302 302 302 303 303 303 304 306 307 308 308 309 311 313 314 314 314 314 315 317 319 321 323 325 326 327 327 327 327 327 327 327 326 326 325 326
300 300 300 300 300 301 301 301 301 302 302 303 304 305 305 306 306 307 308 309 310 312 314 314 314 316 318 319 321 322 324 325 327 327 326 327 327 327 326 326 325 325
300 300 300 301 301 301 301 301 301 302 302 302 303 304 305 306 306 306 307 308 311 313 314 314 314 314 316 318 319 320 322 323 326 327 326 326 326 327 327 326 324 324
299 300 300 301 301 301 301 301 301 302 302 302 303 303 304 304 304 305 306 307 309 311 312 313 314 314 314 315 317 318 320 322 324 325 325 326 326 326 327 326 324 324
299 300 300 300 300 300 300 300 301 301 302 302 302 302 304 304 303 304 305 306 308 311 313 314 314 314 314 315 315 316 318 321 322 324 325 325 326 325 326 326 325 323
300 300 300 300 300 300 299 299 300 300 301 301 301 301 302 303 303 303 303 304 306 307 310 313 314 314 314 315 315 315 316 318 321 323 324 324 324 324 325 325 324 323
299 300 299 299 299 299 299 299 300 300 301 300 300 301 300 301 302 302 303 303 304 307 308 310 314 314 314 314 315 316 316 318 320 322 324 324 324 324 324 324 324 323
299 299 299 299 299 299 299 299 299 299 300 299 300 300 300 300 301 302 302 302 302 304 307 310 313 314 313 313 314 316 317 318 320 321 323 324 324 325 323 324 323 323
299 299 299 298 299 299 299 299 299 299 299 299 299 298 299 299 299 300 301 301 302 303 305 308 312 313 313 313 313 314 316 319 320 321 323 323 324 324 325 324 323 323
298 298 299 299 299 299 299 299 298 298 298 297 298 298 297 298 298 299 300 300 301 303 304 307 310 313 314 313 313 314 315 317 319 321 322 323 323 323 324 323 323 323
298 299 299 299 299 299 298 298 298 297 297 297 297 297 297 297 297 298 298 300 301 302 304 306 309 312 313 314 314 314 315 316 318 319 321 322 322 322 323 322 322 322
298 299 299 299 299 298 298 297 297 297 297 296 296 296 297 297 297 298 298 299 300 302 303 305 308 311 314 314 313 313 315 316 318 319 320 320 321 321 321 320 319 320
298 298 299 299 298 297 297 297 296 296 296 296 296 296 296 296 296 297 298 299 300 302 304 306 307 310 310 307 308 313 315 317 319 319 320 320 319 319 318 317 316 315
298 298 298 297 297 296 296 296 295 295 295 295 295 295 296 296 296 296 297 299 301 302 303 305 308 310 306 303 302 304 312 316 318 319 320 319 317 317 314 312 312 311
298 298 297 297 296 295 295 295 295 294 294 294 294 295 295 296 296 297 298 299 301 303 304 305 307 306 303 301 301 301 304 314 318 319 317 316 314 313 311 309 307 305
298 297 296 295 295 295 294 294 293 293 293 293 293 294 295 295 296 297 298 300 302 303 304 306 307 305 301 301 301 300 300 307 317 316 314 313 311 309 307 305 304 301
297 296 295 294 294 294 294 293 293 292 292 293 294 294 294 295 296 297 299 301 303 305 306 307 308 305 300 300 300 300 299 303 315 313 312 311 310 308 306 305 304 301
296 295 294 294 294 294 293 292 292 292 292 292 293 293 294 295 296 297 299 302 305 307 307 308 309 304 300 300 300 299 299 300 314 311 310 309 310 308 306 305 305 303
295 295 294 294 294 293 292 291 291 291 291 292 292 293 295 296 296 298 300 304 306 308 308 308 310 301 300 299 299 299 299 306 312 310 308 306 305 306 306 305 304 303
295 295 294 293 293 292 291 290 290 290 290 291 291 292 293 294 295 298 302 305 307 307 307 308 307 300 298 299 299 298 300 309 309 308 306 303 302 302 303 303 303 303
295 294 293 293 292 291 290 289 289 290 290 291 291 292 293 294 295 297 301 305 305 306 306 304 301 299 296 297 297 297 302 308 307 306 302 300 298 297 297 299 300 300
294 293 293 292 291 290 289 288 288 288 290 291 292 292 293 294 296 297 300 303 304 304 303 302 300 298 295 295 296 296 301 305 304 302 299 296 295 295 295 296 297 297
293 292 292 291 290 289 288 287 288 288 288 290 291 292 292 294 296 299 297 296 298 300 300 300 299 298 297 294 295 296 299 303 303 300 297 295 295 295 293 293 294 295

ECMWFNIL_sfc_thetae_003.txt.gz
Theta_e
306 306 305 305 305 306 306 305 305 305 305 305 305 307 308 309 311 311 312 313 315 316 316 317 319 320 321 323 325 327 329 330 330 332 333 332 329 329 329 330 330 329
306 306 305 305 305 305 305 305 305 304 304 305 305 305 307 307 308 310 310 311 312 314 316 317 318 319 320 321 323 324 326 328 329 332 328 331 332 330 330 331 331 331
306 305 304 304 303 304 304 305 305 305 304 305 305 305 306 307 307 308 310 312 312 313 314 316 317 318 319 320 322 322 323 325 328 330 330 330 331 330 331 331 331 331
305 305 304 304 304 303 304 304 304 304 305 304 304 305 305 306 306 307 308 309 310 312 313 315 316 317 318 318 319 320 322 323 325 329 330 328 329 331 331 331 330 331
306 305 304 304 304 304 303 302 303 303 303 303 304 304 305 305 305 306 307 308 309 310 311 312 314 316 317 318 318 318 320 322 323 325 327 328 328 329 330 330 329 328
306 305 304 303 303 303 302 302 302 303 303 303 303 304 304 304 304 304 305 306 307 308 309 310 311 314 316 317 317 317 318 320 322 323 324 325 328 329 330 331 330 328
305 304 303 303 303 303 302 302 303 303 303 303 303 303 304 304 304 304 305 305 306 306 308 309 310 312 314 316 316 316 317 318 320 322 322 323 325 327 328 328 329 327
305 304 303 303 302 302 302 302 302 302 303 303 302 303 303 303 303 304 304 304 305 305 306 307 308 310 313 314 314 314 315 316 318 319 321 322 323 324 326 328 328 327
305 304 303 302 302 302 302 302 302 302 303 302 302 302 303 303 303 303 303 303 303 304 305 306 307 308 311 313 314 314 314 315 316 317 318 320 321 323 324 326 327 326
304 303 302 302 302 302 302 302 302 302 302 302 302 302 302 303 303 303 303 303 303 303 304 305 305 307 309 311 313 315 315 314 314 316 317 319 320 322 323 325 325 326
304 303 302 302 302 302 302 302 302 302 302 302 301 301 301 301 302 303 302 302 302 302 303 303 304 306 307 309 312 314 315 315 315 315 316 317 319 321 320 324 325 326
303 302 302 302 302 302 302 302 302 301 302 302 301 300 300 301 300 301 301 301 301 302 302 303 304 305 306 307 310 313 315 316 316 315 315 316 318 320 322 323 324 325
302 302 302 302 302 302 302 301 301 301 301 300 301 300 300 299 300 299 300 300 300 301 301 302 303 304 304 305 307 310 313 315 316 316 316 316 318 319 322 322 324 325
302 302 302 302 302 302 302 302 301 301 300 300 300 299 299 299 298 298 299 299 299 300 300 301 302 302 303 304 306 308 311 313 314 314 315 316 317 318 321 322 323 325
302 302 302 302 302 301 301 301 300 300 299 299 299 299 299 299 299 299 298 298 298 298 299 300 300 301 302 303 304 306 309 312 314 314 314 315 316 318 320 322 323 325
301 301 301 301 301 300 300 299 299 298 298 298 298 298 298 298 298 298 298 297 297 298 298 299 299 301 300 299 300 305 308 310 313 315 314 315 315 317 319 322 323 324
301 301 301 300 300 299 299 298 298 297 297 297 297 297 297 297 297 296 296 297 297 297 297 298 299 300 298 296 297 298 304 309 313 314 315 315 315 316 318 320 322 323
300 300 299 299 298 298 298 298 297 297 296 296 296 296 296 297 296 296 296 296 297 297 297 298 298 297 295 296 296 297 299 306 310 314 315 315 315 316 317 320 321 323
300 299 298 298 297 297 297 297 296 296 295 295 295 296 296 295 295 295 295 296 296 296 297 298 298 297 295 296 296 296 297 300 307 311 315 316 317 317 318 319 321 322
299 298 297 297 297 297 296 296 296 295 295 295 295 295 294 294 294 294 295 295 295 296 296 297 298 297 295 296 296 296 296 298 306 308 313 316 317 317 319 320 321 321
298 297 297 296 296 296 295 295 295 295 294 294 293 293 292 292 293 293 294 295 295 296 297 297 298 296 295 296 296 296 296 297 307 308 312 316 317 318 319 320 321 321
298 297 296 296 295 295 295 294 293 293 292 292 292 292 292 292 293 293 293 294 295 296 296 297 299 296 296 296 296 296 296 303 307 308 311 315 316 317 319 320 321 322
298 296 295 295 295 294 293 292 291 291 292 292 291 291 291 291 292 292 293 294 294 295 296 297 299 299 296 296 296 296 297 304 306 308 311 315 315 317 318 319 320 321
298 297 295 295 294 293 292 291 291 291 291 292 291 290 290 291 292 292 293 294 295 295 296 297 300 301 298 297 296 296 299 305 307 309 311 314 314 316 317 318 318 310
298 297 296 295 294 292 292 290 290 290 291 291 291 290 290 291 292 292 293 295 296 296 297 297 299 301 300 297 296 296 299 307 308 310 311 311 312 313 315 315 316 309
298 297 296 295 294 293 292 291 291 290 290 290 290 290 290 291 292 293 294 296 297 298 298 299 300 303 306 298 297 297 297 306 309 309 309 310 311 309 306 306 310 310

ECMWFNIL_sfc_thetae_006.txt.gz
Theta_e
314 314 313 312 312 313 313 313 313 313 312 312 312 313 312 314 313 314 314 315 316 316 317 319 320 320 321 323 323 323 324 325 327 330 331 329 330 329 330 331 331 328
313 312 311 312 312 312 312 313 313 312 312 312 313 312 313 313 313 313 312 312 313 315 316 317 318 319 321 321 322 322 322 323 324 326 329 330 329 328 328 328 331 331
313 313 312 311 311 311 312 312 312 312 311 312 313 313 312 313 312 312 312 312 312 313 315 316 317 318 319 320 321 322 321 322 323 325 326 326 328 329 332 333 333 333
312 312 311 311 311 310 311 311 311 311 311 311 312 313 312 312 311 311 310 310 311 311 312 314 315 316 317 318 320 320 321 321 322 324 324 326 327 330 330 329 331 332
313 312 312 311 311 311 311 310 309 309 310 310 311 311 311 311 310 310 310 310 311 310 310 311 314 315 316 317 319 319 320 320 322 323 322 323 325 327 328 331 330 328
312 311 311 310 311 310 309 309 308 309 308 309 309 310 310 310 309 308 309 309 309 309 310 311 312 314 315 316 317 318 318 319 321 321 321 321 323 325 325 327 329 328
312 311 311 310 310 309 309 308 309 308 308 308 307 307 308 309 308 308 308 308 309 309 309 310 310 311 313 314 315 316 318 318 319 320 320 320 320 321 324 326 326 326
311 311 310 310 310 309 309 308 308 307 308 307 307 306 307 307 307 308 308 308 308 308 309 309 309 310 311 313 313 315 317 318 318 319 319 319 320 320 321 323 326 326
310 310 309 309 309 309 308 308 308 307 307 306 305 305 306 306 307 307 307 307 307 307 308 308 309 310 311 311 311 312 314 316 317 318 318 319 320 320 320 321 322 324
309 309 309 309 309 309 308 308 308 307 306 305 305 305 304 305 306 306 306 306 306 307 307 307 308 308 309 310 310 311 312 314 316 316 317 318 319 320 319 320 321 322
309 308 308 308 308 308 308 308 307 307 306 305 305 304 305 305 305 306 305 305 305 305 306 307 307 308 308 309 310 311 312 313 314 316 317 317 318 319 318 321 321 321
308 308 307 307 307 307 307 307 306 306 305 305 305 305 305 305 304 304 304 304 304 305 306 306 307 308 308 308 309 309 310 311 313 315 316 317 317 318 319 321 322 322
307 307 307 307 306 306 306 305 305 305 304 304 305 304 304 303 303 303 304 304 304 304 304 304 305 306 307 308 308 308 309 310 311 313 315 316 318 318 319 320 321 321
307 307 306 306 306 305 304 304 304 305 304 304 304 304 303 303 303 303 303 303 303 303 304 305 304 304 305 306 307 307 308 308 310 311 313 315 317 317 318 319 320 321
306 306 306 306 305 304 304 303 303 304 304 304 304 303 303 303 303 303 302 302 303 303 303 304 303 304 304 305 305 306 307 307 308 309 311 313 316 317 318 318 319 321
304 305 305 305 304 303 303 303 303 303 303 303 303 303 302 302 302 301 301 301 301 302 302 303 303 303 302 299 299 304 307 307 308 309 310 311 313 316 317 318 318 320
304 304 304 303 303 302 302 302 302 303 303 302 302 302 301 302 301 301 300 300 300 300 301 301 302 302 298 296 295 296 301 304 306 307 309 310 311 314 315 317 318 319
303 303 302 302 301 301 302 302 302 301 301 301 301 301 301 301 300 300 300 300 300 300 300 300 300 298 295 295 295 294 296 301 303 304 306 308 309 312 314 316 317 319
303 302 302 301 301 301 301 301 301 300 300 300 300 300 300 299 299 299 299 299 299 299 299 299 300 297 295 294 294 294 294 297 301 302 303 305 308 310 313 315 317 318
302 302 301 300 301 301 300 300 299 299 299 299 299 299 298 298 298 298 298 298 298 298 298 298 299 297 294 294 294 293 293 294 300 300 301 303 305 308 311 314 316 317
302 301 300 299 300 299 299 298 298 298 297 297 297 296 296 296 296 296 296 297 297 297 296 297 298 295 294 293 293 293 293 293 300 300 300 302 304 306 307 310 315 317
301 300 300 299 299 299 298 297 297 296 295 296 296 296 296 296 295 295 295 295 295 296 295 295 297 294 293 293 293 293 293 297 299 299 299 300 302 305 307 308 311 316
301 300 299 299 298 298 297 297 296 296 296 295 295 295 294 294 294 294 295 295 295 296 296 296 296 295 293 292 292 292 293 298 298 298 299 299 301 304 307 309 310 314
301 300 299 298 298 297 296 296 296 296 296 296 294 293 293 293 294 293 294 294 294 294 295 294 295 296 293 293 292 292 294 298 298 298 299 300 301 303 306 308 310 307
301 300 299 298 297 297 296 296 296 296 296 296 294 294 293 293 293 293 293 294 294 294 295 294 295 295 294 293 292 293 295 298 298 299 299 300 302 303 306 308 310 309
301 300 299 298 297 297 297 296 297 296 295 294 294 293 292 292 292 292 292 292 294 294 294 295 295 296 297 294 293 293 293 298 299 298 299 301 303 304 306 308 310 313

ECMWFNIL_sfc_thetae_009.txt.gz
Theta_e
318 317 318 316 316 317 317 317 316 316 316 315 315 315 314 317 317 318 317 317 317 317 317 319 319 319 320 322 322 321 321 323 324 325 326 328 331 332 331 331 330 330
318 317 316 316 316 316 315 317 316 316 316 316 316 315 317 317 317 317 316 316 316 317 317 317 318 318 318 319 320 321 321 323 323 325 325 326 327 331 332 333 331 331
317 316 315 314 314 315 316 317 317 316 315 316 317 317 316 316 316 316 316 316 315 315 316 316 317 317 318 319 320 321 320 321 321 323 324 324 325 326 329 332 333 332
317 317 316 316 315 315 316 315 315 315 315 314 315 315 316 317 317 316 315 315 314 313 314 314 315 316 317 318 319 319 320 320 321 322 322 324 325 325 326 328 329 329
317 316 316 315 315 315 315 314 314 314 314 313 314 315 313 314 314 314 314 314 314 313 313 313 314 314 315 316 317 317 318 319 321 321 321 321 323 324 325 325 326 327
317 316 315 314 315 315 314 313 313 313 312 312 313 313 313 313 312 312 313 312 312 312 311 311 312 312 313 315 316 317 317 318 319 320 320 320 321 322 323 325 325 325
316 315 315 315 315 314 313 313 313 312 311 312 312 311 312 311 310 310 310 311 311 311 311 311 311 311 312 313 314 315 316 317 318 318 318 319 320 320 321 323 323 323
315 316 315 314 314 314 313 312 312 312 312 312 311 311 311 310 309 309 310 310 310 310 310 310 310 310 311 312 312 313 314 316 316 317 318 318 319 319 319 320 321 322
315 315 314 314 314 313 313 312 312 312 312 311 311 310 310 310 309 309 308 308 308 308 309 309 310 310 310 310 311 311 312 313 314 315 316 317 318 318 319 319 319 320
314 314 313 313 313 312 312 312 312 312 312 311 311 310 309 309 309 308 308 307 307 307 308 308 308 309 309 309 310 310 311 311 312 313 314 316 317 317 318 319 319 319
314 313 312 312 312 312 312 312 312 312 312 310 310 309 309 308 308 308 307 307 307 307 307 308 308 309 308 308 309 310 311 311 312 312 314 314 315 317 317 318 319 319
313 312 312 312 311 312 312 311 311 311 310 310 309 308 308 308 307 307 307 306 306 307 307 307 308 308 308 309 309 310 310 311 311 312 312 313 314 315 317 318 319 319
311 311 311 311 311 311 311 310 309 309 309 308 308 308 307 306 306 306 306 306 306 306 306 307 307 308 308 308 309 309 309 309 310 310 311 312 313 314 316 317 318 318
310 311 311 310 310 310 309 309 308 308 308 308 307 306 306 305 305 305 305 306 306 306 306 306 306 307 307 307 308 308 309 309 309 309 310 311 312 313 314 316 317 318
310 310 310 309 308 308 308 308 307 307 307 307 306 306 306 306 306 305 305 304 305 305 305 306 306 306 307 307 308 307 308 308 308 308 309 309 310 312 313 314 316 317
309 309 308 308 307 307 307 307 306 306 306 305 305 305 305 305 306 305 305 304 304 304 304 305 305 306 304 300 300 306 307 307 308 308 308 308 308 309 311 312 314 316
308 307 307 306 307 307 307 306 305 305 305 304 304 304 304 304 304 304 303 303 303 303 303 303 304 304 299 297 296 296 302 304 304 305 306 307 308 308 308 310 312 314
307 306 306 306 306 305 305 305 305 304 303 303 303 303 303 303 303 302 302 303 303 303 303 303 303 300 296 296 296 295 296 302 303 303 303 304 304 305 307 309 310 311
305 305 305 305 305 304 305 304 303 303 302 302 301 301 301 300 301 301 301 302 302 301 301 302 302 299 296 295 295 295 294 297 301 301 301 302 303 303 304 306 308 310
305 304 304 304 304 304 304 303 302 301 302 301 300 300 299 299 299 299 300 300 300 300 300 301 301 299 295 295 294 293 293 294 301 300 300 300 301 302 303 303 305 307
304 304 304 304 304 303 302 302 302 301 301 300 299 298 298 297 297 297 298 298 299 299 299 299 300 296 294 294 293 293 292 293 298 299 299 300 300 300 301 302 303 304
303 303 303 303 303 302 301 301 301 300 299 299 298 298 298 298 298 297 297 297 297 298 297 297 298 295 294 293 293 292 292 297 298 298 298 298 298 300 300 301 302 303
303 303 303 302 302 301 300 300 300 299 299 299 298 297 296 296 296 297 297 297 297 297 296 296 297 296 294 293 292 292 293 297 297 296 296 297 297 298 299 300 301 302
303 303 303 302 301 300 300 300 300 299 299 299 297 296 296 296 296 296 296 297 296 296 296 295 296 296 293 293 292 292 293 296 296 296 296 296 296 298 299 299 300 300
302 302 302 302 301 301 301 300 299 298 298 298 297 297 296 296 296 295 295 296 296 296 296 295 295 295 293 292 292 292 294 296 295 295 294 295 296 296 298 299 300 300
303 303 303 302 302 301 301 300 300 299 298 297 297 296 295 295 295 294 294 294 295 295 294 294 294 294 295 292 293 292 292 295 295 294 294 294 295 295 296 298 299 300

ECMWFNIL_sfc_thetae_012.txt.gz
Theta_e
320 319 319 319 319 319 320 319 321 320 320 320 319 318 318 320 321 320 320 320 318 317 316 316 316 316 317 317 318 318 318 318 319 320 320 321 322 323 326 328 329 328
319 319 318 318 318 318 320 321 320 320 319 319 319 319 319 319 319 319 318 317 316 316 316 316 315 315 315 315 316 317 317 317 318 320 320 320 320 321 323 326 328 329
318 318 318 317 316 317 318 320 320 319 319 319 319 319 319 319 318 317 316 316 315 315 315 315 315 315 315 315 315 315 315 316 316 317 318 319 320 320 321 323 326 329
318 318 317 317 317 318 318 318 318 318 317 316 316 317 317 317 318 317 316 316 314 314 314 314 313 312 312 312 313 313 314 315 316 317 318 318 319 320 320 321 322 325
317 317 316 316 317 318 318 316 315 315 315 316 317 317 316 315 314 313 313 313 314 313 313 313 313 312 313 312 312 312 313 314 315 316 316 316 318 319 320 320 320 321
317 316 315 315 315 315 315 314 314 314 314 315 315 315 313 313 312 311 311 311 311 311 311 311 311 311 310 310 311 311 312 312 312 314 314 315 316 317 318 319 319 319
316 316 316 315 315 315 315 314 315 315 314 315 314 313 313 312 311 310 310 310 309 309 308 309 310 310 311 311 310 310 311 311 312 312 312 313 315 315 317 318 318 318
316 316 316 315 315 315 314 314 314 314 315 313 312 311 311 310 310 310 310 309 308 307 307 308 308 308 309 309 308 308 309 311 312 311 311 312 313 314 315 317 317 317
317 316 315 315 314 314 313 313 313 314 313 312 311 311 311 311 310 310 309 308 307 307 306 306 307 307 308 308 308 308 307 308 310 310 310 310 311 312 313 314 315 316
315 315 315 314 313 313 314 314 313 313 313 312 311 311 310 311 310 309 308 308 307 306 306 306 306 307 307 307 307 307 307 307 307 308 309 310 310 311 311 312 313 314
315 314 314 314 313 313 313 313 313 312 312 311 311 311 310 310 309 309 308 307 306 306 305 305 306 306 306 306 307 307 307 307 307 307 307 308 309 310 312 311 312 312
314 314 314 313 313 313 313 313 313 312 311 312 310 309 309 309 308 307 307 306 306 305 305 305 305 306 306 306 306 307 307 307 307 307 307 307 308 309 310 311 311 311
313 313 313 312 313 313 313 312 311 311 311 309 309 308 308 307 307 306 306 306 305 305 305 305 305 306 306 306 306 306 306 306 306 307 307 307 308 308 309 309 310 311
313 313 313 312 313 312 312 311 310 310 309 309 308 307 307 306 305 305 305 305 305 305 305 305 305 305 305 305 305 305 305 305 306 306 306 307 307 308 308 309 309 310
313 312 312 312 311 311 310 309 309 308 309 308 307 307 307 305 305 305 304 304 304 304 305 305 305 305 305 305 305 305 305 305 305 305 305 306 306 306 307 308 308 309
311 311 311 311 311 309 308 308 307 308 308 307 306 305 305 305 304 304 303 303 303 303 303 304 304 305 304 300 299 303 303 303 303 303 303 303 303 305 306 307 307 308
309 309 309 308 308 308 308 307 306 307 307 305 305 305 304 304 304 302 302 302 301 301 301 303 303 304 299 296 296 296 300 301 301 301 302 302 302 302 302 303 304 306
308 308 308 307 307 306 306 306 307 306 304 304 304 304 304 304 302 300 300 300 300 300 300 301 301 300 296 296 295 295 296 299 300 301 301 301 301 301 301 302 302 303
307 307 306 306 306 306 306 307 305 304 303 303 302 304 303 301 300 300 299 299 299 298 298 299 299 298 295 295 295 294 293 295 298 299 299 300 300 300 300 300 301 302
307 306 306 307 308 306 306 305 304 303 303 303 303 302 301 301 299 299 298 298 298 298 298 298 298 297 295 294 294 294 293 293 297 297 298 298 299 299 300 300 300 300
306 306 306 306 305 305 306 305 303 302 302 302 301 301 300 299 298 297 298 298 298 298 297 297 298 295 294 294 293 293 293 293 296 297 297 297 298 298 299 299 300 300
308 308 307 305 304 304 303 303 303 303 301 302 301 300 300 300 298 298 297 297 297 297 296 296 297 294 293 293 293 292 292 295 296 296 296 296 297 297 298 298 299 299
308 307 306 304 304 303 302 302 302 302 302 302 300 300 299 297 297 297 297 297 296 296 296 296 296 295 293 292 292 292 292 295 295 295 295 295 295 296 297 297 298 298
306 302 302 304 304 302 303 303 303 302 300 301 299 297 297 297 296 296 296 296 296 295 295 295 295 295 293 293 292 292 293 294 294 294 294 294 294 296 296 297 297 299
306 305 304 303 301 303 304 302 301 300 299 299 300 298 297 296 296 295 295 295 295 295 296 295 294 295 293 292 292 292 293 294 294 293 293 293 293 294 295 295 296 297
307 306 306 306 304 303 302 301 301 299 299 298 298 297 296 296 295 295 294 294 295 294 294 294 294 294 294 292 292 292 292 293 293 293 292 292 293 293 293 294 295 296

ECMWFNIL_sfc_thetae_015.txt.gz
Theta_e
313 314 312 312 311 312 312 311 311 311 311 309 308 308 308 309 312 311 311 312 312 311 311 310 310 310 313 311 311 312 312 313 314 314 314 315 315 315 316 316 318 322
313 314 314 313 312 312 312 311 311 309 309 308 308 308 309 309 310 310 310 310 311 310 310 310 310 310 310 310 310 310 311 312 311 316 315 314 314 314 314 315 316 318
313 312 312 311 311 309 310 311 311 309 308 309 308 308 309 311 310 310 309 309 309 309 309 310 309 310 310 309 309 309 310 309 309 311 312 313 314 313 313 315 316 317
312 312 311 311 310 310 309 310 309 309 308 308 308 308 310 311 309 309 310 314 309 308 308 309 309 309 309 309 308 308 308 309 309 310 311 312 313 314 314 315 315 316
312 311 311 311 310 310 310 309 309 308 308 307 307 308 309 308 307 307 307 307 307 307 307 308 308 308 308 308 308 307 308 308 309 310 309 309 310 311 313 314 314 314
312 312 311 310 309 309 309 308 309 308 308 307 307 308 306 307 306 306 306 305 306 306 306 306 306 306 306 306 306 306 306 307 308 308 308 308 309 310 312 313 313 313
311 310 310 310 309 309 308 308 307 308 307 307 307 306 306 306 306 305 305 305 305 305 304 303 303 304 304 304 304 305 306 306 306 307 307 308 308 308 310 311 312 312
311 310 310 309 308 308 308 308 307 307 306 306 305 305 305 305 305 304 305 305 304 304 303 303 303 303 303 303 304 304 304 306 306 305 306 307 307 307 308 310 310 309
311 310 310 309 308 307 308 308 307 306 307 305 305 305 305 305 305 305 305 304 303 303 302 301 302 302 302 303 302 302 302 303 304 304 304 304 305 306 307 308 308 308
310 310 309 308 307 307 307 307 307 306 307 306 306 305 305 305 305 305 304 303 303 302 301 301 302 302 302 302 302 302 302 303 303 303 303 303 304 304 306 307 307 307
310 310 309 308 307 307 307 307 307 306 306 306 305 304 305 304 304 305 303 303 303 302 301 301 301 301 301 301 302 302 302 303 303 303 303 304 304 304 306 305 305 306
309 309 308 308 307 307 307 307 307 306 305 305 305 304 303 304 303 302 303 302 301 301 301 300 300 300 301 301 301 301 302 302 303 303 303 303 303 304 304 304 305 305
309 308 308 307 307 307 307 306 306 305 305 305 305 304 303 302 302 301 301 301 300 300 300 301 301 301 301 301 301 302 302 302 302 302 302 303 303 304 304 304 305 305
308 308 307 307 307 306 306 306 305 304 304 304 304 302 301 301 301 300 299 300 300 299 300 301 300 300 301 301 302 302 301 301 301 301 302 302 302 302 303 302 303 304
308 308 307 307 306 306 305 304 304 302 302 302 302 302 303 301 301 300 299 298 298 298 298 299 300 300 301 301 300 300 300 300 300 301 301 301 301 302 301 301 301 301
308 308 307 306 305 304 303 302 301 301 301 300 300 300 299 300 299 299 297 297 296 296 296 298 298 299 301 297 297 297 297 297 298 298 298 298 299 299 300 301 301 300
307 306 305 304 303 302 301 301 301 301 300 300 299 299 299 299 298 295 295 296 295 295 295 296 297 298 296 294 294 295 296 296 295 296 296 296 297 297 297 298 299 300
304 304 303 302 302 301 300 301 300 299 299 298 297 298 297 297 295 294 294 295 295 295 294 294 295 297 294 294 294 294 295 296 295 295 295 295 296 296 296 297 297 298
303 302 302 301 301 301 300 300 299 298 297 296 296 296 296 294 293 294 294 294 294 293 293 294 294 295 294 294 294 293 293 295 295 295 295 295 295 295 295 296 296 297
302 301 300 299 299 298 298 297 297 295 295 295 296 296 293 292 293 293 293 293 293 293 293 293 294 295 294 294 293 293 292 293 295 294 294 294 294 294 295 295 295 295
301 299 298 297 297 296 296 295 295 294 295 295 294 293 291 291 291 292 292 293 292 292 292 293 295 294 293 293 293 292 292 292 294 295 294 294 294 294 294 294 295 295
298 296 296 296 296 296 295 295 294 294 295 294 293 292 291 291 292 292 291 290 291 291 291 292 293 293 292 292 292 291 292 293 293 293 293 292 293 293 294 294 294 294
297 296 296 295 295 295 294 294 293 293 292 292 291 290 290 291 291 291 291 290 291 291 291 291 291 292 292 292 292 292 292 293 292 292 292 292 292 293 293 293 294 294
297 295 295 295 294 294 294 293 292 292 291 291 290 289 290 291 290 289 289 290 290 290 291 291 291 293 292 292 292 291 292 292 292 291 291 291 291 292 293 293 294 296
296 295 294 294 294 294 294 292 292 292 291 291 290 289 289 289 291 290 289 290 290 291 295 293 291 292 292 291 291 291 292 291 290 289 288 289 289 289 290 291 292 294
295 296 296 295 294 292 292 292 294 291 290 290 289 290 289 289 289 288 288 289 290 290 291 291 290 290 291 291 291 291 291 291 290 288 288 288 288 289 289 289 291 291

ECMWFNIL_sfc_thetae_018.txt.gz
Theta_e
310 310 309 308 308 308 308 308 307 308 308 307 307 306 306 305 308 307 307 307 307 307 307 307 308 307 309 307 307 309 308 308 308 310 310 310 308 308 311 310 311 311
310 311 311 310 309 310 309 309 309 308 308 307 307 306 305 306 307 306 306 306 307 307 307 307 308 308 307 307 307 307 307 307 306 310 308 307 308 308 309 309 309 311
310 310 310 309 309 309 309 309 309 308 308 307 306 306 308 306 306 305 305 305 306 306 306 306 306 307 307 306 306 306 306 306 306 306 307 307 307 308 309 309 309 310
310 311 311 310 309 309 309 309 307 307 306 307 307 308 308 309 305 305 306 314 305 306 305 305 306 306 306 306 306 306 306 306 306 306 306 307 308 309 308 308 309 309
311 310 310 310 309 309 308 309 308 307 307 307 306 306 308 305 304 304 303 304 304 303 304 304 305 304 305 304 304 304 305 305 306 306 306 306 307 307 308 308 308 308
310 311 310 310 309 308 307 307 307 307 306 305 306 308 304 304 303 303 303 303 303 303 303 303 303 303 303 303 302 302 303 304 304 303 304 305 306 307 307 308 307 307
310 310 309 309 308 308 308 306 306 307 306 306 305 304 304 303 303 302 302 303 302 303 303 301 301 301 301 301 301 301 302 301 302 302 303 304 305 305 306 306 307 306
310 310 309 308 308 306 307 306 306 306 305 304 304 303 303 303 302 302 302 302 301 301 301 301 301 300 300 300 301 301 300 302 302 301 301 301 302 302 303 305 305 305
310 309 308 307 307 305 306 306 305 304 305 304 303 302 303 302 303 301 302 301 301 301 300 300 300 299 299 300 300 299 299 299 301 300 300 300 301 301 302 303 303 303
309 309 308 307 306 305 305 305 305 305 305 304 303 302 303 303 302 302 302 301 301 301 299 299 299 299 299 299 300 299 299 300 299 300 300 300 301 301 301 301 302 302
309 309 308 307 306 305 305 305 305 305 304 304 302 302 302 301 303 302 301 300 301 300 299 299 299 299 298 298 299 299 299 300 299 299 300 300 301 301 303 302 302 301
309 308 308 307 306 305 305 305 305 304 304 303 303 302 301 301 301 300 301 299 299 298 299 298 298 298 298 298 298 298 298 298 299 299 300 300 300 301 301 301 301 301
309 308 308 306 306 305 305 305 305 304 304 303 303 302 301 300 299 298 301 299 298 298 297 297 298 298 298 297 298 297 297 297 297 297 298 298 299 300 300 300 300 300
309 308 307 306 306 305 305 305 305 304 303 303 303 300 300 299 298 298 297 297 296 296 297 298 296 297 297 297 297 296 296 295 295 295 296 296 297 297 298 298 299 299
307 307 306 306 306 305 304 304 304 303 302 302 301 300 301 298 298 297 296 295 295 295 295 296 296 296 297 297 295 294 294 294 294 295 295 295 295 296 296 297 297 298
307 307 306 306 305 304 304 303 302 302 301 299 299 299 298 297 296 295 295 294 293 294 294 295 295 296 299 297 296 295 294 294 294 294 294 294 294 294 294 295 296 296
306 306 305 304 304 303 302 302 301 301 299 298 297 296 296 297 295 294 293 293 292 292 293 294 294 296 296 294 294 294 295 294 293 293 293 293 293 293 293 294 295 295
306 305 304 303 302 302 301 301 300 298 297 296 295 295 295 294 293 293 292 292 292 292 292 292 293 296 294 294 293 293 294 295 294 293 294 293 293 293 293 293 293 294
305 304 303 302 302 301 300 299 298 297 295 294 294 294 294 292 291 291 291 291 291 291 291 291 292 294 293 293 293 293 292 293 293 293 293 293 292 292 292 292 293 293
304 304 302 302 301 300 299 298 296 295 293 293 293 293 290 290 289 290 291 290 291 291 291 291 292 294 293 293 293 292 291 292 292 291 292 292 292 292 292 292 292 292
304 303 301 300 300 298 296 295 295 292 292 291 290 290 290 289 289 290 290 292 290 289 289 291 292 293 292 292 292 291 291 291 291 292 291 291 291 292 292 292 292 292
302 301 299 298 297 295 294 292 292 291 292 291 290 289 288 288 289 289 289 288 288 288 288 289 290 292 291 291 292 291 291 292 290 290 290 290 290 291 291 291 291 291
301 300 297 295 294 294 293 293 292 291 291 290 290 288 288 288 289 288 288 287 287 288 287 288 289 291 291 291 291 291 291 290 289 289 289 289 289 290 290 290 291 291
299 297 296 295 295 294 293 292 291 290 290 291 290 288 287 287 286 286 286 287 287 287 287 288 289 291 291 291 291 291 291 289 289 288 288 288 288 288 289 289 290 293
297 297 296 295 295 293 293 291 291 291 291 289 288 287 287 285 289 285 285 285 285 287 293 292 289 290 291 291 291 291 291 290 288 287 287 286 287 287 287 288 288 290
298 297 296 295 294 293 292 291 291 290 288 288 286 287 287 284 286 285 284 285 285 286 288 289 288 289 290 290 291 291 291 291 289 288 287 287 287 287 287 287 288 288

ECMWFNIL_sfc_thetae_021.txt.gz
Theta_e
309 308 308 308 307 307 306 305 304 306 306 303 304 304 303 304 306 304 305 305 305 304 305 304 305 305 306 304 304 305 305 305 306 305 305 305 304 304 306 305 305 306
308 308 310 308 308 307 306 306 306 306 306 305 305 303 302 304 305 304 304 305 305 303 303 303 305 305 304 304 304 304 304 303 304 307 304 303 304 303 304 304 304 305
308 308 308 307 307 307 306 306 306 306 305 306 304 303 305 304 304 302 302 302 302 302 303 303 303 303 304 303 304 303 303 302 303 303 304 303 303 304 305 304 304 304
309 309 308 308 307 307 307 306 305 305 304 305 304 305 306 307 304 302 307 308 301 302 300 302 302 302 303 303 303 303 303 302 303 303 302 303 304 304 304 304 305 305
309 309 309 308 307 307 307 307 306 306 305 306 303 304 308 305 302 301 301 301 301 301 301 301 301 302 303 303 302 302 303 303 302 302 302 301 302 303 303 304 303 303
310 310 310 309 308 307 307 307 307 306 305 303 305 307 304 303 302 302 301 301 300 301 301 300 300 301 300 301 301 300 300 302 301 300 300 300 300 301 303 303 301 301
309 309 309 309 308 307 307 307 306 307 305 306 305 305 303 303 302 301 300 301 300 303 302 300 300 300 300 299 299 299 300 299 300 300 300 300 300 300 300 301 301 301
309 309 309 309 308 307 307 306 306 306 305 305 305 304 304 303 302 301 300 300 300 300 300 299 299 299 299 298 298 298 299 300 300 299 299 299 299 299 300 301 300 300
309 309 309 308 308 307 307 306 305 305 305 305 304 303 303 303 303 302 302 299 299 300 299 299 299 298 297 297 297 297 297 297 298 298 298 298 298 299 299 300 299 300
309 309 308 308 308 307 307 306 305 305 305 305 304 304 303 303 302 302 301 300 300 299 298 298 298 297 297 297 297 297 296 297 296 296 296 296 297 298 298 299 299 299
309 309 308 308 308 307 306 305 305 305 305 304 303 303 303 302 301 300 300 299 301 299 298 296 297 296 296 296 296 296 296 296 296 296 296 296 296 297 301 298 298 298
310 309 308 308 307 305 305 305 305 305 305 304 304 303 301 301 302 301 302 299 299 297 296 296 295 295 295 296 296 296 296 295 296 296 296 295 295 296 296 297 297 298
310 309 309 308 306 305 305 305 304 304 304 304 304 303 302 300 299 299 300 299 296 297 297 296 296 296 295 294 295 294 295 294 294 293 294 294 294 295 295 295 296 296
311 310 308 307 306 305 305 305 304 304 304 304 303 301 301 300 299 299 298 296 296 296 296 296 295 294 293 293 294 294 294 293 292 293 293 293 293 294 294 295 295 295
311 309 308 306 305 305 304 304 304 304 303 303 303 302 302 300 299 298 297 295 294 295 295 295 294 294 294 294 293 292 291 292 292 293 293 293 293 293 293 294 294 295
310 308 307 306 305 304 304 304 303 303 302 301 301 300 299 298 297 296 295 295 294 292 292 294 293 294 298 298 297 295 293 293 293 293 292 292 293 292 293 293 293 294
305 305 306 305 305 304 303 303 302 302 301 300 299 297 297 297 296 294 292 292 292 291 290 292 293 294 295 293 293 294 294 292 292 292 292 292 292 291 291 292 293 293
305 304 305 304 304 304 303 303 302 301 300 298 296 295 295 295 293 292 292 292 291 290 289 291 292 296 292 292 293 292 294 294 292 291 292 291 291 291 291 292 292 292
305 305 304 304 304 304 303 302 301 300 298 296 296 295 294 292 291 292 291 290 290 289 290 291 290 293 292 293 292 292 292 293 291 291 291 291 290 290 290 291 291 292
305 305 304 304 303 302 301 301 300 298 295 294 294 292 291 290 290 290 290 289 288 289 289 289 289 293 292 292 292 291 291 291 291 290 290 290 290 290 290 290 290 290
305 304 304 300 299 299 299 298 296 292 292 292 292 291 291 290 290 289 289 290 288 287 287 288 289 292 291 291 291 291 291 291 290 290 290 290 290 290 290 290 290 290
303 301 300 301 300 298 296 294 294 293 291 291 290 289 289 289 288 290 289 288 287 286 286 286 286 290 290 290 291 290 291 291 289 289 289 289 289 289 289 289 290 290
302 300 299 298 297 296 294 293 292 291 291 292 291 290 289 289 290 289 288 286 287 287 285 284 284 289 290 290 290 290 290 289 288 288 288 288 288 288 289 289 289 289
300 299 297 296 296 294 293 292 292 291 291 292 290 289 288 288 289 288 287 287 286 285 284 284 284 289 290 290 290 290 290 288 288 287 287 287 287 288 288 288 288 292
298 296 295 295 293 292 292 291 290 291 290 289 290 289 289 288 290 287 286 285 285 284 292 289 285 288 290 289 290 290 290 289 288 287 286 286 287 287 287 288 288 290
297 296 295 295 293 292 292 291 291 290 288 289 289 289 289 287 289 287 285 285 285 286 285 285 285 285 288 289 290 290 290 289 288 286 286 286 287 287 288 288 289 289

ECMWFNIL_sfc_thetae_024.txt.gz
Theta_e
308 308 308 307 305 306 305 305 304 305 305 304 305 304 304 305 307 307 307 306 307 306 306 307 307 307 307 306 307 307 308 306 307 306 306 307 305 306 306 306 307 307
308 308 310 309 307 307 305 306 305 306 306 305 305 304 303 306 306 307 307 308 308 305 305 306 307 306 305 306 306 307 305 305 305 309 306 305 305 305 306 306 306 307
307 307 308 308 308 306 305 306 305 305 306 306 305 304 304 306 306 305 306 306 305 305 305 304 304 305 305 305 305 305 305 304 304 304 307 305 305 305 306 306 306 306
307 308 308 309 308 307 306 306 305 305 305 305 305 305 306 307 306 305 306 310 305 304 303 303 304 304 304 304 305 305 304 304 304 305 304 305 306 307 305 306 307 306
308 308 308 308 308 307 306 306 306 305 305 306 305 305 307 306 304 306 306 304 303 302 303 303 302 303 304 303 303 303 305 304 303 303 303 303 303 305 306 306 305 304
309 309 309 308 308 307 306 306 306 306 306 304 305 307 306 306 305 305 305 303 302 303 302 301 302 302 302 302 301 301 302 301 302 302 302 302 302 303 303 303 302 302
309 308 308 308 307 307 307 307 306 307 306 306 306 306 306 305 305 305 304 303 302 305 302 302 301 301 301 300 301 300 300 300 300 301 300 301 303 301 301 301 302 301
309 309 309 309 308 307 307 307 306 306 306 306 305 306 305 305 305 304 304 303 302 302 301 301 300 300 299 300 300 299 299 301 300 299 299 299 300 300 300 301 301 300
309 309 309 308 308 308 307 307 307 306 306 306 305 305 305 305 304 304 303 302 302 301 300 300 300 299 299 299 299 299 299 298 300 299 299 299 299 299 299 300 300 300
309 309 309 308 308 309 308 307 307 306 306 305 305 304 304 304 304 303 302 302 302 301 300 299 299 299 298 298 299 298 298 298 298 298 298 299 299 299 298 299 299 298
310 310 309 308 308 309 308 307 306 305 306 305 304 304 304 303 303 302 302 301 302 301 300 299 298 298 298 298 298 298 298 298 298 298 298 298 298 298 301 300 298 298
311 310 309 309 309 309 308 307 305 305 305 305 305 304 303 303 303 302 303 301 301 300 299 299 298 298 298 298 297 298 297 297 298 298 298 297 297 297 297 297 297 297
311 310 310 309 309 309 307 306 305 305 305 305 305 304 303 302 302 302 303 301 300 299 299 299 298 297 297 296 297 296 296 296 295 295 295 295 296 296 296 296 296 296
310 309 309 308 307 306 306 306 306 305 305 305 305 303 303 302 302 302 302 300 299 299 298 298 297 296 295 295 296 296 297 296 295 296 295 295 295 295 295 295 296 296
310 309 308 308 307 306 305 304 304 304 304 304 304 304 303 302 302 301 300 297 297 297 297 296 296 296 296 295 295 294 294 294 294 294 294 294 294 294 294 295 295 295
309 308 307 307 307 306 305 305 304 304 303 303 303 303 302 301 300 299 299 297 295 295 295 295 295 296 300 296 296 296 295 294 294 294 294 293 294 294 294 294 294 295
307 306 306 307 307 306 305 304 304 304 304 303 303 302 301 300 299 297 295 295 294 294 294 294 294 296 293 292 292 293 295 294 293 293 293 293 293 292 292 293 294 294
307 306 305 306 305 305 305 304 304 304 303 302 301 300 300 299 297 295 294 294 293 293 293 293 294 295 292 292 292 292 293 295 292 292 292 292 292 292 292 292 292 293
306 305 305 304 304 304 304 304 303 303 301 300 300 299 298 296 294 293 293 293 293 292 292 294 293 293 292 292 292 291 291 292 291 291 291 291 291 291 291 291 292 292
305 304 304 304 303 303 303 303 303 302 301 300 298 296 295 293 293 292 292 292 292 292 292 291 291 293 292 292 291 290 290 290 291 290 290 290 291 291 291 291 291 291
303 303 303 301 301 301 301 302 302 299 298 297 296 295 293 293 292 291 292 292 292 290 290 290 291 293 291 290 290 290 290 290 290 290 290 290 290 290 290 290 291 291
302 302 301 300 300 300 300 300 299 298 295 294 293 293 292 292 291 292 291 290 290 289 290 289 288 290 290 290 290 289 290 291 289 289 289 289 289 290 290 290 290 290
302 301 300 299 299 300 299 298 297 295 293 293 292 291 291 291 291 290 290 289 289 289 287 287 286 289 289 290 289 289 290 289 288 288 288 288 288 289 289 289 290 290
301 301 300 299 300 300 298 297 295 294 293 294 293 291 291 290 290 289 288 288 289 288 287 287 286 287 290 290 289 289 290 289 288 288 287 287 287 288 289 289 289 291
300 300 300 299 297 295 294 294 293 293 293 293 292 292 291 290 290 288 288 287 287 287 293 288 286 288 290 289 289 289 290 289 288 287 287 287 287 287 288 288 289 290
298 299 297 296 295 294 294 293 292 291 291 291 291 291 290 290 290 288 288 287 286 289 290 289 287 286 289 289 289 289 290 290 289 287 286 286 287 287 287 288 289 289

ECMWFNIL_sfc_thetae_030.txt.gz
Theta_e
327 327 325 322 321 322 323 320 320 321 320 320 319 320 320 323 324 324 324 324 323 322 320 320 320 320 319 319 318 317 318 319 318 318 317 317 316 316 315 315 315 316
329 327 325 324 322 322 323 323 323 321 320 321 321 320 322 323 324 325 325 324 323 322 321 320 320 319 319 318 317 317 316 318 317 317 318 318 317 316 316 315 315 315
329 329 328 326 324 325 326 326 325 323 320 321 322 322 322 325 324 325 325 325 323 322 321 320 319 318 318 318 317 317 316 316 316 317 317 316 316 316 315 315 314 314
329 329 328 328 327 327 328 326 325 324 322 322 322 323 324 325 324 324 324 323 323 322 321 320 319 319 318 317 318 316 316 316 316 317 316 316 316 316 315 315 314 314
329 328 328 328 328 328 329 326 325 323 323 323 324 324 322 323 324 323 324 323 323 321 321 320 319 319 318 318 317 316 315 314 315 317 316 315 316 315 314 315 313 312
329 328 327 327 328 328 327 326 325 324 323 324 323 323 322 322 322 322 323 322 322 321 320 319 318 318 318 318 317 317 315 315 315 315 314 314 314 315 312 314 312 311
327 328 328 327 328 327 327 326 326 325 324 325 325 324 322 322 321 321 321 321 321 320 319 319 318 318 318 318 316 315 315 315 313 313 312 313 314 312 312 312 310 309
326 327 327 328 328 327 327 326 326 325 326 325 325 325 324 322 321 321 321 321 320 319 319 318 318 317 317 316 315 315 315 315 314 312 312 312 312 311 312 310 311 310
325 325 326 327 327 326 327 326 325 326 327 327 325 325 325 324 322 322 321 321 320 320 318 318 317 317 317 316 315 315 313 314 314 312 312 312 312 311 309 309 309 310
325 326 326 326 326 326 326 326 326 325 326 326 325 325 324 325 323 322 322 321 320 319 318 318 317 317 316 316 315 314 313 313 312 312 312 312 310 309 308 309 309 308
325 325 325 325 325 326 326 327 327 326 326 325 325 324 324 324 323 322 322 321 320 319 318 318 317 317 316 315 315 315 314 313 312 311 312 310 310 310 308 308 308 308
326 325 324 325 325 326 326 327 327 327 327 326 325 323 324 323 323 322 321 321 320 319 319 318 318 317 316 315 315 314 314 313 312 311 310 310 309 309 309 309 308 308
326 326 326 324 325 325 326 326 326 327 327 326 325 324 323 322 322 320 321 321 320 320 319 318 318 317 316 316 315 314 313 312 311 311 310 310 309 308 308 308 307 306
319 323 326 327 326 325 323 325 327 325 325 326 325 324 323 322 320 319 320 320 320 319 319 319 318 317 316 316 314 313 313 312 311 311 309 309 309 308 307 307 306 306
317 318 320 322 324 324 324 324 325 325 325 325 324 324 324 322 321 319 319 319 319 319 318 318 318 316 316 315 313 312 312 311 310 309 308 307 306 306 306 305 305 305
315 317 317 319 320 321 322 324 323 323 324 323 322 322 323 323 322 321 320 319 318 318 318 318 317 316 306 301 305 311 311 309 308 307 306 305 304 304 304 304 304 304
314 315 316 316 318 319 321 321 321 322 323 323 322 321 321 321 320 320 319 320 319 318 317 315 310 303 294 293 293 297 306 307 306 305 304 304 303 303 302 303 303 303
312 313 313 315 316 316 318 320 321 321 320 321 321 319 319 318 317 317 318 319 318 316 314 309 303 294 291 292 292 292 297 304 304 304 303 303 303 302 301 302 302 302
312 312 312 313 315 316 318 319 319 320 320 319 319 320 319 318 318 318 318 317 316 313 309 303 299 292 290 291 291 291 290 297 303 303 302 301 301 301 301 301 301 301
312 312 312 313 314 315 317 318 318 318 319 320 319 319 318 317 319 318 318 316 313 309 304 300 297 292 291 290 291 290 289 293 302 301 301 301 300 300 301 301 301 301
311 311 312 313 313 314 316 317 317 319 318 318 317 317 317 316 317 317 315 312 308 304 300 297 295 290 290 290 290 290 288 291 301 300 300 300 301 301 301 301 302 302
311 311 311 312 312 314 314 315 316 318 318 317 316 317 318 318 317 315 311 306 303 300 297 294 293 290 290 290 289 290 288 299 298 298 298 299 300 301 301 301 301 301
311 311 311 311 312 312 312 314 315 316 316 316 315 315 315 314 311 308 306 302 299 297 295 293 292 291 289 289 290 288 291 299 299 299 299 299 300 300 301 301 301 301
311 311 310 311 311 311 312 313 315 316 315 314 314 313 311 309 307 303 301 300 298 296 295 293 293 292 289 290 289 289 292 298 299 299 299 299 299 300 300 300 300 298
311 311 311 310 310 311 312 313 313 314 313 314 313 310 306 303 301 299 298 299 299 298 297 296 294 292 289 289 289 289 296 299 298 298 298 298 299 298 300 300 299 299
311 311 311 311 311 311 312 312 313 311 311 309 306 303 300 298 297 297 296 297 298 298 297 297 295 294 293 289 290 289 289 297 297 297 297 297 298 297 297 298 298 299

ECMWFNIL_sfc_thetae_033.txt.gz
Theta_e
325 325 323 322 321 322 323 321 322 323 322 321 320 321 321 323 324 324 324 324 324 322 320 321 320 321 320 320 320 318 319 320 320 320 319 318 317 318 317 317 316 316
327 326 324 323 321 322 323 323 323 323 322 322 322 321 323 323 325 324 325 324 323 322 321 320 321 321 320 319 319 319 318 319 318 318 319 320 319 319 318 317 316 317
327 327 326 324 322 323 325 325 324 323 322 321 324 323 323 324 325 324 325 325 323 322 321 321 321 320 320 319 318 318 319 317 318 319 319 317 319 317 317 318 316 315
328 328 327 326 324 323 325 325 323 323 323 322 322 323 323 324 325 323 324 324 323 323 322 321 321 320 319 319 319 318 318 318 318 319 317 318 318 317 317 317 315 314
329 328 328 327 326 326 326 325 324 323 322 322 324 323 323 325 325 323 324 323 323 323 322 321 320 320 319 320 318 318 317 317 318 317 317 317 318 317 316 317 315 314
329 328 327 326 327 326 326 326 325 324 323 323 323 323 323 325 324 322 323 323 322 322 322 320 319 319 319 319 319 319 317 317 316 317 317 316 316 316 314 315 314 314
327 326 328 327 327 327 326 326 326 326 324 324 324 323 323 323 323 322 322 323 322 322 321 321 320 319 319 319 318 318 317 317 317 315 315 315 316 315 314 315 313 311
327 327 327 327 327 326 326 325 326 326 326 324 324 323 324 322 322 323 322 323 322 321 322 321 320 319 319 319 317 317 317 317 317 314 314 314 316 314 314 313 313 311
326 325 324 324 326 326 326 325 326 326 325 324 323 323 324 323 322 322 322 322 322 322 321 321 320 320 320 319 318 317 316 317 316 315 314 314 313 314 313 313 312 312
325 326 326 326 325 325 326 325 326 325 324 324 324 323 322 324 323 321 321 322 321 321 321 321 320 320 320 319 318 317 317 316 316 315 314 314 313 313 311 312 311 312
327 328 327 326 326 326 326 327 328 329 328 326 325 324 324 324 324 323 322 321 322 321 321 321 321 320 319 319 319 319 318 317 316 314 315 314 315 314 314 312 311 311
326 327 326 325 325 326 326 327 328 327 325 328 325 325 325 325 324 323 322 321 322 322 322 322 321 321 320 319 319 318 318 317 317 315 314 314 313 313 312 310 311 311
324 323 325 326 326 326 327 327 327 327 326 327 327 326 325 325 324 324 325 323 323 324 323 323 322 321 320 320 319 319 318 317 316 315 315 314 313 312 312 312 312 311
317 321 325 326 326 326 326 326 326 326 327 328 327 326 325 325 325 324 324 324 323 323 324 323 323 321 320 319 319 318 318 317 316 315 314 313 313 312 312 311 311 310
316 317 318 318 321 324 324 324 325 326 326 325 326 326 327 326 325 324 323 322 321 323 322 324 323 321 321 319 319 317 317 316 315 314 313 313 312 311 311 310 310 310
314 315 315 316 317 318 320 322 323 325 325 325 326 326 326 325 325 324 320 321 319 320 321 323 325 323 315 309 311 317 317 315 315 314 313 312 311 310 309 309 308 309
312 313 315 314 315 316 317 318 320 322 323 324 325 326 326 326 325 321 320 318 318 319 321 322 317 309 297 297 299 305 315 316 314 312 311 310 309 308 308 308 308 307
311 311 312 312 314 314 315 315 317 319 320 321 322 324 325 325 324 323 321 320 320 320 321 318 309 297 294 295 296 298 304 313 311 310 309 308 307 307 307 306 306 306
310 311 311 311 312 313 314 316 316 315 317 318 319 322 322 322 321 321 321 320 321 320 319 311 304 293 293 294 294 293 293 302 308 307 307 307 306 306 305 305 305 304
310 310 310 311 312 312 313 313 314 315 316 318 318 319 320 319 320 320 320 320 319 318 316 309 304 293 292 292 292 291 290 296 307 305 305 304 304 304 305 304 303 303
311 310 310 311 311 312 313 312 313 315 316 317 317 317 317 318 318 319 319 320 318 317 307 304 299 291 291 291 291 291 290 295 305 304 303 303 304 304 303 303 303 303
310 310 311 311 312 312 312 312 314 315 315 317 317 317 317 317 318 319 319 318 319 306 303 298 295 289 290 290 291 290 290 302 303 302 301 301 302 303 302 303 304 304
310 310 310 311 311 311 311 312 312 313 315 316 316 316 316 316 317 318 318 317 306 303 300 297 295 291 289 290 290 289 293 301 300 299 300 300 301 302 303 303 303 303
310 310 310 311 311 311 311 312 313 314 315 316 315 314 314 314 316 316 316 307 303 301 298 295 295 292 289 290 290 289 293 300 299 299 299 299 300 301 303 302 303 303
310 310 310 311 311 311 312 311 312 313 315 315 314 315 314 314 309 307 304 302 300 298 296 295 294 292 290 289 289 289 295 299 298 297 297 297 299 300 301 302 302 302
311 311 311 311 311 312 313 312 313 313 314 314 315 312 310 308 306 302 298 297 296 296 296 295 294 294 292 289 290 289 289 295 297 296 296 297 299 299 299 300 300 300

ECMWFNIL_sfc_thetae_036.txt.gz
Theta_e
327 325 327 327 325 325 324 325 324 324 325 326 324 323 323 326 323 326 326 326 325 323 323 324 322 324 324 322 322 318 319 321 320 319 319 317 317 317 317 316 316 317
326 326 325 326 326 325 326 328 327 324 326 327 326 325 324 326 323 325 326 325 324 323 324 323 324 322 322 320 321 324 317 320 318 319 319 319 318 317 316 315 315 316
326 327 325 325 325 326 326 328 330 327 326 327 330 326 325 326 323 326 326 325 322 322 322 322 323 323 322 321 320 324 319 320 320 321 320 317 319 317 317 317 316 316
328 329 327 327 326 328 328 325 329 329 328 325 328 328 326 326 324 324 325 325 324 322 322 322 321 321 320 320 320 322 318 319 319 320 318 318 319 318 317 316 315 314
329 329 331 330 329 331 328 326 327 328 329 327 328 328 326 325 325 323 325 324 324 322 321 321 321 321 322 319 318 320 317 319 318 318 317 317 318 316 318 317 315 314
329 328 329 330 331 332 328 327 327 327 328 328 327 327 328 326 324 323 323 323 322 322 322 320 320 321 319 320 318 319 315 317 316 317 317 316 315 316 314 317 313 313
330 330 331 330 330 330 329 329 330 329 328 328 327 326 326 326 324 323 321 322 321 321 320 320 319 319 319 320 318 318 317 317 316 314 315 315 316 314 316 314 313 313
329 330 329 330 329 331 330 330 328 328 328 328 327 327 325 325 323 324 322 322 321 320 320 320 320 318 319 319 318 317 318 319 318 314 314 315 315 312 314 317 314 311
327 327 327 327 329 328 327 326 327 328 329 327 326 325 324 322 323 323 322 321 321 321 320 320 320 319 319 318 318 317 316 317 319 314 314 315 315 314 311 312 312 311
326 326 326 326 326 327 324 324 325 328 325 325 326 326 323 325 324 321 321 321 320 320 320 320 320 320 320 318 318 317 316 316 316 316 316 315 315 312 312 312 311 311
325 327 327 327 325 325 324 323 323 323 324 322 323 322 322 323 322 321 320 320 320 319 320 320 320 320 319 319 319 319 318 318 316 315 315 314 315 314 316 313 311 311
325 326 324 322 322 322 324 326 325 326 325 324 323 322 323 323 321 322 321 320 320 319 319 319 320 320 319 319 318 318 318 317 317 316 316 314 315 315 313 313 312 311
325 325 325 324 323 323 324 325 325 326 326 325 325 324 322 321 321 321 322 323 322 321 322 320 320 320 320 319 319 318 317 317 317 317 316 316 316 314 313 312 311 311
324 325 325 323 322 323 323 325 326 321 319 320 322 322 323 322 322 324 322 321 320 319 319 321 323 321 321 320 319 318 318 317 317 316 314 315 316 314 314 313 312 311
322 322 326 325 323 323 323 323 323 324 322 321 321 321 324 324 322 321 321 320 320 320 321 321 321 321 320 319 317 319 321 317 316 315 314 313 313 312 313 312 311 311
320 323 322 321 320 320 322 324 323 323 323 323 323 324 324 324 321 320 320 321 319 319 320 320 320 322 316 309 305 314 317 317 316 315 313 312 311 311 311 311 311 310
318 318 320 318 320 321 321 321 319 322 322 322 323 324 324 325 324 321 321 320 318 318 318 319 323 321 306 302 303 300 315 317 314 313 313 312 312 310 309 309 309 307
316 314 316 317 319 318 319 318 318 317 317 319 320 322 323 324 323 322 321 320 319 318 318 319 315 301 298 301 302 302 306 317 314 313 312 311 310 308 308 310 310 309
315 315 314 315 314 315 318 319 317 316 315 316 318 321 321 321 322 322 322 321 320 318 318 316 308 293 295 297 297 299 302 308 312 311 308 307 307 307 309 308 307 307
311 310 310 312 314 314 315 313 313 313 316 317 317 317 320 319 320 320 320 320 320 320 316 306 302 293 293 294 295 296 298 303 308 308 307 307 306 306 307 307 306 305
309 310 312 311 312 311 312 311 312 313 315 316 316 317 316 318 318 317 318 318 318 313 304 302 296 292 292 292 293 295 296 300 305 305 304 304 305 305 306 307 306 306
310 312 313 312 312 313 313 312 313 315 314 316 316 316 316 317 317 317 317 317 309 304 299 295 294 290 291 291 292 294 297 304 303 303 303 302 303 305 305 305 306 304
311 310 312 313 312 311 310 311 312 312 313 314 313 315 315 315 315 316 316 307 304 301 296 293 293 291 290 291 291 294 298 302 301 300 300 302 302 304 304 305 304 303
309 308 309 311 313 311 312 314 315 315 313 315 313 313 313 315 315 309 304 304 301 298 296 294 292 291 290 290 290 291 296 302 300 302 302 302 302 304 303 303 302 306
309 309 309 310 309 310 313 312 312 312 312 314 314 314 312 307 306 304 302 300 299 297 297 294 293 292 290 289 289 290 296 299 298 299 300 300 300 300 303 303 303 303
312 311 312 311 309 311 312 312 313 312 313 313 314 310 306 304 302 300 298 297 296 296 295 294 293 293 292 289 290 290 290 297 298 296 296 297 298 297 297 298 297 298

ECMWFNIL_sfc_thetae_039.txt.gz
Theta_e
316 317 317 315 316 316 316 314 315 316 315 315 313 314 315 314 317 315 314 315 313 313 313 313 312 312 314 312 312 313 313 312 312 311 311 311 309 308 309 308 308 309
317 318 318 317 317 317 316 315 315 316 316 315 315 316 317 316 315 317 315 315 313 312 313 312 313 312 312 312 313 312 312 312 311 316 312 311 309 308 307 308 308 307
317 317 318 316 317 316 316 317 316 315 316 316 316 317 317 316 315 317 316 315 313 313 313 313 313 313 313 311 312 312 311 310 310 313 313 311 310 309 309 308 308 306
318 317 317 317 317 316 315 318 316 314 316 317 316 317 318 317 316 318 317 322 314 313 312 313 313 313 313 310 311 312 310 312 312 311 309 310 310 310 308 307 308 307
319 317 318 316 319 318 316 316 317 316 315 315 318 317 318 316 315 317 317 317 315 314 314 314 313 312 312 310 311 310 309 311 311 310 309 309 309 310 310 308 307 306
321 321 320 318 319 319 316 315 317 317 316 314 316 318 317 317 315 316 317 316 316 315 314 314 313 313 312 311 309 310 309 312 309 309 311 309 309 309 313 309 306 304
321 320 320 320 320 320 317 317 317 317 317 316 317 316 318 317 316 316 317 317 317 317 315 314 313 312 312 311 309 310 308 310 308 309 310 309 308 308 310 308 307 307
319 319 319 317 318 318 318 318 317 317 318 318 317 316 317 318 318 317 316 317 316 316 316 315 314 313 313 312 311 310 309 312 310 308 308 309 307 306 307 310 307 305
318 318 319 318 318 319 318 318 318 317 318 317 316 316 316 317 318 317 317 316 316 316 315 315 315 314 313 312 311 310 311 310 311 308 307 308 308 307 308 308 304 305
318 318 318 318 318 318 318 317 318 318 317 318 318 317 317 317 316 316 317 315 316 316 315 315 315 314 314 313 313 312 311 311 311 308 308 308 309 308 307 307 304 304
319 319 319 318 318 318 318 317 317 318 318 318 318 318 319 319 317 318 317 315 315 314 315 315 316 315 314 313 313 313 312 312 311 310 309 308 309 309 311 307 306 305
316 318 319 319 319 318 318 318 317 318 318 317 318 317 317 318 318 318 318 316 316 317 316 316 316 315 316 316 314 313 312 312 311 310 310 309 308 308 308 307 307 306
318 318 317 316 316 316 315 317 317 317 318 318 317 316 316 316 317 317 315 316 317 316 317 318 318 318 316 316 316 315 313 312 312 310 310 309 309 309 308 307 307 306
318 318 316 316 315 315 315 316 317 316 316 316 318 316 316 318 318 317 316 316 316 316 317 316 316 317 316 316 318 318 316 313 312 311 310 309 309 308 306 305 305 306
317 317 316 314 316 315 315 315 317 317 316 315 314 315 317 317 317 316 315 316 316 316 316 315 316 316 316 316 315 316 315 314 313 312 310 309 308 307 306 306 306 305
312 317 317 317 315 315 316 316 317 317 316 314 315 317 316 317 316 316 314 313 314 315 316 317 316 317 314 309 311 315 314 315 314 312 310 309 307 306 305 305 305 305
302 304 308 314 315 315 315 316 316 317 317 316 316 316 316 316 316 314 314 314 315 315 315 316 316 317 307 303 301 305 311 311 313 311 310 308 307 306 304 304 304 305
305 304 303 305 306 306 308 308 308 311 315 315 314 314 315 316 316 315 314 314 315 315 312 313 313 310 305 302 300 299 302 312 311 311 309 308 307 306 305 304 304 305
302 303 303 303 304 305 304 303 303 304 304 306 308 312 311 312 315 315 314 315 314 313 312 310 313 301 294 298 298 299 300 306 310 309 308 306 305 304 303 302 302 303
301 301 301 302 303 303 304 303 303 303 304 305 306 307 308 310 310 315 314 314 313 311 307 303 297 292 294 296 297 297 298 301 305 304 304 304 304 303 302 301 300 300
301 301 301 302 303 302 301 301 302 301 302 302 303 304 305 305 307 308 313 312 308 305 299 293 293 292 292 293 294 295 296 298 302 302 302 301 300 301 300 300 300 302
301 300 301 301 302 302 303 302 302 302 303 303 303 303 303 303 303 305 304 303 302 297 293 290 290 291 292 293 294 294 296 300 299 298 298 299 298 300 300 301 301 300
302 301 301 302 302 302 302 301 301 301 301 302 303 301 301 302 300 300 300 298 295 293 290 289 289 291 292 293 294 294 295 297 296 297 297 297 297 298 300 299 300 300
301 301 301 302 301 302 302 302 302 302 302 303 304 301 299 299 298 297 296 294 292 291 291 289 288 291 292 293 293 294 297 298 297 297 296 296 297 299 300 300 301 304
301 302 302 302 302 301 302 302 301 302 302 300 301 300 298 296 296 294 293 292 291 291 295 290 288 290 291 291 292 293 296 296 296 295 295 296 296 296 297 296 295 296
300 301 301 301 301 301 301 302 302 301 302 300 298 298 296 294 293 292 291 290 290 290 291 289 288 288 289 290 291 292 294 296 296 295 294 293 293 294 294 294 293 291

ECMWFNIL_sfc_thetae_042.txt.gz
Theta_e
315 314 313 312 312 313 312 312 311 310 309 310 309 310 310 311 311 310 311 310 308 308 308 308 308 309 312 309 309 311 310 308 307 306 308 308 305 306 307 305 304 304
315 315 315 314 314 313 312 313 313 311 310 310 311 311 311 311 311 311 311 310 310 308 308 308 309 308 309 309 308 309 308 307 308 312 308 306 305 306 305 304 302 302
315 315 315 314 314 314 313 313 314 313 312 311 311 312 313 312 312 310 311 309 309 309 308 308 308 309 308 308 308 309 308 306 307 309 308 306 306 306 304 304 303 302
316 315 315 315 316 315 314 313 314 314 313 312 312 314 314 314 313 312 311 315 309 309 308 308 308 308 308 308 308 307 307 307 308 307 307 306 307 305 304 305 304 302
316 316 316 316 316 316 315 314 314 314 314 314 313 313 314 312 312 312 312 310 310 309 309 309 308 308 307 307 308 307 307 307 307 305 305 306 307 305 306 305 303 302
316 317 317 317 316 315 316 315 314 314 315 313 314 315 314 313 313 313 313 311 310 311 310 309 309 308 308 307 307 307 307 309 307 306 306 306 306 306 309 304 303 302
317 317 316 317 317 315 315 316 315 315 314 315 315 315 314 313 313 314 314 313 312 312 311 310 310 308 308 307 307 307 306 308 306 307 307 306 306 306 307 304 303 302
317 317 317 316 317 316 314 314 315 315 314 313 314 315 315 313 313 315 315 315 313 313 312 311 311 310 309 308 307 308 306 309 307 306 307 307 304 305 305 306 303 302
316 316 316 315 315 316 316 317 316 316 317 315 315 314 315 314 314 314 315 315 315 314 312 312 312 311 311 310 308 308 307 307 308 306 306 307 305 305 306 305 303 303
314 316 315 315 315 315 315 316 317 317 317 317 315 313 313 314 315 314 314 314 315 314 314 313 312 312 311 311 311 309 309 308 308 306 306 307 307 305 305 305 303 302
313 312 313 315 314 315 315 316 316 317 316 317 316 316 315 315 315 315 315 314 315 314 313 313 313 312 312 311 311 310 310 309 309 308 306 306 308 307 308 305 303 302
312 312 313 312 313 313 313 315 316 316 315 313 315 316 313 313 315 313 314 314 313 314 313 312 313 313 312 311 310 310 310 309 309 309 308 307 308 308 307 306 304 302
312 312 312 312 313 313 313 314 314 316 317 316 317 315 314 313 314 314 313 313 315 315 315 315 315 315 314 313 312 311 310 310 309 309 308 307 307 308 308 306 305 304
313 313 313 313 312 311 313 313 314 314 315 316 316 315 315 315 314 315 314 314 314 315 315 315 314 314 313 314 314 314 313 311 310 309 308 307 307 307 307 306 306 305
312 311 312 311 311 311 311 312 314 315 313 312 312 312 314 314 315 315 314 313 312 312 313 312 313 314 315 314 314 315 314 313 312 311 310 308 308 307 306 305 305 305
311 311 312 311 310 311 311 312 312 312 310 310 311 311 310 312 313 313 313 312 312 311 311 312 313 314 313 309 310 314 313 313 311 310 310 309 308 307 305 306 306 306
306 309 311 311 309 309 308 309 311 310 310 310 310 309 310 311 311 311 311 311 312 311 310 312 314 315 306 301 300 305 311 310 310 309 309 308 307 306 304 304 305 306
300 301 304 304 305 305 305 307 308 308 310 310 309 309 310 308 309 312 311 310 309 307 309 311 311 309 303 301 300 299 304 311 310 310 309 308 307 306 305 304 305 306
299 299 299 299 300 301 302 302 303 304 305 305 305 307 308 307 311 311 312 309 308 309 309 307 302 293 296 298 297 297 297 304 308 308 308 306 306 305 304 304 304 304
298 298 298 299 300 299 299 299 299 298 299 300 302 303 304 303 303 307 308 307 307 306 305 294 293 294 294 296 295 295 295 299 306 304 304 304 304 303 303 302 302 301
299 298 297 297 297 298 297 297 298 298 299 299 299 300 300 301 302 302 304 307 304 299 294 292 292 292 293 294 294 295 295 298 300 300 300 299 299 300 300 300 301 300
298 297 297 297 298 298 299 299 297 296 297 297 297 296 296 296 297 297 301 297 295 293 291 289 290 292 292 292 293 294 296 299 298 298 298 298 299 299 300 301 301 300
298 297 297 298 297 297 297 297 298 299 299 298 297 294 294 294 293 293 294 293 292 290 290 289 289 292 292 293 293 294 295 296 296 297 297 297 298 299 299 300 300 300
298 298 298 298 297 299 299 300 298 297 297 297 296 294 294 292 292 291 290 290 289 289 289 290 288 291 293 292 293 294 296 296 296 297 297 297 297 296 294 295 300 302
297 298 298 298 298 297 297 299 298 298 295 294 294 294 293 291 291 290 289 288 288 290 295 289 288 291 291 291 292 293 295 294 295 295 295 294 293 293 292 292 292 295
296 297 297 298 298 297 296 298 297 294 294 294 292 292 291 289 289 289 288 287 287 287 289 287 288 288 290 291 292 293 294 295 294 292 292 292 293 293 291 290 290 290

ECMWFNIL_sfc_thetae_045.txt.gz
Theta_e
314 314 314 313 312 312 309 308 306 306 305 306 306 306 307 306 309 306 306 306 306 306 306 306 307 308 309 307 307 308 307 306 305 304 305 305 303 304 304 302 302 303
314 315 314 313 313 313 310 308 307 307 306 306 307 306 306 307 308 307 306 306 307 305 304 305 306 306 305 306 305 306 305 305 306 309 305 304 302 303 302 300 301 300
314 313 313 313 313 312 311 310 309 307 307 307 306 307 309 308 307 307 306 305 305 305 305 305 306 306 306 305 305 307 306 305 305 305 306 303 302 303 300 300 300 300
314 314 313 314 314 313 312 312 310 308 307 307 308 310 309 310 307 307 306 314 305 306 305 305 306 306 305 305 305 305 304 305 306 304 305 304 304 303 301 302 301 299
314 313 313 314 314 314 313 312 311 310 310 310 308 309 310 309 307 307 306 307 305 306 305 306 305 305 305 305 304 304 304 305 304 303 303 303 303 303 302 302 300 299
314 313 313 314 314 314 313 313 313 312 311 309 310 310 309 309 309 308 308 307 306 306 306 306 305 305 304 305 304 304 305 305 304 303 304 303 303 303 304 301 300 299
314 313 313 314 314 314 314 314 313 313 312 312 311 310 310 309 309 309 309 308 307 308 307 306 306 305 305 303 304 304 303 304 303 303 304 303 304 303 303 301 301 300
312 312 313 313 313 313 312 313 313 311 310 310 310 311 311 310 310 310 311 311 309 308 308 307 308 307 306 304 305 304 303 306 305 303 304 303 303 303 303 303 301 301
314 313 314 313 313 312 313 314 314 312 312 312 311 311 312 312 311 311 312 312 312 311 310 309 309 308 307 307 305 306 305 304 306 304 305 304 303 303 304 302 300 301
315 314 314 314 314 314 314 315 315 314 315 315 315 314 314 314 313 312 312 312 313 313 312 311 310 310 309 308 308 306 306 306 306 305 305 305 305 304 303 303 302 300
310 311 312 311 311 311 312 313 312 313 314 314 315 315 314 314 314 314 314 314 314 314 313 312 311 310 309 308 308 307 307 306 306 306 305 305 306 305 307 305 303 303
308 308 310 309 309 309 311 312 311 311 311 311 313 314 313 313 313 312 314 314 314 314 313 313 312 311 310 309 309 308 307 306 306 307 306 305 305 306 306 305 304 303
310 309 310 309 309 309 311 311 312 313 313 312 312 312 312 313 313 312 312 312 314 315 315 315 314 313 312 312 311 309 308 307 306 306 306 305 305 306 306 305 304 303
310 311 311 311 310 311 311 312 312 312 313 312 312 311 312 312 312 313 313 314 313 313 314 314 313 313 313 312 312 312 310 309 309 308 308 306 305 305 306 306 305 304
311 311 310 311 311 311 310 311 312 313 313 313 311 311 312 313 314 314 313 313 313 313 313 312 312 313 313 313 313 313 312 311 310 309 309 308 307 305 305 305 305 304
309 310 311 310 310 310 310 310 310 311 310 310 311 311 311 312 312 312 313 314 313 312 311 311 311 312 312 308 308 311 311 312 310 309 308 308 307 306 305 305 305 305
308 309 310 308 308 307 307 307 308 308 307 307 308 310 311 311 310 311 311 311 310 309 309 310 309 311 306 302 301 300 308 309 309 308 308 308 307 306 305 304 304 305
298 299 301 301 304 305 303 303 303 304 306 305 305 306 307 307 307 309 309 308 307 305 305 305 306 303 297 301 300 299 301 308 309 309 309 307 306 306 305 304 304 305
297 298 298 298 299 299 299 299 299 300 300 300 301 302 303 303 304 304 304 303 304 306 304 304 303 295 293 294 295 296 296 302 307 307 307 307 307 306 305 305 304 304
295 296 297 296 297 297 296 297 298 298 298 297 298 298 298 301 300 300 301 301 301 303 301 295 293 295 293 293 293 292 292 296 303 303 304 303 303 302 302 302 302 302
295 294 295 295 296 296 294 294 295 295 297 296 295 298 298 299 297 295 298 301 298 295 292 291 291 293 292 292 293 294 294 296 296 296 297 295 296 297 297 298 299 300
295 294 295 294 294 293 293 294 294 294 295 295 293 292 291 291 292 294 295 292 291 290 290 290 290 291 292 292 293 294 295 297 295 296 295 296 296 295 296 296 297 297
295 295 295 294 293 295 295 296 296 295 296 294 294 291 291 291 289 289 289 289 290 288 288 288 288 291 292 293 292 293 295 295 295 295 295 294 293 294 295 297 296 295
295 295 296 295 295 296 296 297 295 294 292 293 291 291 291 290 289 288 287 288 287 286 289 288 287 291 292 292 293 294 295 295 294 294 293 292 291 292 294 296 299 299
295 295 295 295 296 295 294 296 294 293 292 291 291 291 289 288 289 287 287 287 287 289 295 288 287 291 292 292 292 293 295 293 294 293 291 289 290 290 291 292 293 295
296 296 294 294 294 295 293 294 293 291 289 290 289 289 289 287 287 286 285 285 285 285 287 286 287 287 289 291 292 293 294 294 293 292 290 289 289 289 289 288 289 290

ECMWFNIL_sfc_thetae_048.txt.gz
Theta_e
313 313 313 312 311 310 308 306 306 306 305 305 306 305 306 307 309 307 308 307 308 308 308 309 310 310 310 308 309 308 308 307 306 305 306 306 305 305 305 304 304 305
313 314 314 312 312 311 309 308 307 307 306 306 306 305 306 307 308 307 307 308 308 306 306 307 309 308 307 307 307 307 307 307 308 308 305 304 304 304 303 303 303 303
313 313 313 312 312 310 309 309 308 306 307 306 305 306 308 308 307 306 306 306 306 306 306 307 308 308 307 307 308 308 307 307 306 306 306 304 304 304 302 303 303 303
312 313 313 313 313 311 310 310 308 308 307 308 307 308 309 311 307 307 307 314 305 306 305 306 307 307 307 307 307 307 306 307 307 307 306 305 306 304 303 304 303 303
312 312 312 313 313 312 311 310 309 308 309 309 308 309 311 309 307 307 307 308 306 306 306 307 306 307 307 306 306 307 308 307 306 305 305 304 305 305 304 303 303 303
313 313 312 312 313 312 311 310 310 310 309 309 309 311 309 308 308 308 308 308 307 307 307 307 307 306 306 306 306 307 308 307 306 305 305 306 306 305 304 302 302 303
312 312 312 313 313 313 312 313 312 312 311 312 311 310 310 309 310 310 309 309 308 310 309 308 307 307 306 306 307 306 306 307 305 306 306 305 307 306 304 302 303 303
312 312 312 312 312 312 312 313 313 312 311 311 310 310 311 310 310 311 311 310 310 309 309 309 308 308 307 306 307 306 306 307 306 306 306 306 306 306 305 304 303 303
312 312 313 313 312 311 311 311 311 311 313 311 311 311 311 311 311 311 312 312 311 311 310 310 309 309 308 307 307 307 307 307 308 306 307 307 306 306 305 304 303 304
312 312 312 312 312 311 312 312 312 312 313 314 313 313 313 313 313 313 312 312 313 313 312 312 312 310 310 309 309 307 307 307 307 307 307 307 307 306 306 304 304 303
310 311 311 311 311 311 312 312 312 313 314 315 315 314 315 314 315 314 314 314 314 314 314 313 313 312 311 310 310 310 309 308 307 307 307 307 308 307 308 306 305 305
309 309 309 309 310 310 311 311 312 313 313 313 314 313 313 313 313 313 315 315 314 314 314 314 314 313 312 312 312 311 310 309 308 308 308 307 307 307 307 307 307 306
309 309 310 310 310 310 310 310 311 311 312 312 312 313 312 312 312 312 312 313 313 313 314 314 315 315 314 313 313 312 311 310 309 308 308 308 307 307 308 307 307 307
310 309 310 310 309 310 311 312 312 311 311 310 311 311 310 311 312 312 312 312 312 312 313 313 313 313 313 314 314 313 312 310 309 308 308 308 308 308 308 308 308 308
309 310 309 310 310 309 309 310 311 311 310 310 310 310 311 311 312 312 311 311 311 311 311 312 312 312 313 313 312 313 312 311 311 309 309 309 309 308 308 308 308 308
308 308 309 308 309 309 309 309 310 310 310 310 310 311 311 311 310 310 311 310 310 311 310 310 311 312 311 306 306 312 312 312 312 311 310 309 309 309 308 307 308 308
306 308 308 308 308 308 307 308 309 309 309 308 309 309 309 310 310 309 309 309 310 309 309 310 310 311 306 301 299 300 307 310 310 310 310 310 309 308 308 308 308 308
305 306 306 305 308 309 308 308 308 308 309 308 308 309 309 308 308 309 308 308 308 307 307 308 309 303 295 294 295 295 299 308 309 310 310 309 309 309 308 308 307 307
300 301 300 300 300 300 302 305 307 307 307 307 307 307 305 305 307 306 307 306 306 307 308 307 306 297 293 293 293 293 293 298 307 308 308 308 307 307 307 307 307 306
297 298 298 297 297 297 298 300 301 300 299 300 301 300 301 301 301 303 303 303 303 304 305 301 299 295 292 292 293 293 292 294 305 306 305 303 303 304 305 305 305 305
295 295 296 296 296 296 296 297 297 297 298 296 296 296 297 296 297 298 300 300 300 299 297 295 293 292 291 292 292 293 292 295 300 299 298 297 297 298 299 301 302 302
295 295 295 294 295 295 296 296 295 295 296 296 295 293 292 293 294 295 296 296 293 293 294 295 292 291 291 292 293 293 294 298 297 297 297 296 296 297 298 298 298 299
296 297 296 295 294 296 296 296 297 295 294 294 294 292 293 292 291 291 291 291 293 291 291 292 291 292 291 292 292 292 295 297 297 296 295 294 294 295 297 297 296 295
296 297 297 296 296 297 297 295 293 292 292 293 295 293 293 291 290 289 288 290 289 289 289 291 292 292 292 292 292 293 295 297 296 294 293 292 292 293 295 297 299 298
295 295 296 295 296 295 295 295 294 295 293 291 291 292 291 290 291 289 288 288 289 291 296 289 288 292 292 292 292 293 295 296 295 294 292 291 291 291 291 292 293 295
297 299 298 299 297 295 296 296 294 292 291 291 289 290 289 288 289 287 287 286 286 286 288 288 289 290 292 291 292 293 293 295 295 294 292 290 291 291 291 290 291 292

ECMWFNIL_sfc_thetae_051.txt.gz
Theta_e
325 326 326 325 325 325 323 322 322 322 322 322 321 322 322 323 322 325 325 326 325 324 324 324 323 323 322 323 324 320 320 322 321 321 321 320 319 319 317 317 318 315
323 324 323 324 322 321 323 323 323 322 321 323 323 322 322 322 323 324 325 325 324 324 324 324 323 322 322 321 323 321 320 321 319 319 320 319 317 318 318 317 316 317
323 323 322 322 321 321 320 321 323 323 322 322 323 323 322 324 323 323 325 324 323 323 324 324 323 321 321 321 322 321 320 319 318 319 318 316 317 315 316 317 316 317
324 324 323 323 323 321 321 320 321 322 323 321 321 323 323 323 324 322 323 322 323 323 324 323 322 321 320 320 321 319 320 318 318 319 317 317 317 315 316 316 315 315
322 322 323 322 322 322 322 321 320 321 322 323 324 323 322 323 323 322 323 322 322 322 323 322 322 322 321 321 320 319 319 318 319 319 316 315 317 316 316 316 315 314
321 321 321 321 321 321 321 321 321 321 322 322 323 323 323 323 323 322 321 321 320 320 321 321 321 321 322 321 322 321 320 318 318 317 315 315 314 316 313 315 315 313
321 321 321 321 321 322 322 322 322 322 322 324 322 322 322 321 321 321 321 320 319 319 319 320 320 321 321 322 320 320 321 321 318 317 315 315 315 315 314 314 313 312
322 322 322 322 322 322 321 320 321 321 322 321 322 322 322 321 320 323 322 321 320 320 320 319 319 320 320 320 319 319 320 321 322 319 317 316 317 314 314 314 315 313
323 322 322 323 323 322 322 321 323 323 321 322 322 322 322 322 322 323 322 322 322 322 321 321 321 320 321 320 320 319 318 319 320 320 319 318 317 316 314 313 313 314
322 323 322 323 323 324 324 324 323 324 323 322 322 323 322 324 324 323 322 323 322 322 322 322 322 322 322 321 320 320 319 318 318 319 318 318 317 316 315 314 314 314
323 323 323 324 324 325 325 324 325 325 325 323 324 323 324 325 324 323 322 321 323 322 322 322 322 322 322 321 322 322 321 320 319 319 319 318 318 317 318 317 315 314
323 322 322 323 323 324 325 325 325 325 324 325 324 324 325 325 325 324 323 323 323 323 323 323 323 322 322 322 322 322 322 321 321 320 319 318 318 318 317 317 317 315
321 322 322 322 323 324 324 324 324 325 323 323 324 324 324 324 324 324 325 324 324 325 324 323 323 323 324 324 323 322 322 321 321 321 320 319 318 317 317 317 316 316
321 321 321 322 322 323 323 324 324 324 324 325 324 324 324 324 323 324 325 324 325 324 324 323 323 323 323 323 323 324 323 322 321 320 320 320 319 318 317 316 317 317
321 321 322 322 321 322 323 324 325 325 324 324 324 324 325 324 324 323 323 323 323 323 323 323 323 324 324 323 324 322 322 321 320 320 320 320 319 319 319 318 317 317
320 321 321 321 321 321 322 322 322 324 324 323 322 323 323 323 323 322 322 322 322 322 322 322 322 323 317 308 308 320 322 322 322 322 321 320 320 319 320 319 318 318
320 320 321 321 322 322 322 321 320 322 322 322 321 321 322 321 321 321 321 321 321 321 321 321 321 319 298 295 295 297 314 323 322 322 322 321 320 319 319 320 320 318
320 320 320 320 318 318 318 319 320 319 319 320 320 320 320 320 320 321 320 320 320 321 321 320 320 299 292 293 293 293 297 316 320 321 321 321 321 320 319 319 319 319
319 320 320 319 318 318 318 318 318 316 317 318 319 319 317 317 317 316 317 318 320 320 318 315 315 293 292 293 293 292 292 303 317 318 319 320 320 320 319 319 319 318
316 317 316 315 314 316 317 317 318 318 318 318 317 317 317 316 315 316 314 315 314 315 315 315 315 295 291 292 293 292 291 300 316 317 319 317 314 314 315 316 316 316
310 311 311 311 312 313 315 315 315 315 314 314 315 316 316 315 315 315 311 311 311 313 316 315 308 291 291 292 292 293 292 302 318 315 314 312 311 311 311 312 313 314
310 310 310 310 311 312 312 312 313 313 313 313 313 311 310 310 308 310 311 310 311 315 317 315 307 290 291 292 292 292 295 314 315 313 311 310 309 309 309 310 311 311
308 308 307 308 310 311 311 312 312 312 312 312 313 313 313 313 312 311 311 313 313 314 317 315 309 295 291 292 292 293 304 314 312 310 309 308 307 307 307 307 307 308
307 309 309 309 311 311 312 311 311 312 311 310 314 314 312 310 309 309 307 307 309 309 307 311 309 297 291 292 292 294 304 313 311 309 307 306 305 306 307 305 302 300
306 306 307 308 309 310 312 312 313 313 310 310 312 312 310 308 307 309 307 306 305 305 298 306 308 301 292 291 292 294 306 312 310 309 307 306 305 303 304 304 302 298
310 309 308 308 308 309 309 311 310 309 310 310 309 309 308 307 306 307 307 304 302 304 304 305 307 306 299 291 293 293 296 310 311 310 307 305 305 303 302 302 302 300

ECMWFNIL_sfc_thetae_054.txt.gz
Theta_e
332 333 331 330 328 327 327 325 323 322 322 322 322 322 322 324 326 326 325 325 325 323 323 324 324 325 323 324 323 319 320 322 322 322 322 322 321 322 320 320 320 318
332 332 331 331 328 327 327 327 325 323 323 324 323 323 324 325 326 325 325 325 325 324 324 323 323 323 322 322 323 321 319 321 319 318 320 320 320 320 320 321 320 319
333 333 332 331 329 329 329 328 326 324 323 325 326 325 325 326 326 327 326 326 324 325 325 324 323 323 322 323 322 321 321 320 319 319 319 317 318 319 320 319 319 318
331 332 331 331 330 330 330 327 325 324 325 324 325 325 326 326 327 327 326 325 325 325 326 325 324 323 322 323 323 320 321 320 319 320 319 319 319 319 319 319 318 318
331 331 332 331 330 330 329 327 325 324 324 323 325 326 324 325 325 324 324 325 325 324 325 324 324 324 324 323 323 322 321 320 322 321 318 318 319 319 319 318 318 317
331 330 330 330 331 329 328 326 324 323 322 323 325 324 325 325 323 323 323 324 323 322 323 324 323 324 324 324 324 324 323 321 321 321 319 318 317 318 316 318 317 316
329 330 330 330 330 329 328 326 325 323 323 324 323 324 325 324 323 323 322 323 323 322 322 324 323 324 325 325 324 324 324 322 321 321 319 319 318 317 317 318 316 316
330 331 330 330 330 329 328 327 325 324 325 323 324 325 325 323 322 323 323 323 323 323 324 324 324 324 324 325 323 323 324 324 324 322 321 320 320 318 318 317 318 317
329 328 328 329 329 328 328 327 326 326 326 325 323 324 324 323 322 324 324 324 324 324 324 324 324 324 326 325 325 324 323 324 324 323 323 322 321 320 318 318 318 318
327 328 329 329 329 328 328 328 326 326 325 323 323 323 322 324 324 323 324 325 324 324 324 325 325 326 326 326 325 325 325 324 324 325 324 323 322 321 320 320 319 319
327 327 327 328 329 328 329 329 328 328 326 324 324 323 323 324 325 326 326 325 326 325 325 326 326 326 326 326 327 326 325 325 324 324 325 324 324 323 322 321 321 320
328 328 327 328 328 329 329 329 328 328 327 325 325 324 325 326 326 326 325 325 325 324 325 326 326 326 325 325 325 326 326 326 326 326 325 325 325 324 323 323 322 321
327 327 327 328 329 329 330 328 328 328 328 327 326 325 326 326 326 327 327 325 325 326 326 326 326 326 326 327 326 326 326 326 327 326 326 326 326 325 325 324 324 323
327 328 328 328 329 329 329 329 329 329 327 327 326 325 326 325 326 327 328 327 328 327 328 328 327 327 327 328 327 328 328 327 327 327 326 326 326 325 325 325 324 324
327 327 327 327 327 327 328 328 328 328 328 327 326 327 328 328 328 328 327 326 327 328 327 328 327 328 330 328 329 327 327 327 327 326 327 326 327 327 327 326 325 325
325 326 326 326 326 326 327 328 328 329 328 327 327 327 327 327 327 328 326 326 326 327 328 329 329 329 312 302 303 323 328 327 327 327 327 327 327 327 326 326 326 326
324 324 325 324 324 324 325 326 325 325 324 324 325 324 326 327 329 326 326 327 327 328 327 327 326 318 296 295 297 298 319 328 328 327 327 326 326 326 325 326 326 325
324 324 324 324 325 324 325 325 324 323 322 321 322 322 324 325 325 325 327 328 327 327 327 327 323 297 294 294 296 297 299 322 325 324 323 323 322 322 321 322 322 323
323 324 323 322 322 322 323 323 322 322 322 322 321 323 324 324 325 326 325 327 328 326 325 325 321 292 292 292 293 293 295 306 323 323 322 321 322 321 321 321 322 321
322 323 324 323 322 322 322 321 322 322 324 324 323 323 323 323 323 324 323 322 322 321 322 324 319 294 291 292 293 293 295 301 324 323 321 321 320 321 321 321 321 321
318 319 319 319 320 321 322 321 321 322 321 322 321 320 319 318 319 319 319 319 319 319 319 322 312 290 293 291 292 293 294 297 323 322 321 320 320 319 319 320 320 321
316 315 315 317 317 317 318 318 319 318 318 318 317 317 317 319 318 317 318 318 319 318 317 317 313 290 292 292 292 294 292 319 320 319 319 318 317 317 317 318 318 318
313 313 313 314 314 314 314 316 316 317 317 317 316 315 315 315 316 317 316 316 316 317 316 316 317 298 291 292 292 291 296 319 318 317 317 316 316 316 315 314 314 315
312 311 311 312 313 312 313 315 315 315 315 316 314 314 314 315 315 315 315 316 315 314 317 315 316 300 292 293 292 292 298 318 316 316 316 315 314 314 313 310 306 298
311 311 311 311 311 312 314 313 314 314 315 315 314 314 314 314 314 313 314 314 315 316 304 316 316 303 291 293 291 294 307 318 315 315 314 314 313 311 312 310 307 301
312 312 312 311 311 314 314 313 314 314 314 314 314 312 312 312 312 312 312 313 314 315 316 317 316 314 303 290 294 295 293 313 315 312 312 312 312 310 310 309 307 304

ECMWFNIL_sfc_thetae_057.txt.gz
Theta_e
329 330 328 326 325 326 326 324 323 323 323 322 321 321 322 324 323 323 323 323 323 323 323 324 323 324 323 322 321 318 319 320 320 321 320 320 321 322 320 319 321 318
330 330 329 328 326 326 325 325 324 323 323 324 323 322 324 324 324 324 323 322 322 323 323 324 323 322 322 321 322 320 319 320 319 319 321 320 320 321 320 321 320 318
331 329 329 327 325 327 326 326 326 325 324 324 325 324 324 325 324 324 325 324 323 323 324 324 323 322 322 322 322 321 320 319 319 319 320 319 320 320 320 320 319 319
332 331 328 328 327 327 326 325 325 326 326 324 323 323 324 325 326 325 324 324 324 324 325 324 324 323 322 322 323 321 320 319 320 321 319 319 319 318 319 320 319 318
332 332 330 328 328 328 327 324 324 325 325 325 325 324 323 325 325 324 324 323 324 324 325 324 324 324 324 323 322 321 322 321 322 321 320 319 320 320 319 320 319 318
332 331 330 329 328 327 325 324 323 325 324 325 324 324 324 324 323 323 323 323 323 322 323 324 323 324 324 323 324 323 323 321 322 321 319 318 319 320 317 319 319 317
331 332 332 329 327 327 325 325 325 325 325 326 324 323 324 323 322 322 321 322 322 322 323 324 324 325 326 327 325 324 324 323 323 322 320 319 318 318 318 319 318 316
332 332 332 331 331 326 325 323 323 323 325 324 324 323 324 322 321 321 322 322 321 321 322 323 324 325 325 326 325 325 325 324 324 323 322 321 321 319 319 319 319 318
331 331 330 332 331 328 325 323 323 323 323 323 323 322 323 322 322 322 322 322 322 323 322 323 323 324 326 326 325 325 324 325 325 324 323 323 322 321 319 319 320 320
330 331 330 331 330 329 325 324 323 324 323 323 322 322 321 323 323 322 322 323 323 322 322 323 325 326 326 326 326 326 325 325 325 325 325 324 323 322 321 321 321 320
329 330 330 331 331 330 329 325 324 325 325 321 322 321 321 321 322 322 323 323 324 322 324 324 325 325 326 326 326 327 327 326 326 325 326 325 326 324 325 323 321 321
328 329 329 329 329 329 328 326 324 323 323 323 323 321 322 322 322 322 322 322 323 323 324 324 324 325 325 325 325 327 327 328 327 326 325 325 325 326 324 324 323 322
328 328 328 328 328 329 328 326 323 323 322 321 322 321 322 322 323 322 323 323 324 324 323 324 324 325 325 325 325 325 326 326 327 326 326 327 326 326 326 326 325 325
326 325 328 328 329 328 328 325 325 324 322 321 322 322 322 322 323 322 325 326 326 322 323 325 324 325 325 325 325 326 325 326 327 327 327 326 327 326 326 325 326 326
324 322 325 327 327 328 328 326 326 325 324 322 323 323 323 323 325 326 325 324 324 324 324 325 326 326 325 324 328 326 326 326 327 324 324 324 324 325 325 325 326 326
324 324 325 328 327 326 327 328 328 328 328 325 323 323 326 327 324 323 324 325 323 325 327 328 328 324 309 301 303 319 322 319 320 325 324 323 325 323 325 324 325 326
326 326 325 325 325 327 326 321 321 323 323 326 325 325 326 326 324 322 319 322 324 325 325 326 322 313 296 295 297 298 319 325 323 322 323 324 324 324 325 323 322 324
325 324 324 323 323 323 324 324 325 322 322 324 326 325 326 326 326 325 324 325 322 322 323 323 316 297 295 296 295 295 299 320 326 324 323 322 323 322 321 321 321 323
323 324 323 322 322 321 320 319 322 322 322 322 322 324 325 325 326 326 323 325 325 323 320 322 314 293 295 295 296 294 294 304 324 321 321 320 321 320 319 319 319 319
324 324 323 323 322 321 321 321 320 320 321 321 323 324 324 324 325 326 324 318 319 320 321 321 316 294 294 294 295 293 293 297 324 320 320 319 319 319 319 319 319 319
323 323 321 322 322 321 321 320 321 322 321 322 323 323 322 321 321 319 321 321 320 321 321 321 314 290 292 291 292 292 293 295 322 320 319 319 318 318 318 319 319 320
319 318 319 319 318 318 319 319 319 320 320 320 320 320 320 319 318 318 317 317 317 317 317 318 310 289 292 292 292 292 292 316 319 318 317 317 317 317 318 319 319 319
315 316 316 316 316 317 316 317 317 318 318 318 316 316 316 316 316 316 316 316 316 315 314 316 314 297 292 292 292 291 296 320 317 316 316 316 316 316 315 314 312 313
314 313 314 314 314 315 315 316 316 317 317 316 315 314 314 315 315 315 315 315 315 315 316 315 317 301 293 293 291 290 295 318 316 316 316 315 314 314 312 312 307 299
312 312 313 313 314 314 315 314 315 315 315 316 315 315 315 314 313 313 314 314 315 316 311 315 316 305 292 292 293 292 303 319 316 315 314 314 312 311 312 311 308 301
314 313 312 311 311 313 314 314 314 314 314 314 314 314 312 312 312 312 312 313 314 312 312 316 316 315 307 291 294 294 292 309 317 313 312 311 311 310 310 309 308 305

ECMWFNIL_sfc_thetae_060.txt.gz
Theta_e
330 331 328 328 327 328 328 327 325 325 324 325 322 323 325 323 323 325 326 326 326 325 326 325 326 324 323 321 320 316 318 320 320 320 320 320 320 319 320 319 317 317
330 330 326 328 328 328 329 326 326 326 325 324 325 325 323 324 325 324 323 324 324 326 326 326 325 325 323 322 323 321 321 321 318 321 321 320 319 320 320 319 318 317
331 330 328 329 328 329 327 328 328 326 325 325 326 325 325 326 324 325 325 324 324 326 327 325 322 323 323 323 323 321 319 319 319 321 320 320 320 319 319 319 318 317
331 331 331 329 329 328 327 327 328 326 327 324 324 325 325 325 326 327 325 325 326 326 326 326 327 326 321 323 324 322 321 320 321 321 319 319 318 318 318 319 318 316
333 332 332 329 329 328 327 327 325 326 324 324 324 325 324 325 325 324 325 325 326 326 327 326 326 326 326 324 322 322 323 323 324 321 318 317 319 318 318 320 318 318
329 326 330 328 327 326 326 325 325 325 325 324 324 324 325 325 324 323 324 324 325 324 326 325 326 326 325 326 326 325 325 322 322 321 319 320 320 322 318 321 316 315
328 327 326 329 326 327 325 325 326 325 325 325 323 324 324 324 323 322 322 323 322 322 323 325 326 327 327 327 326 326 324 324 325 323 318 317 318 319 320 319 317 314
329 328 326 324 328 326 325 325 326 325 326 324 323 324 323 322 321 323 323 322 321 321 322 322 326 325 327 328 327 325 326 327 327 325 321 322 323 318 319 323 321 317
325 324 326 326 328 324 324 323 325 326 325 324 323 323 323 323 321 323 322 321 321 322 321 322 324 325 327 328 326 326 324 326 328 325 322 322 322 321 317 319 321 320
322 324 325 325 328 326 323 323 324 325 324 324 322 322 322 324 323 321 321 322 321 321 322 322 323 325 327 327 324 325 325 325 325 325 325 324 324 322 319 319 321 321
323 325 324 325 326 327 325 323 324 323 323 322 323 321 321 324 322 322 321 321 323 321 321 321 323 323 324 327 327 328 327 327 325 325 326 325 325 324 325 322 321 320
324 323 324 324 325 325 327 324 323 323 322 322 322 320 321 324 322 321 321 321 321 321 321 322 323 326 324 325 325 327 325 325 324 323 324 323 320 321 321 320 320 320
322 323 323 321 325 327 327 325 322 323 323 322 322 321 321 323 323 322 325 325 321 323 325 324 324 324 327 326 327 324 323 322 320 321 320 320 322 321 321 321 319 320
325 324 323 323 326 328 324 323 323 322 323 323 324 323 322 320 322 323 323 325 324 323 323 323 324 324 323 325 326 323 323 323 321 319 320 320 320 320 320 322 322 321
326 325 324 324 322 322 322 322 321 322 321 320 323 324 325 321 324 322 323 324 323 323 323 324 323 321 315 315 323 323 322 321 321 321 321 321 320 321 322 321 319 322
324 323 323 323 321 321 322 321 320 320 319 323 323 323 326 325 322 323 323 323 322 321 322 322 321 317 304 300 304 318 321 321 322 321 321 320 320 319 319 320 321 320
321 322 322 322 322 322 320 319 319 320 321 324 323 323 324 324 323 322 322 321 321 320 321 321 318 309 296 294 295 298 319 323 321 321 321 320 319 320 318 319 320 321
321 321 320 321 321 320 320 320 320 319 319 321 324 323 323 324 322 323 322 321 321 320 320 320 314 299 293 296 294 294 298 314 323 322 322 320 320 319 319 320 321 320
319 319 319 321 321 321 320 320 319 317 318 321 323 324 322 320 321 322 322 321 321 320 320 319 314 294 294 295 295 293 293 302 321 322 320 320 319 319 319 318 317 319
318 320 319 319 319 319 318 318 319 320 320 321 323 324 323 320 318 319 321 319 319 318 319 317 312 296 294 295 294 292 292 296 320 321 319 317 316 317 317 317 317 316
318 320 319 320 319 319 319 319 320 320 320 320 322 323 321 320 318 317 318 318 318 320 319 317 312 293 292 292 291 291 292 293 318 320 317 316 316 317 316 314 315 318
319 318 319 319 319 318 319 319 320 319 320 321 321 322 322 321 320 319 318 317 319 320 318 315 306 288 291 291 293 293 291 310 320 317 315 314 314 311 309 309 309 313
316 316 317 317 317 317 317 319 319 319 320 321 320 319 318 317 316 316 317 317 318 318 316 314 310 294 290 291 291 290 300 318 319 316 314 314 311 310 308 305 306 311
316 314 315 314 315 315 316 317 319 318 318 318 317 316 315 314 315 315 315 315 314 315 315 314 311 298 291 291 291 290 297 313 317 314 313 311 310 309 307 304 304 306
312 312 313 314 313 315 317 316 316 315 315 316 316 315 314 314 313 313 313 313 314 315 313 314 312 302 291 291 291 290 302 315 316 312 311 310 309 308 307 305 300 299
314 313 313 312 313 316 315 316 316 315 317 315 314 312 311 313 313 312 312 311 312 313 315 314 312 309 298 292 291 290 291 309 314 313 311 311 309 307 306 304 301 298

ECMWFNIL_sfc_thetae_063.txt.gz
Theta_e
322 321 321 320 319 319 320 318 316 315 315 316 315 316 316 315 316 316 317 317 316 314 315 314 314 313 314 313 313 313 313 313 313 313 313 313 312 312 313 310 309 308
322 322 322 320 320 320 320 318 317 316 316 315 316 315 315 316 317 316 315 316 316 316 316 315 315 315 314 314 314 314 313 312 313 318 313 313 312 312 311 310 309 309
321 320 320 319 319 319 318 318 318 317 316 317 315 315 317 316 315 314 315 315 316 317 316 314 314 314 314 313 312 312 312 312 313 313 313 311 311 311 310 309 309 309
320 321 321 320 320 318 318 319 317 317 318 316 316 317 318 317 315 316 317 321 315 313 313 313 315 315 314 314 314 313 313 312 312 311 311 310 312 312 311 310 310 311
322 323 321 320 319 319 319 319 318 318 317 317 317 317 317 317 317 316 316 315 314 315 316 316 315 315 315 314 313 313 313 314 313 312 311 310 311 311 311 310 308 308
323 323 321 320 319 319 319 318 318 318 317 317 317 317 317 317 316 316 316 316 316 316 315 315 316 316 314 314 315 315 314 312 310 310 310 308 309 311 313 310 308 308
322 323 323 322 320 320 319 319 318 318 317 317 318 317 317 317 317 317 317 317 316 316 315 314 316 315 316 317 317 315 314 313 314 313 311 310 311 312 312 309 309 310
323 323 323 323 320 320 320 321 319 319 318 318 317 317 317 317 316 317 316 316 315 315 316 317 317 317 317 318 317 316 316 320 317 312 312 314 312 311 312 314 311 310
321 322 323 325 324 320 320 321 321 320 319 318 318 317 317 316 316 317 316 315 315 315 315 316 317 317 318 318 316 316 316 316 317 314 313 315 314 312 312 314 312 311
318 320 322 323 324 324 320 321 321 320 319 319 318 317 317 316 316 316 316 316 316 315 316 316 317 318 319 319 319 317 317 318 317 317 317 317 317 317 316 315 313 312
317 319 320 322 322 323 323 322 321 320 320 319 318 317 316 316 316 316 316 317 318 317 316 316 318 318 318 319 319 318 318 318 317 318 318 317 317 317 319 315 315 314
317 317 319 320 321 322 321 320 321 320 319 318 317 316 316 316 315 315 316 317 317 315 316 318 320 320 320 319 318 318 319 319 319 318 318 317 316 316 315 315 315 315
317 317 318 319 319 319 320 320 319 318 319 318 317 316 315 316 315 316 314 316 317 317 318 320 319 319 320 320 320 320 318 317 317 317 316 315 314 316 316 316 316 316
318 320 319 319 319 319 320 320 320 319 317 317 318 316 316 317 315 318 317 317 318 320 320 318 316 316 317 318 318 319 318 316 315 314 314 313 312 312 315 316 316 317
319 319 319 319 319 319 318 318 319 319 320 320 319 317 318 316 317 320 319 318 319 319 319 318 316 314 314 316 317 319 319 315 315 314 313 313 314 314 314 313 314 317
319 318 318 317 317 317 316 316 317 317 317 320 321 318 319 319 319 319 318 318 318 318 317 316 313 311 309 306 310 317 317 317 316 315 313 312 313 313 313 314 316 314
318 318 318 317 316 316 317 316 317 317 317 318 319 318 318 320 319 318 317 317 317 317 315 313 310 306 297 295 296 303 317 316 316 316 315 314 313 312 312 313 313 315
317 317 317 316 316 316 316 317 317 317 317 317 318 317 317 318 318 317 317 316 317 316 314 311 307 300 294 294 294 297 305 316 317 317 317 314 314 314 314 313 314 316
316 316 316 316 316 316 315 316 315 315 316 316 316 317 317 317 317 317 316 316 316 315 313 310 306 295 294 294 294 293 294 305 318 316 317 314 314 313 313 313 314 316
316 316 316 316 316 315 314 313 313 312 313 314 315 315 315 315 314 314 314 314 314 313 312 309 306 297 293 294 294 292 291 297 313 313 312 312 311 310 310 310 314 314
316 315 315 315 315 315 313 313 312 313 313 312 313 314 313 312 307 312 312 312 313 313 310 309 307 294 292 292 292 293 292 295 311 312 310 308 306 306 307 309 312 309
314 314 314 314 314 313 313 313 312 312 311 311 311 313 312 311 312 312 312 312 313 312 309 307 299 290 291 292 293 293 292 304 311 309 307 306 305 305 306 308 308 306
312 311 312 312 312 312 311 310 311 312 312 314 314 313 313 313 313 312 312 312 312 310 308 305 301 291 290 292 292 292 297 309 310 308 306 304 303 304 305 307 306 303
312 310 309 310 310 310 310 310 311 312 314 314 314 313 312 312 312 312 312 313 312 310 309 307 303 292 290 291 292 291 300 308 308 306 304 303 302 301 302 303 305 305
305 308 310 310 310 311 311 312 311 311 310 310 310 310 309 308 309 311 310 309 308 309 311 307 302 295 291 290 291 289 296 306 308 305 304 302 301 300 298 298 298 300
304 305 304 307 309 309 310 311 310 308 307 308 308 307 308 306 306 310 309 307 306 308 309 307 304 299 293 290 289 288 294 304 307 305 303 302 301 300 297 294 294 293

ECMWFNIL_sfc_thetae_066.txt.gz
Theta_e
320 319 319 319 317 317 316 314 314 314 314 312 312 313 314 313 314 313 312 311 312 312 312 312 312 312 313 310 310 311 311 310 310 309 310 310 307 308 309 307 307 307
318 319 319 317 317 317 315 314 314 314 313 312 313 313 312 313 313 313 312 312 312 311 310 310 310 309 310 310 310 310 309 310 311 313 309 308 306 307 307 306 306 306
318 318 317 316 317 315 314 314 314 314 313 313 313 312 314 313 312 311 311 312 312 311 311 311 310 310 310 309 309 309 309 309 309 308 309 306 307 307 305 307 307 307
318 318 318 317 318 316 315 314 313 314 313 313 312 314 314 314 312 311 314 317 311 310 310 310 310 310 309 309 309 309 308 308 308 308 308 308 309 308 307 307 307 307
319 318 319 319 318 317 317 315 315 314 313 313 313 313 314 312 311 312 311 310 309 309 310 310 310 310 310 310 309 308 309 309 308 308 307 306 306 308 307 307 307 307
320 320 320 319 318 318 316 316 316 315 314 315 314 314 312 313 313 312 311 310 310 312 311 310 311 311 310 310 311 310 310 309 307 306 306 306 307 307 308 307 307 307
321 320 319 319 319 318 317 317 316 316 316 316 316 315 315 314 314 312 312 313 312 312 311 311 310 310 310 311 311 309 308 308 308 308 308 307 307 307 308 308 308 308
321 321 319 319 319 318 317 317 316 316 316 316 315 317 316 315 315 314 313 313 312 312 312 312 311 312 312 313 312 310 310 313 310 308 309 308 308 308 308 310 307 308
320 321 321 319 318 317 317 317 317 317 317 316 317 317 317 316 316 315 314 312 312 312 313 313 314 314 313 313 313 314 313 312 312 311 311 310 310 309 310 309 309 308
320 321 321 321 319 317 317 317 317 317 318 317 317 317 317 316 316 315 314 313 313 312 314 314 315 315 314 314 316 315 315 315 314 314 314 313 313 311 312 311 309 309
316 319 319 319 319 319 318 318 317 317 318 317 317 317 317 316 316 315 315 315 315 314 315 314 314 315 316 315 316 315 316 315 315 314 314 313 313 313 316 310 310 310
315 317 318 318 318 318 318 319 318 318 318 317 317 317 316 316 316 315 316 315 316 315 315 317 316 316 316 315 315 315 315 315 315 315 314 314 312 312 312 311 310 310
317 316 315 316 318 318 319 319 318 319 318 317 317 317 316 315 315 315 315 316 316 318 319 319 318 318 317 316 317 316 316 315 314 314 314 313 313 313 312 312 311 311
317 317 317 317 317 317 316 317 317 317 317 317 317 317 316 316 314 316 316 316 317 319 319 319 318 317 317 317 317 316 315 314 313 313 312 311 310 312 312 312 313 313
316 314 315 316 316 316 316 317 318 317 318 319 318 317 317 316 316 317 317 317 317 317 316 317 317 317 317 316 316 315 315 314 313 312 311 312 311 310 311 311 313 313
315 314 314 315 315 315 314 314 315 316 316 317 318 317 315 316 317 317 317 317 317 315 314 315 315 315 314 310 311 315 314 314 313 312 313 313 312 310 309 310 312 311
314 314 314 314 314 314 313 313 314 313 312 313 315 315 316 316 317 316 316 317 316 314 312 311 311 311 304 301 303 307 314 314 314 313 314 314 313 312 311 310 310 310
313 313 313 313 312 313 313 313 312 312 313 313 314 314 315 315 315 316 316 316 315 313 312 311 309 304 295 297 299 302 308 315 314 314 314 313 312 311 311 312 312 309
311 312 311 310 310 311 311 311 311 311 312 313 314 315 315 315 314 314 314 314 314 312 310 309 307 296 295 297 298 299 302 309 314 313 313 312 312 312 312 311 311 311
311 311 310 310 310 310 310 310 310 310 309 310 312 313 314 314 313 312 312 313 312 311 310 309 308 298 294 295 296 296 295 303 315 313 312 312 312 313 313 312 312 311
311 310 309 310 309 309 309 309 309 308 309 308 312 313 313 312 312 312 312 312 311 310 309 307 309 296 293 294 294 293 292 298 312 310 307 306 306 308 312 312 310 309
309 308 306 307 309 308 308 308 308 307 308 307 307 308 309 309 310 311 310 310 310 309 308 308 304 293 293 293 292 292 292 307 308 306 305 305 305 307 308 307 306 305
308 307 307 306 306 307 307 307 307 307 307 307 308 308 308 307 308 310 311 311 310 308 307 306 302 294 292 292 292 291 298 308 305 304 305 304 305 305 304 304 303 302
307 307 307 307 307 306 306 305 306 307 306 307 307 305 307 306 307 308 307 309 310 308 306 305 305 293 290 292 292 291 302 306 304 304 303 303 301 301 302 301 303 304
303 304 305 304 304 304 306 306 305 308 307 309 309 309 310 309 308 307 305 305 305 306 309 307 304 294 290 291 291 290 302 306 304 303 302 301 301 297 297 298 299 300
300 301 303 304 304 305 305 305 305 305 306 309 307 309 308 306 308 308 307 305 303 305 307 305 303 298 293 290 290 290 295 305 303 302 301 300 299 298 295 292 292 292

ECMWFNIL_sfc_thetae_069.txt.gz
Theta_e
319 319 318 316 315 315 313 312 312 312 311 310 311 311 312 311 312 311 311 311 311 311 310 309 310 310 311 309 309 310 310 309 308 306 307 307 305 306 307 306 307 309
318 319 318 316 315 314 312 312 312 312 310 310 312 311 311 311 310 311 311 311 310 309 308 308 307 308 308 308 307 308 307 308 308 310 306 305 304 305 305 304 305 307
317 317 316 315 315 313 312 311 312 311 311 311 310 311 312 310 310 309 310 310 309 308 307 307 307 307 307 306 306 307 307 306 306 305 307 305 305 306 303 304 305 306
317 317 316 316 315 313 312 312 310 311 311 311 310 311 313 312 310 310 311 314 308 307 307 307 307 307 306 306 307 306 306 306 305 306 307 306 306 305 304 305 306 305
317 316 316 317 315 314 313 312 311 311 311 310 310 310 312 310 310 310 308 307 307 306 306 307 307 307 307 307 306 306 307 306 305 305 305 305 304 306 305 306 305 304
317 317 317 316 314 313 313 312 312 311 311 310 311 312 309 309 310 309 307 306 307 307 307 306 307 307 307 306 306 306 306 306 303 305 305 304 303 305 307 307 307 306
317 317 316 315 314 314 313 313 312 312 312 312 311 310 311 311 310 309 308 308 308 309 307 307 307 307 307 306 306 305 305 305 304 306 306 304 306 306 306 307 308 307
317 317 316 315 314 314 313 313 312 312 312 312 312 313 313 312 312 311 310 310 310 309 309 308 307 307 308 306 306 306 307 309 306 306 305 304 305 305 305 308 307 307
316 316 316 315 314 314 313 313 312 312 313 312 311 311 311 313 313 313 313 311 310 310 310 310 309 309 309 308 307 307 308 308 308 306 306 305 306 305 306 306 308 307
317 317 316 315 314 314 313 312 312 312 313 312 312 312 312 310 312 312 311 311 312 312 312 312 312 310 310 310 310 310 309 310 309 308 308 307 308 307 307 307 307 307
316 316 316 315 314 314 313 313 313 313 313 312 312 312 312 313 314 313 313 314 314 313 314 313 313 312 311 311 311 310 311 311 310 309 309 309 308 309 314 308 308 307
316 316 316 316 316 315 315 315 315 314 313 312 313 312 311 313 313 313 314 314 313 313 314 315 315 314 314 312 311 310 310 311 310 310 311 310 309 309 309 308 309 308
316 316 316 316 316 316 317 316 315 315 314 314 314 314 313 313 313 313 314 314 314 315 316 316 316 316 315 313 312 311 312 311 310 309 310 309 310 309 309 308 309 309
315 315 316 317 316 315 315 316 316 316 316 316 316 315 315 314 314 315 314 314 315 316 317 317 317 316 314 312 312 312 312 311 311 310 310 310 310 311 310 310 310 309
315 315 315 314 316 315 314 314 316 317 317 316 316 316 317 315 315 315 315 314 315 316 317 317 317 316 315 314 314 313 312 312 310 310 310 309 309 309 309 309 310 310
315 315 315 313 314 314 314 313 314 315 316 316 316 316 315 315 314 315 315 315 315 315 315 315 315 316 314 310 311 315 313 312 310 308 308 309 308 308 308 308 309 309
313 313 313 314 312 311 313 314 315 312 314 316 316 315 314 314 315 315 315 315 315 314 313 314 315 314 307 302 303 306 313 312 311 309 308 308 308 308 308 308 307 305
312 312 312 311 311 311 313 311 311 311 311 313 313 314 314 313 314 313 313 314 313 313 313 313 312 309 302 299 299 301 307 312 311 311 310 310 310 309 308 308 307 305
309 309 308 308 309 309 309 309 309 309 309 311 311 311 312 313 313 311 310 310 312 311 311 311 310 303 298 298 297 297 299 308 312 312 311 310 310 309 309 308 307 306
309 308 307 306 307 307 307 307 307 308 308 307 309 309 309 309 309 310 310 311 311 311 310 310 309 302 296 297 296 296 296 304 311 311 311 310 310 310 310 309 308 307
310 308 308 308 306 306 306 305 305 305 306 305 306 308 308 309 310 310 310 310 309 309 309 309 310 300 294 295 295 295 295 303 311 310 310 309 309 309 310 310 309 308
308 308 309 310 309 306 306 306 304 304 305 303 305 306 306 304 304 307 307 308 308 307 306 307 306 294 294 294 295 295 294 306 307 306 305 304 304 306 308 310 308 307
309 308 306 308 309 308 306 305 304 304 303 303 304 303 303 303 305 306 307 308 307 306 306 306 300 294 293 293 293 292 295 306 305 304 304 303 303 305 306 307 306 305
302 305 306 307 306 305 304 302 302 302 302 303 306 304 304 305 304 306 305 305 305 306 306 301 301 297 293 293 292 291 297 306 305 305 303 302 301 300 302 302 303 305
298 298 298 299 299 300 301 302 302 304 303 304 304 304 306 305 304 304 303 304 307 306 308 304 305 298 292 292 292 291 296 304 304 304 302 300 300 298 297 299 301 302
297 297 297 296 296 296 297 298 299 301 304 306 304 303 303 302 304 303 303 305 304 303 305 305 305 299 294 291 292 292 294 303 304 304 302 300 300 300 298 294 294 295

ECMWFNIL_sfc_thetae_072.txt.gz
Theta_e
319 318 317 316 315 315 314 313 313 313 313 312 312 311 312 312 314 313 313 312 313 312 311 312 312 312 311 311 311 311 310 310 309 307 308 309 308 310 311 312 315 317
318 318 317 315 315 314 313 314 313 313 312 311 312 311 311 312 312 313 312 313 312 310 309 309 310 310 310 310 309 309 309 309 309 311 307 307 307 308 308 310 313 315
317 317 316 315 314 313 313 312 313 312 312 311 311 311 311 311 311 311 311 311 310 309 308 309 309 309 309 309 309 309 307 307 308 308 309 306 307 307 306 308 312 315
317 317 316 315 314 312 312 312 310 311 311 311 311 311 312 312 311 310 312 314 309 308 308 309 309 308 308 307 308 307 307 307 307 308 307 307 308 307 307 309 309 311
317 316 316 315 313 313 312 312 311 311 312 311 310 311 312 310 310 310 309 308 308 308 308 308 308 308 308 308 308 308 309 307 306 307 307 307 307 309 308 309 308 308
316 316 316 314 313 313 312 312 312 312 311 310 311 312 309 310 310 309 309 308 308 308 308 308 308 308 308 308 307 307 307 307 306 307 307 307 308 308 308 308 308 307
316 316 315 314 313 313 312 311 312 312 312 312 311 310 310 310 309 308 308 309 308 309 309 309 309 308 308 308 308 306 306 306 307 307 308 307 309 309 309 309 308 307
316 316 315 314 313 313 312 312 311 311 311 311 311 310 311 310 309 309 309 309 309 309 308 309 309 309 308 308 308 308 308 308 307 307 307 307 308 309 308 309 309 308
316 315 315 314 313 313 312 312 311 311 312 311 310 311 311 311 310 310 310 309 309 309 309 309 310 310 309 308 308 308 309 309 308 308 308 308 309 308 309 309 309 309
315 315 315 314 313 313 312 312 312 312 312 311 311 311 311 311 311 311 310 310 310 310 310 310 311 312 311 310 310 310 311 311 310 309 309 309 310 310 309 309 309 309
315 315 314 314 313 313 312 312 312 312 312 311 311 311 311 311 312 311 311 311 311 311 311 311 312 312 312 312 311 311 312 312 312 311 310 310 310 310 313 310 310 310
315 315 314 314 313 313 313 312 312 312 311 311 312 311 310 311 312 312 312 311 312 312 312 313 314 314 313 313 313 313 313 313 313 312 312 312 312 312 311 311 311 310
315 314 314 314 314 314 314 313 312 312 312 312 312 311 311 311 311 312 313 312 312 313 314 315 315 315 315 314 314 314 314 314 313 312 311 312 311 311 311 311 312 311
315 314 314 314 314 314 314 313 313 312 312 312 312 311 311 311 312 313 313 313 314 315 316 316 316 315 315 314 314 314 314 313 313 312 312 311 311 311 311 311 312 312
315 315 315 315 315 315 314 314 314 314 313 313 313 312 313 312 313 314 314 313 314 316 316 316 316 316 315 315 314 314 313 313 312 312 312 312 311 309 309 310 310 310
315 315 315 315 314 315 314 313 314 315 314 313 313 313 314 314 314 314 314 314 314 315 316 316 315 315 314 309 310 315 313 313 312 311 311 312 311 309 309 310 310 309
312 312 313 314 314 313 312 313 313 314 314 314 314 314 314 313 313 313 314 314 314 315 315 315 315 314 306 301 303 306 313 313 313 312 311 311 311 310 310 309 308 308
310 310 310 311 311 312 312 311 310 310 311 312 312 313 313 313 313 314 314 314 314 314 314 313 313 309 301 299 299 300 306 313 313 313 312 311 312 311 310 309 308 308
311 310 308 308 308 308 308 310 310 310 308 309 311 312 312 312 312 313 313 314 314 313 312 312 312 304 298 297 297 296 297 307 313 313 312 312 311 311 310 309 308 307
311 309 308 307 307 307 307 307 306 307 306 306 308 309 310 309 309 310 310 311 311 311 310 310 309 303 296 297 297 297 295 300 312 312 312 312 312 311 311 310 309 308
311 310 310 309 307 307 306 307 305 303 306 306 307 308 307 306 306 308 308 308 309 309 309 308 306 297 296 297 297 296 295 296 311 312 312 311 311 311 311 310 309 309
310 311 311 311 309 307 306 306 304 303 305 304 305 304 303 303 304 306 306 307 307 308 306 308 302 294 295 296 296 296 295 306 311 311 311 310 309 310 310 310 309 309
303 305 305 307 308 307 306 305 305 306 306 304 307 304 305 305 305 305 306 307 306 306 306 304 302 295 294 294 295 294 297 307 309 309 308 308 308 309 310 310 309 308
297 297 297 298 298 299 301 304 305 304 304 304 305 304 305 304 304 305 304 305 306 305 305 305 304 297 293 294 294 293 298 307 308 308 306 306 305 306 308 309 308 306
296 295 295 295 295 296 297 299 300 304 305 305 305 305 304 303 304 305 304 302 304 305 307 305 304 302 294 293 293 293 296 305 307 307 306 303 304 303 303 305 306 306
296 296 295 295 294 294 295 296 298 299 301 305 305 306 305 303 304 304 304 303 302 303 304 304 303 303 297 292 293 292 293 301 306 307 306 304 303 304 303 302 302 303

ECMWFNIL_sfc_thetae_075.txt.gz
Theta_e
328 329 329 329 328 327 326 327 330 330 330 329 329 328 329 330 328 330 329 329 330 328 327 327 326 326 325 325 325 322 322 324 323 323 326 329 330 331 331 331 332 330
330 329 328 329 327 326 327 329 330 330 329 329 329 328 328 328 327 328 327 327 326 326 325 325 325 324 324 323 324 324 322 324 322 321 325 328 328 330 331 332 332 331
329 329 328 328 327 326 326 328 330 330 329 327 327 328 326 327 326 326 327 326 325 324 325 325 325 324 324 323 324 324 324 323 322 322 324 323 325 328 329 330 331 330
329 330 329 330 328 326 326 325 326 327 326 325 325 326 325 325 326 325 324 324 324 324 325 325 325 324 322 322 323 323 323 322 321 323 322 323 324 326 327 329 329 329
328 328 328 327 326 326 325 325 324 325 326 326 324 324 324 325 325 324 324 324 325 323 324 323 324 323 322 322 323 322 322 320 321 323 322 322 323 325 326 328 329 328
327 326 325 325 324 324 325 325 324 325 325 324 324 324 325 325 324 323 323 323 323 322 322 322 321 321 322 322 324 323 322 320 321 323 320 320 321 323 323 327 328 327
324 324 324 324 324 325 325 325 325 325 325 326 323 324 325 324 324 323 322 323 322 321 321 322 321 321 322 323 322 321 322 322 321 322 319 320 321 321 322 325 326 325
325 325 323 323 324 325 325 324 324 325 326 324 324 323 325 323 323 323 323 322 321 320 322 321 320 320 321 323 320 321 322 323 323 321 321 321 322 319 321 322 325 324
325 324 323 323 323 323 323 323 324 325 324 324 323 323 324 324 323 323 322 322 321 321 321 321 320 320 322 322 322 321 319 321 324 323 322 322 321 320 317 320 322 323
325 324 323 323 323 322 322 322 322 323 323 324 323 323 322 323 323 322 322 321 321 320 320 321 321 321 321 320 319 320 319 319 320 323 322 322 320 320 319 321 321 321
325 324 323 323 323 322 321 321 321 322 323 322 323 323 322 322 321 322 321 320 321 319 320 320 320 321 320 321 322 323 321 321 320 320 323 322 324 323 324 322 324 323
325 325 324 323 322 322 321 320 321 321 322 323 323 322 323 322 321 321 320 320 320 320 320 320 321 321 320 320 321 323 325 325 325 324 323 323 324 323 322 324 324 323
323 322 322 322 322 322 321 320 320 321 321 322 323 323 323 322 322 321 322 321 320 322 321 322 322 322 323 325 323 323 323 324 326 325 324 326 326 324 325 326 324 323
323 324 323 322 322 322 321 321 321 321 322 323 323 323 323 322 321 321 323 323 323 322 322 323 323 323 324 325 324 324 325 325 326 326 325 325 326 326 327 326 326 325
322 323 322 321 321 321 321 321 321 322 321 322 322 323 324 323 324 323 322 321 322 324 322 323 323 324 324 324 323 323 325 325 325 325 326 325 325 325 326 326 326 327
321 321 323 324 322 321 321 322 322 322 322 322 322 322 322 324 324 324 322 322 322 323 325 325 324 324 318 310 313 323 324 326 326 327 326 326 326 325 325 325 326 327
320 320 322 321 320 319 322 321 321 323 323 322 322 322 322 322 322 322 323 323 323 324 324 324 324 322 307 302 303 307 322 326 324 324 326 326 327 326 325 325 325 324
318 319 318 317 315 315 316 317 319 320 320 321 322 322 322 322 321 321 321 323 323 323 324 324 324 307 300 299 300 300 306 324 326 325 325 325 325 325 326 325 325 324
318 318 318 318 318 317 316 315 316 318 319 320 321 322 322 321 321 322 323 324 324 322 323 322 323 301 298 297 298 297 296 306 326 327 326 326 326 326 325 325 325 324
318 318 318 317 318 318 318 318 318 317 317 319 321 322 322 321 321 322 323 323 323 322 322 322 322 301 296 296 297 296 295 299 324 326 327 327 326 326 326 326 325 324
315 316 316 316 317 317 317 316 316 316 316 314 319 321 321 321 321 321 321 322 322 323 323 322 316 294 296 295 296 295 294 295 319 324 325 326 326 326 326 326 326 325
304 307 310 314 316 316 316 315 314 314 314 314 316 318 318 320 320 321 321 321 321 321 322 322 314 293 295 295 295 295 293 309 317 321 323 324 324 324 324 325 324 324
300 301 303 306 309 312 313 313 313 314 314 316 318 317 318 319 318 319 319 320 320 320 321 321 320 300 293 294 294 293 299 315 318 319 321 322 323 323 322 323 322 322
300 300 300 301 303 305 308 312 314 314 314 315 318 318 318 318 318 319 318 318 319 319 319 320 321 306 292 293 294 292 301 316 318 319 320 320 321 320 321 321 320 312
301 301 301 301 301 302 304 306 308 311 314 317 317 318 317 318 318 319 318 317 317 317 310 315 319 308 292 293 293 292 301 313 316 318 319 320 319 319 318 315 317 312
302 302 302 302 302 303 303 304 305 307 309 311 311 312 312 313 314 316 316 315 315 315 315 315 316 316 301 291 293 293 294 310 315 316 317 318 318 318 316 316 316 317

ECMWFNIL_sfc_thetae_078.txt.gz
Theta_e
335 335 337 336 336 336 335 334 334 332 332 331 330 331 331 334 334 335 335 335 334 333 332 334 334 334 333 333 333 328 329 332 331 332 336 337 337 338 337 337 337 335
334 336 335 335 334 335 336 335 333 331 331 332 332 332 333 334 335 335 334 333 332 331 331 332 332 331 330 329 330 328 327 330 329 329 333 335 334 336 338 338 338 337
335 336 336 334 333 334 334 334 333 332 331 331 334 333 333 335 335 334 334 333 330 330 330 330 330 329 328 328 328 329 329 330 330 331 330 329 330 332 338 338 338 336
335 336 335 335 335 335 335 334 333 332 333 332 331 333 333 334 334 334 334 331 329 328 330 329 329 328 326 326 328 327 328 329 329 330 329 329 330 331 335 338 337 336
337 336 333 333 333 334 335 334 333 332 331 331 333 333 331 333 333 332 332 329 328 327 328 328 329 328 326 326 326 325 325 325 328 327 326 326 330 332 333 334 335 334
338 336 333 331 332 333 333 332 331 331 332 333 331 330 330 331 330 330 329 328 326 325 325 326 325 326 326 325 325 324 324 322 324 324 322 325 328 331 328 331 332 331
337 335 333 331 332 333 332 332 332 332 331 331 330 329 331 331 330 329 327 327 324 323 323 323 324 325 326 325 324 323 323 322 322 321 320 324 327 329 327 328 326 326
337 336 334 332 333 333 332 331 331 331 331 330 328 329 331 330 328 328 327 325 323 321 321 321 322 324 324 324 322 322 322 322 322 320 321 323 326 324 327 326 328 325
336 335 334 334 333 332 331 329 331 331 331 328 327 328 330 329 328 328 326 324 322 320 320 321 321 322 323 322 321 320 320 321 322 321 322 323 323 323 322 325 326 327
335 334 333 333 332 331 330 330 330 330 329 327 326 327 326 329 329 327 325 323 321 319 320 321 321 321 321 320 319 319 320 320 321 322 321 322 321 321 321 323 323 325
333 333 333 332 332 331 332 331 330 329 329 327 327 326 326 327 327 327 325 322 321 318 319 320 320 320 320 320 321 321 320 320 320 320 321 321 322 322 324 322 323 322
332 331 332 332 332 332 332 331 330 329 329 328 326 325 326 325 326 325 323 320 319 318 319 320 320 320 320 320 321 322 322 322 321 321 320 320 321 321 321 323 323 322
327 329 329 328 329 331 331 329 328 328 327 326 326 325 324 324 324 324 323 321 319 319 319 320 320 320 321 322 322 323 324 324 324 324 323 324 323 322 322 322 322 322
326 327 326 326 325 326 327 328 328 328 327 326 325 324 324 322 322 323 323 322 320 320 320 322 322 321 322 323 323 324 325 325 325 325 325 325 327 326 327 326 325 323
325 323 323 323 322 323 324 325 326 327 327 326 326 325 325 323 322 323 322 322 321 322 322 324 323 324 325 325 326 325 326 325 325 324 325 325 326 327 327 327 327 327
325 323 322 322 323 324 323 324 326 327 327 326 325 325 325 324 322 323 322 322 320 321 322 325 325 328 324 310 313 326 327 327 327 327 326 327 326 326 327 327 327 328
322 322 323 323 324 325 323 323 324 325 325 324 325 325 325 324 324 323 323 322 321 323 324 325 326 328 302 304 304 302 324 328 327 326 327 327 327 327 326 326 327 327
323 324 323 323 321 319 319 319 321 323 323 323 323 324 325 325 324 323 324 323 323 324 326 326 328 304 297 299 301 300 303 330 328 327 327 327 327 327 327 327 327 328
323 322 321 321 321 320 318 317 319 322 322 322 323 325 324 324 324 325 324 325 325 324 324 325 328 296 297 295 297 297 297 309 328 329 328 327 328 327 327 329 329 329
321 321 320 321 321 320 320 320 320 320 320 322 323 322 323 323 324 324 324 324 324 324 324 325 328 299 295 294 295 295 294 303 327 328 330 329 328 328 329 330 330 329
320 320 320 321 322 321 321 319 319 319 319 321 322 323 323 322 323 323 325 325 325 325 325 326 323 294 295 294 295 295 293 299 327 329 329 329 328 328 325 326 330 330
319 320 320 320 321 322 321 320 320 322 321 322 323 324 324 324 324 324 324 325 325 325 325 325 318 293 293 294 293 294 293 320 326 327 327 326 327 328 329 329 331 331
314 316 318 320 321 320 319 318 320 321 321 322 321 322 323 323 323 324 325 325 324 325 325 324 322 299 292 293 294 291 301 323 325 325 325 326 327 328 329 329 330 329
313 315 316 317 318 318 319 319 320 319 321 323 323 322 322 323 324 323 323 323 324 324 323 325 320 299 292 292 293 292 300 319 323 324 324 325 326 328 329 328 328 318
309 310 311 313 314 316 317 318 319 320 321 322 323 323 322 322 323 324 323 323 322 321 314 323 319 302 292 293 293 293 303 319 321 322 323 325 326 326 328 327 328 320
308 308 309 309 310 311 313 314 317 319 320 320 321 321 320 320 319 320 321 321 321 321 321 322 321 316 303 291 293 293 293 312 321 321 320 322 323 323 323 326 325 326

ECMWFNIL_sfc_thetae_081.txt.gz
Theta_e
334 331 332 333 332 332 333 333 334 332 332 332 331 332 332 333 333 334 334 334 334 333 333 334 334 334 334 334 333 331 331 332 332 335 338 336 335 336 335 333 333 333
333 332 332 332 332 333 334 334 333 332 332 332 332 331 333 333 334 334 332 332 331 331 332 333 333 333 332 331 331 330 329 331 330 330 335 336 335 338 337 337 336 335
334 334 333 331 330 334 336 334 333 333 331 331 332 334 331 333 333 332 332 331 330 330 332 333 333 331 331 331 330 330 330 329 329 330 330 329 331 336 337 338 335 334
334 334 334 334 335 334 335 333 332 332 332 331 330 332 331 332 333 332 332 330 330 329 331 331 331 330 329 329 330 329 329 329 329 331 330 330 330 331 336 337 335 333
334 334 334 334 334 334 335 332 331 330 331 330 331 331 331 332 333 332 331 329 328 327 329 330 329 329 328 327 328 328 328 328 328 329 327 328 329 330 331 336 334 334
332 333 332 333 331 334 332 332 331 330 330 330 331 331 332 332 331 331 330 328 326 326 327 329 328 327 326 326 327 327 326 325 326 325 323 324 326 329 327 331 334 332
334 330 332 331 332 332 332 332 331 330 330 331 331 330 331 331 330 331 328 326 324 324 324 326 327 326 326 326 325 324 324 324 322 322 321 324 326 327 326 328 327 327
334 335 331 331 331 331 330 330 331 330 332 331 330 330 331 329 330 329 327 325 323 322 323 323 324 325 325 325 323 323 323 321 322 321 323 324 325 324 326 325 327 326
333 331 331 332 331 330 329 329 330 330 330 330 328 329 330 330 329 328 326 324 322 322 321 321 322 323 324 324 323 322 320 322 323 324 324 325 324 324 323 324 325 325
328 330 332 330 330 329 329 329 330 330 329 328 328 329 329 329 328 326 325 323 321 319 319 320 321 322 323 322 320 320 321 321 321 324 324 324 323 322 322 323 324 324
329 326 330 329 329 328 329 329 329 329 328 326 327 327 327 328 327 326 325 322 320 318 319 320 321 321 320 319 320 321 321 321 321 322 323 323 323 323 326 323 322 323
325 325 329 330 328 328 328 328 328 329 327 326 325 325 327 328 326 326 323 320 318 319 319 319 318 319 318 318 319 321 322 322 322 322 322 322 321 321 322 322 323 322
323 326 329 330 332 330 329 328 328 328 327 326 326 325 325 326 325 325 323 320 318 319 319 319 319 319 320 320 320 320 320 320 321 321 321 322 322 321 321 322 322 322
328 327 329 329 330 331 328 328 328 328 327 326 326 325 325 323 324 324 323 320 319 319 319 320 320 320 321 322 323 323 323 323 323 324 323 323 324 323 323 322 323 322
327 326 326 326 327 329 328 327 328 327 326 325 325 326 324 323 324 324 322 320 319 320 319 321 322 323 324 325 326 326 326 325 325 324 325 325 325 325 326 325 324 324
324 324 324 325 326 326 327 326 326 326 326 324 324 324 324 323 323 323 321 321 319 319 321 323 323 329 313 301 304 324 327 327 326 327 325 326 326 326 327 327 327 327
323 323 324 324 324 325 326 325 325 325 325 324 324 324 323 323 322 322 321 322 320 321 323 325 328 324 297 297 299 296 325 330 327 327 328 328 327 327 327 326 327 325
324 323 323 322 322 323 323 322 324 323 323 323 324 324 323 324 322 322 321 323 321 322 324 324 327 298 297 296 298 296 300 323 329 328 326 328 326 326 326 327 326 327
323 322 320 320 320 320 320 320 320 321 324 325 326 326 324 322 322 322 322 322 323 322 323 323 327 295 295 294 294 297 293 306 326 328 326 325 326 326 326 326 326 326
322 321 319 319 319 319 320 321 320 320 322 321 323 325 324 324 323 322 322 322 322 323 323 324 324 297 294 294 295 294 295 301 326 326 328 327 326 326 328 328 325 323
321 322 320 319 319 319 320 321 320 321 323 324 326 326 324 323 323 323 325 325 325 324 323 325 311 293 293 293 294 294 294 298 326 326 327 328 328 328 328 325 327 326
322 321 322 320 320 320 320 320 320 320 320 323 325 326 326 327 327 325 324 324 325 324 324 320 307 292 292 293 293 296 293 319 325 326 324 324 323 325 326 327 328 328
320 320 321 321 322 320 320 320 320 320 320 321 321 322 323 325 324 326 326 325 324 324 323 320 313 296 292 293 294 293 298 323 324 322 321 321 321 323 322 323 327 327
319 320 320 319 319 320 322 323 323 323 322 323 323 322 322 322 323 324 325 324 324 322 321 320 313 300 293 293 294 294 298 319 325 323 322 322 323 323 323 323 324 321
317 317 317 318 318 319 320 320 322 323 324 322 322 324 324 325 323 324 323 323 323 322 317 319 314 303 293 294 293 293 302 319 321 322 321 322 322 321 325 323 325 321
314 316 317 317 318 319 318 319 320 321 322 321 322 322 321 321 322 322 320 321 322 323 322 323 321 316 304 291 293 294 293 306 320 320 320 322 322 322 321 322 322 323

ECMWFNIL_sfc_thetae_084.txt.gz
Theta_e
334 333 333 332 333 335 334 334 334 334 334 334 333 332 332 334 335 335 336 336 335 335 336 337 335 335 335 334 334 331 330 333 334 334 335 336 334 333 334 333 333 332
334 334 333 333 334 335 337 336 333 333 334 334 334 334 333 334 336 334 334 333 333 334 334 335 335 334 333 332 334 331 330 332 331 333 332 333 333 335 333 334 334 333
334 333 333 333 332 334 334 332 331 332 336 335 335 334 334 336 334 334 333 333 331 333 336 335 334 334 333 334 334 330 330 332 330 331 331 330 329 334 334 336 335 333
333 333 333 333 333 333 332 331 332 333 334 333 333 333 333 335 334 334 333 332 330 333 335 335 335 333 328 333 333 330 331 329 329 331 329 330 331 333 333 333 333 333
334 334 333 333 334 334 333 333 331 333 333 332 332 332 332 334 333 332 331 329 330 331 332 333 333 332 330 331 331 329 332 328 329 330 329 329 330 332 334 334 332 331
332 334 332 331 332 330 329 329 332 331 331 331 331 331 332 332 330 330 328 326 328 329 331 331 329 329 330 330 329 329 328 327 330 328 325 326 325 329 330 333 333 331
329 331 330 330 329 329 329 328 331 330 331 332 331 332 332 332 330 328 326 325 326 326 328 329 329 329 330 329 327 327 332 323 325 326 322 325 325 326 326 328 327 328
330 330 331 331 329 328 327 327 328 329 331 330 331 331 332 330 328 329 326 325 323 324 326 325 327 328 328 328 327 328 324 327 327 327 323 322 326 323 325 327 328 326
333 330 329 329 328 328 328 327 329 330 330 330 330 330 332 331 329 327 326 324 323 323 322 323 324 326 327 328 326 325 322 326 329 326 324 325 324 323 322 324 326 326
330 331 332 327 326 327 328 329 330 330 329 328 328 329 328 331 329 326 327 325 324 321 321 322 323 326 328 324 324 324 324 324 324 325 326 326 325 323 321 323 324 325
326 329 330 331 329 330 330 330 330 330 329 327 329 330 329 328 328 327 326 322 324 319 319 321 321 323 324 323 326 325 325 324 323 324 326 326 327 323 327 323 323 323
326 328 329 329 332 330 329 330 329 329 329 328 328 327 328 327 327 326 322 319 318 319 319 320 320 321 319 319 321 325 325 325 325 325 326 323 321 322 321 324 325 323
325 326 326 326 331 328 329 328 328 327 326 325 328 328 329 326 328 326 328 320 321 321 320 320 319 320 321 321 321 324 324 325 324 325 324 323 325 322 323 323 322 323
327 327 325 327 331 329 327 327 328 327 326 325 326 327 328 325 324 323 327 323 324 321 320 322 322 320 319 321 320 323 324 323 325 325 322 323 325 324 324 324 325 323
326 327 328 329 330 329 327 326 328 330 327 326 327 326 327 326 326 324 326 321 322 323 320 324 324 324 320 322 327 322 325 325 325 325 324 325 325 324 324 323 325 323
325 326 326 327 328 327 326 326 327 330 326 325 325 324 327 326 326 323 323 324 320 321 323 325 322 319 308 303 306 320 326 327 328 325 327 325 325 325 325 326 325 325
325 325 325 324 324 324 325 324 325 328 324 324 325 324 327 327 327 323 325 326 319 323 323 323 319 311 296 296 296 302 320 327 325 324 324 325 325 324 324 324 324 323
323 323 322 321 321 321 322 323 324 325 324 325 325 326 329 328 327 324 324 328 324 324 323 319 311 296 293 294 295 294 301 320 327 325 327 324 323 325 323 322 322 321
322 321 320 319 319 319 320 321 321 321 322 323 322 322 324 324 325 325 325 327 326 322 321 316 309 294 294 295 295 294 294 311 323 326 324 326 324 323 321 321 321 321
321 319 318 317 318 318 318 317 318 318 319 320 321 323 323 323 323 323 323 323 323 322 316 311 306 296 294 295 295 294 292 303 323 325 327 324 322 322 321 320 323 322
319 318 317 317 318 319 319 318 319 319 319 319 321 323 322 321 321 322 323 322 322 320 315 309 303 294 294 294 295 294 293 303 324 327 326 326 325 324 322 323 321 324
320 317 316 317 318 320 319 319 319 320 320 321 323 323 323 323 323 323 321 321 322 319 315 310 303 292 293 294 294 293 294 317 325 325 325 324 324 324 324 325 325 324
320 321 320 317 318 318 318 319 319 320 321 322 321 321 321 322 323 323 324 322 320 318 315 312 308 295 293 294 294 292 301 319 324 322 322 322 322 323 323 322 323 323
319 320 319 320 318 318 319 320 320 319 320 321 320 319 319 322 323 322 322 321 320 319 316 312 308 298 293 294 293 293 298 314 319 321 321 321 320 322 323 322 320 319
318 318 319 318 318 319 320 319 320 321 321 321 321 321 321 322 321 321 320 319 319 318 314 314 312 304 294 294 294 293 299 308 315 318 319 319 320 319 322 321 321 317
313 317 318 317 317 318 319 318 318 320 322 321 321 321 320 321 321 320 319 319 320 321 320 318 312 307 299 293 294 293 294 306 313 317 314 315 318 318 318 318 320 319

ECMWFNIL_sfc_thetae_087.txt.gz
Theta_e
327 327 327 327 326 328 329 328 327 327 326 327 327 328 328 329 330 330 330 329 328 327 327 326 327 328 329 329 328 329 329 328 330 330 329 327 325 327 327 326 324 324
327 327 328 328 328 329 328 328 328 328 327 327 328 328 329 329 329 329 327 327 328 328 327 326 326 324 324 324 326 327 327 328 328 330 329 328 325 327 326 324 323 324
329 326 326 328 329 328 328 326 327 327 327 328 328 328 328 329 327 326 325 325 326 326 326 326 325 324 325 325 325 326 326 326 326 327 328 327 326 327 327 326 325 325
329 330 330 329 329 328 326 326 325 325 326 327 327 328 329 328 326 326 326 328 325 325 326 325 325 325 324 325 324 323 325 325 326 327 324 323 324 326 325 326 326 326
328 329 330 329 328 327 326 326 325 325 326 327 327 327 326 325 325 324 323 323 323 323 324 323 324 322 322 324 323 323 323 323 324 325 324 323 324 326 325 326 325 324
329 330 330 329 327 326 326 325 326 326 325 325 325 326 326 325 323 322 322 321 322 323 324 322 321 319 322 322 322 322 321 321 322 323 324 324 324 325 331 327 325 324
329 329 328 328 327 326 326 325 325 325 325 325 326 325 325 324 322 321 320 321 321 322 322 319 318 320 320 320 320 319 320 320 321 322 322 321 323 323 326 326 325 324
328 327 327 327 325 325 325 325 324 325 325 325 325 325 326 324 322 322 321 321 321 321 320 319 319 318 317 317 318 316 316 318 317 318 319 319 320 321 321 325 323 324
327 327 326 325 324 323 323 324 324 324 324 324 325 325 326 324 323 322 320 319 319 320 319 318 318 317 318 317 315 313 314 318 319 318 318 318 319 319 320 322 323 323
326 326 326 325 323 323 323 323 324 323 324 324 324 324 324 323 322 320 318 317 318 318 317 317 318 318 317 315 315 315 316 318 317 318 318 318 318 318 321 322 321 321
325 325 324 323 322 322 322 323 323 323 322 322 322 322 324 321 321 319 316 316 317 316 316 316 316 317 315 314 316 315 316 316 316 316 317 318 318 320 324 320 319 319
323 324 323 322 322 322 323 323 323 322 321 322 322 322 321 320 319 317 315 314 314 314 315 316 315 315 314 314 315 315 314 315 316 316 316 317 317 319 319 319 318 317
322 323 323 323 323 322 323 322 322 322 322 322 322 320 319 319 318 314 313 313 313 314 315 315 315 314 313 313 315 315 316 317 316 314 315 316 315 316 317 317 318 318
321 321 322 323 323 322 321 321 321 320 321 321 322 321 320 319 317 314 312 312 314 314 313 315 314 313 313 313 315 316 315 316 315 313 315 315 314 316 317 316 315 314
320 320 322 322 322 321 321 320 320 319 319 320 321 321 321 318 317 317 315 314 314 316 315 314 313 313 313 314 314 315 315 315 316 316 317 317 318 318 318 318 317 316
320 320 321 321 321 321 320 320 320 319 319 319 319 319 319 318 315 315 313 314 316 315 313 312 310 308 305 306 312 318 318 319 319 319 318 318 318 318 318 319 319 319
320 320 320 319 319 319 318 319 320 319 319 318 317 317 318 317 315 313 313 316 315 311 309 307 304 303 298 298 302 310 320 320 318 317 318 318 317 316 316 317 316 318
318 318 317 317 318 318 319 319 320 319 319 319 318 319 317 316 314 313 316 315 313 311 308 305 301 297 295 296 298 303 311 319 320 319 318 318 318 317 317 316 317 318
317 316 316 316 316 316 317 317 317 318 318 318 318 318 319 318 318 318 316 314 312 310 307 305 301 295 294 295 296 298 305 315 320 319 317 317 318 317 316 316 316 317
317 316 315 315 316 316 316 316 317 316 317 318 318 318 318 318 317 315 314 312 310 308 306 304 301 296 294 295 295 296 300 311 321 320 318 318 318 317 315 314 315 314
316 316 315 316 316 316 316 316 316 317 318 317 318 318 317 316 315 314 313 311 310 309 306 302 300 294 294 295 296 298 302 309 319 320 320 319 317 316 315 314 315 315
314 315 316 316 314 316 316 316 316 317 317 316 317 318 318 318 317 316 314 312 311 310 307 304 299 293 294 295 296 299 305 316 318 317 316 316 316 316 315 314 314 314
315 314 314 315 316 316 315 316 316 316 316 316 317 317 318 318 317 317 316 314 311 310 308 304 301 295 293 295 296 299 307 316 317 317 317 318 318 318 318 318 317 316
316 315 314 314 314 315 315 315 316 315 315 316 317 317 317 317 318 317 316 314 312 310 309 305 302 296 294 295 296 298 306 314 315 316 316 316 316 318 317 314 310 309
312 315 315 315 315 315 314 314 314 316 317 317 317 318 317 317 316 314 313 312 312 310 310 307 303 299 294 294 295 297 306 313 315 313 312 313 314 316 316 313 308 304
307 309 314 315 315 313 312 314 313 316 317 317 317 317 316 316 315 316 315 315 314 313 310 307 303 300 297 294 296 298 301 310 310 310 310 311 313 313 311 309 306 304

ECMWFNIL_sfc_thetae_090.txt.gz
Theta_e
325 325 327 327 325 325 324 325 325 325 324 325 324 324 325 325 326 326 325 325 326 326 326 327 327 328 330 329 328 329 329 328 327 326 326 325 324 324 325 323 321 323
326 326 326 325 325 325 325 325 326 325 325 325 325 326 325 325 326 326 326 326 327 326 325 327 327 328 328 327 326 327 325 326 326 329 326 325 324 324 324 323 323 320
326 326 325 325 324 325 326 327 326 325 326 326 326 326 326 326 326 326 326 326 326 324 324 326 326 326 326 326 325 326 325 324 326 324 326 325 323 324 323 323 321 321
325 326 326 326 325 326 327 326 325 325 325 325 326 327 327 327 326 324 324 329 324 323 323 324 324 324 325 325 325 324 324 324 324 324 323 321 323 324 323 322 321 321
326 326 326 326 327 328 327 326 325 324 325 326 326 326 325 324 323 323 323 323 323 322 322 323 323 323 323 323 324 323 323 322 322 323 322 322 321 323 322 323 322 321
326 327 327 327 328 326 325 325 325 325 326 324 325 325 324 324 324 323 323 323 323 323 322 322 322 321 322 322 322 323 322 322 322 322 322 322 321 320 326 323 322 321
327 328 328 328 326 325 325 324 324 325 326 326 325 324 324 323 323 323 322 322 322 322 321 320 320 320 321 321 321 320 320 321 320 321 322 320 321 321 324 323 323 322
327 328 328 326 324 324 324 324 324 324 323 324 324 324 323 322 322 322 321 322 321 320 318 319 320 321 321 321 320 319 318 320 320 320 320 319 319 320 319 324 322 321
328 327 326 324 323 323 323 324 324 324 324 324 324 323 322 322 322 321 321 321 320 319 318 317 318 318 318 319 318 317 316 316 319 319 318 318 318 318 319 321 322 321
326 325 324 323 323 323 323 323 324 324 324 324 324 323 321 321 321 320 320 320 320 318 317 316 317 317 315 315 315 315 315 316 317 317 318 318 318 317 319 320 320 320
324 323 322 322 322 323 322 323 323 323 323 324 324 322 321 320 319 319 319 319 319 318 317 316 316 315 314 314 315 316 316 316 317 317 317 317 317 319 324 320 318 317
321 320 321 321 321 321 321 323 323 322 322 322 323 322 320 319 318 318 318 318 318 317 317 316 315 314 314 314 314 314 314 314 315 316 316 317 317 318 318 318 318 316
320 320 320 321 321 320 321 322 322 321 321 321 321 321 319 318 317 316 316 317 316 316 316 315 314 313 313 313 313 313 314 313 313 314 314 314 314 314 315 315 315 314
319 320 319 319 320 321 321 321 321 320 320 319 319 319 318 317 314 314 314 314 314 314 313 312 311 310 311 312 313 313 312 312 314 314 314 313 313 312 312 311 311 310
317 317 319 320 319 319 320 320 320 320 320 319 318 317 318 316 313 312 313 314 313 313 313 312 312 311 312 313 312 312 314 315 315 316 315 314 314 314 314 315 315 313
318 318 318 319 319 319 318 318 319 319 319 318 318 318 317 315 313 313 314 313 312 311 311 310 308 307 308 310 312 316 316 316 316 316 316 316 316 315 315 315 317 317
317 317 319 318 318 317 317 318 317 318 318 318 317 317 315 313 314 314 313 312 311 309 308 307 306 305 303 302 304 308 316 316 315 315 315 315 315 314 314 314 314 314
316 316 317 317 317 318 317 316 316 316 316 315 316 315 313 313 313 312 311 310 309 308 307 305 303 300 301 302 304 305 310 317 316 316 315 314 314 314 314 314 314 314
315 315 315 315 315 315 315 315 316 316 315 315 315 315 314 313 311 311 310 310 309 307 305 304 302 296 298 301 303 304 305 312 317 316 315 314 314 314 313 313 313 313
315 314 314 314 315 315 314 315 316 315 314 315 315 315 313 311 310 310 310 309 308 306 304 303 303 297 297 299 300 301 303 309 316 316 316 315 314 313 313 311 310 311
315 315 315 315 316 315 315 315 315 315 315 314 314 313 311 310 309 308 308 308 307 306 304 302 300 294 297 300 301 302 304 308 317 317 315 314 312 312 312 312 313 314
313 313 314 315 315 315 315 314 313 313 314 314 314 313 312 311 310 309 308 307 307 306 305 303 300 293 297 299 299 301 304 314 316 316 315 315 315 316 315 315 315 315
314 313 313 313 314 314 313 313 314 313 314 315 315 314 313 312 311 310 310 308 307 306 305 302 301 295 295 298 299 300 306 315 316 316 316 315 314 311 309 310 312 312
313 313 313 312 313 314 313 313 313 314 314 314 314 314 313 312 312 311 310 309 308 306 305 303 301 297 295 297 299 303 308 316 316 316 314 313 311 310 307 305 307 311
307 312 313 313 312 312 313 313 314 314 313 316 315 314 312 312 310 310 309 308 308 307 307 304 302 300 295 296 298 301 309 314 314 314 313 311 310 307 306 304 302 300
304 305 307 311 312 312 313 312 313 315 315 315 314 314 313 313 312 311 308 306 305 304 304 304 302 301 297 295 297 299 302 311 313 312 310 310 309 306 304 302 302 300

ECMWFNIL_sfc_thetae_093.txt.gz
Theta_e
324 325 325 325 325 326 326 326 326 327 327 326 325 324 324 324 325 325 325 325 325 325 324 324 325 326 327 326 326 326 325 325 324 323 323 323 320 321 322 320 318 321
323 324 325 324 324 324 325 326 326 326 327 326 325 324 324 323 324 325 324 324 324 324 324 324 324 325 326 326 325 326 324 324 324 325 323 321 321 321 321 319 319 317
323 324 325 324 324 324 324 324 324 325 326 326 325 325 324 324 324 324 324 323 324 323 323 323 323 324 325 325 324 325 325 323 324 323 323 322 320 322 320 319 317 318
323 324 325 325 324 324 324 324 324 324 324 325 324 325 325 325 324 323 323 327 323 322 321 323 323 324 324 324 323 322 323 324 324 323 322 319 320 321 319 318 318 318
323 324 325 325 325 324 324 324 324 324 324 325 325 325 325 324 323 323 323 323 321 319 321 322 322 323 323 322 323 322 320 321 319 321 321 319 317 320 318 320 319 319
325 326 325 325 325 325 324 325 325 325 324 322 323 324 324 324 323 323 322 322 319 319 320 321 321 321 322 322 321 322 321 321 319 320 320 320 318 318 323 320 319 318
325 326 325 325 325 325 325 325 325 322 323 324 324 322 322 322 322 322 322 321 320 320 320 320 320 319 319 321 320 319 319 319 318 319 320 317 319 318 320 319 319 319
325 326 326 326 325 325 324 323 323 323 323 324 323 323 324 323 322 322 322 321 321 319 319 319 318 319 318 320 319 317 316 320 319 318 319 317 317 318 317 320 317 317
324 325 325 326 325 324 322 321 322 323 324 323 323 322 323 323 322 321 321 321 319 318 317 316 318 318 318 319 318 317 317 317 318 318 319 318 318 317 318 317 317 316
323 324 324 324 323 322 321 322 322 323 324 324 323 322 322 322 323 321 321 320 318 317 316 316 317 318 317 318 318 317 317 317 316 316 316 317 317 317 317 317 317 316
321 322 323 323 321 321 321 322 322 322 322 323 322 321 322 322 321 319 319 318 317 316 315 315 316 316 316 314 314 315 316 317 316 316 315 316 317 317 322 317 317 317
320 321 321 321 320 320 321 322 321 321 322 322 322 321 321 321 319 318 319 317 316 315 315 315 315 315 315 314 313 313 314 316 317 316 316 315 315 317 318 318 318 316
320 320 320 319 319 320 321 322 322 321 322 322 322 321 319 317 317 317 316 316 315 314 314 314 313 313 313 313 313 313 314 315 315 314 314 314 313 314 315 316 317 316
318 319 319 319 320 321 321 321 320 320 321 322 322 320 317 316 315 316 314 314 313 313 312 313 312 312 312 312 313 313 314 314 315 314 313 311 310 310 311 312 312 312
316 319 320 319 320 321 321 320 320 320 321 321 321 318 317 316 314 313 312 312 311 311 311 311 311 311 312 312 312 313 314 315 314 314 312 311 311 310 310 309 309 309
317 319 319 318 319 319 318 318 318 319 320 319 317 316 313 311 311 312 312 311 310 309 308 309 308 308 312 308 311 315 315 315 315 313 313 313 313 312 312 311 311 311
317 317 318 318 318 316 315 316 316 316 316 317 317 313 311 311 312 311 310 310 309 307 306 306 305 307 302 301 303 307 315 315 314 313 313 313 313 313 312 311 311 311
315 316 316 316 317 316 316 316 316 315 314 313 312 310 311 311 311 310 309 308 307 306 305 304 304 305 299 301 302 304 308 315 315 314 313 313 313 313 312 312 312 313
315 316 315 315 316 316 315 316 316 313 312 312 310 310 311 310 309 309 308 308 307 306 305 304 303 301 299 301 301 302 304 310 314 314 313 313 313 312 311 311 311 312
314 314 313 313 314 314 314 313 312 312 311 310 310 310 309 308 308 308 308 307 307 306 305 303 303 301 300 300 300 301 303 307 314 314 313 312 311 310 310 309 310 312
313 313 313 314 314 314 313 313 310 310 311 311 310 309 308 308 308 307 307 306 306 306 305 303 302 299 298 299 300 301 302 306 314 314 313 312 312 312 312 313 313 312
313 312 313 313 313 312 312 311 311 310 310 310 309 308 308 307 307 306 306 305 305 305 305 303 299 298 299 299 300 300 304 313 313 313 314 313 312 312 313 314 313 310
313 312 311 312 312 313 312 311 311 309 309 309 308 307 307 307 307 306 306 306 305 305 305 303 301 296 297 298 299 301 307 314 314 312 311 309 309 310 311 311 310 308
311 313 311 311 311 311 311 311 311 311 310 309 309 308 307 307 307 306 306 306 305 304 303 301 300 297 294 298 300 303 307 313 311 310 309 307 306 306 306 307 310 310
306 309 312 312 311 311 311 311 312 311 310 309 308 309 308 307 307 305 304 304 304 304 305 302 301 299 295 297 300 302 309 314 313 310 308 306 304 303 303 302 301 301
303 304 306 309 311 311 312 311 311 311 311 310 309 307 307 306 306 305 303 302 302 301 300 300 300 299 296 294 299 301 304 312 312 309 306 304 303 303 301 300 300 299

ECMWFNIL_sfc_thetae_099.txt.gz
Theta_e
331 331 331 332 332 333 331 333 333 332 331 331 331 331 331 333 334 333 334 334 335 336 336 337 338 337 336 337 337 336 336 337 337 337 336 336 336 333 332 335 336 335
329 329 329 330 330 330 331 331 331 331 332 334 333 332 332 332 333 333 334 334 335 335 336 336 337 336 336 336 336 336 336 337 336 335 335 335 335 333 333 335 335 336
327 327 327 327 328 329 331 331 331 332 332 333 331 331 331 332 332 333 334 335 335 335 336 336 336 336 336 336 336 336 336 335 336 336 336 334 335 331 333 336 336 336
328 329 328 329 330 329 329 327 328 329 330 329 328 329 330 330 330 332 333 334 335 335 335 335 335 335 335 336 337 336 336 335 335 335 334 335 335 335 335 336 336 336
330 330 330 330 331 328 327 326 326 328 329 330 328 330 330 330 330 331 331 333 334 334 334 334 336 332 332 333 335 336 335 335 335 334 334 333 335 335 335 335 335 335
332 331 330 330 329 325 325 325 326 327 329 329 329 330 330 330 330 330 331 332 332 333 333 335 334 330 330 330 332 334 333 334 334 334 333 334 334 334 333 333 334 334
328 328 329 329 328 328 326 326 327 328 329 329 330 330 331 331 329 329 330 331 330 332 333 334 333 330 330 330 328 328 330 334 334 334 333 334 334 333 332 332 331 332
327 328 329 329 329 328 326 326 327 328 329 330 329 330 331 331 330 329 329 329 327 328 329 331 333 333 331 331 328 330 332 335 335 335 334 334 335 332 331 330 331 331
326 326 327 328 328 326 326 327 327 329 331 330 330 330 331 331 331 330 330 329 328 329 329 331 333 333 333 332 330 330 334 334 335 335 335 334 334 334 332 332 332 332
324 326 327 326 325 327 327 328 329 329 330 330 330 331 330 331 332 331 330 330 330 331 331 332 332 333 333 335 335 335 334 334 334 336 335 335 335 334 333 333 333 332
325 326 326 326 326 327 328 328 329 329 329 329 330 329 330 330 330 331 330 330 330 330 330 331 332 333 333 334 335 336 335 335 334 335 335 335 335 334 333 334 333 333
325 325 326 326 327 328 328 328 329 329 329 329 329 329 329 329 329 329 329 329 329 329 330 330 330 332 333 333 334 334 335 335 335 334 334 335 335 335 334 334 334 333
324 324 326 326 327 328 328 327 327 328 328 328 329 330 329 328 328 328 329 328 328 329 328 329 329 331 333 333 332 332 333 333 333 334 333 334 334 334 334 334 334 333
322 324 325 326 326 326 326 326 327 327 328 328 328 328 328 328 327 327 326 328 327 326 327 328 329 329 330 330 330 331 332 332 332 333 332 332 333 333 334 334 333 333
321 322 324 324 324 324 325 325 325 326 327 328 328 328 328 327 326 324 322 322 323 326 326 327 327 327 328 328 329 330 331 331 332 331 331 330 330 329 330 330 330 330
321 322 323 323 322 323 324 325 325 325 326 327 328 328 327 326 326 326 322 320 320 321 323 326 327 327 320 313 317 328 329 330 331 331 329 328 326 325 325 327 327 327
319 320 322 321 321 322 323 324 324 324 325 325 326 325 324 324 324 322 321 320 320 320 322 324 324 323 305 303 305 310 324 328 329 328 328 327 325 324 323 323 322 321
317 319 320 320 321 320 320 322 323 323 324 324 324 323 323 324 323 322 320 318 317 318 320 321 323 307 298 300 302 305 313 328 329 328 328 327 326 323 322 322 321 321
316 317 318 318 318 319 320 321 321 321 321 319 317 319 321 320 318 320 318 316 315 316 318 319 318 297 297 299 300 302 305 318 327 328 326 325 324 324 323 323 323 323
315 316 316 317 317 317 317 318 317 316 316 316 316 317 318 317 316 315 315 315 317 318 318 317 316 300 297 298 299 300 303 313 327 326 326 324 324 324 325 325 325 323
312 315 315 315 315 314 314 314 314 314 313 313 314 314 314 315 315 313 313 315 316 317 316 314 310 295 296 297 298 300 302 311 326 325 324 324 324 324 324 325 326 325
309 313 314 314 313 312 311 310 310 311 311 311 310 310 310 311 312 314 315 315 315 315 315 313 308 294 296 297 298 300 304 323 324 324 323 322 321 321 321 322 323 324
307 310 313 313 313 311 309 308 308 308 309 310 309 309 307 307 309 313 314 315 315 315 315 313 310 298 295 296 298 301 311 324 323 322 321 319 318 319 320 320 321 322
306 308 310 312 312 311 310 308 307 307 308 309 308 307 307 307 308 307 308 310 312 313 313 312 309 300 295 297 299 304 312 322 321 319 318 317 315 314 314 312 309 307
305 306 308 310 310 310 310 308 307 307 307 307 306 305 305 306 306 305 305 307 308 309 308 310 310 304 296 296 298 303 315 322 319 316 315 313 313 311 311 309 305 302
303 304 305 307 310 310 310 309 308 307 306 305 304 304 304 305 304 304 303 304 306 307 308 309 309 306 299 295 298 299 303 318 318 316 312 312 312 310 308 306 305 303

ECMWFNIL_sfc_thetae_102.txt.gz
Theta_e
337 336 336 336 336 337 338 335 336 339 339 336 334 335 334 335 336 336 335 336 336 336 338 340 339 334 335 336 336 335 335 336 334 336 334 337 335 334 336 337 336 334
335 336 335 335 335 336 338 336 336 335 337 336 335 336 336 335 335 336 336 337 336 335 339 341 336 335 334 334 336 336 336 337 331 331 333 333 335 338 337 337 338 338
334 334 332 332 333 335 335 334 335 335 336 337 337 337 336 336 336 336 337 336 335 335 334 338 334 335 339 335 334 338 334 333 330 332 334 333 336 337 338 338 337 335
333 333 333 334 335 334 334 333 334 334 336 337 338 337 336 336 337 337 337 337 337 336 336 339 339 338 338 336 337 333 333 334 334 335 334 333 334 336 337 337 337 337
333 333 334 334 334 335 335 334 334 334 334 336 337 337 336 335 335 335 337 338 336 335 336 334 337 338 338 338 338 335 334 334 333 333 333 335 335 336 337 336 331 333
333 331 331 330 333 335 336 332 334 334 333 333 335 335 336 335 334 334 336 337 337 335 332 335 337 335 337 336 336 332 331 332 334 335 334 333 333 331 333 334 335 334
331 332 332 333 334 335 334 333 333 333 333 333 333 334 335 334 333 333 335 335 335 334 334 333 331 334 335 335 336 337 334 334 335 335 332 335 334 332 334 335 335 332
330 333 333 332 332 333 332 332 333 333 334 333 333 334 334 333 333 333 335 336 336 336 334 334 333 334 334 334 334 335 336 337 337 334 332 332 335 332 335 334 335 332
331 331 331 332 332 332 328 332 332 333 334 333 333 334 335 334 334 334 335 336 336 335 335 334 334 334 334 332 334 335 335 336 336 334 330 331 332 332 332 333 334 333
328 329 329 329 330 328 330 332 332 333 333 333 334 334 333 335 335 335 335 334 336 335 334 334 334 334 333 333 333 334 335 335 334 332 329 331 331 332 331 333 335 333
327 328 328 329 328 328 329 331 332 331 332 332 334 333 334 334 334 335 335 335 334 334 334 333 333 333 332 332 334 335 336 336 335 331 331 334 333 333 334 334 334 334
325 326 327 328 328 329 330 330 330 331 332 331 332 332 333 333 333 334 334 335 334 333 334 334 334 331 331 332 332 332 333 333 332 330 329 329 334 335 334 335 335 334
324 325 327 327 328 328 331 329 330 330 331 330 331 331 332 333 333 333 334 335 333 332 331 332 333 335 331 330 331 332 332 331 332 332 333 334 336 335 335 335 335 334
323 325 325 326 327 329 329 330 330 330 330 331 331 330 332 329 331 334 332 331 332 334 332 334 334 330 330 330 331 332 332 331 333 336 334 335 337 336 336 336 335 335
323 324 325 326 326 326 327 328 329 330 331 330 330 331 329 329 331 330 333 332 331 332 333 334 334 332 330 330 330 330 328 334 335 334 335 336 336 335 336 335 334 334
322 323 324 325 326 325 326 327 327 327 328 328 329 331 330 330 328 331 328 330 330 330 332 333 332 332 327 318 319 330 333 335 335 336 336 336 335 335 336 336 335 336
321 323 324 324 326 327 326 325 326 327 326 327 328 327 326 326 327 325 326 327 328 328 330 332 332 330 312 308 311 315 327 332 333 335 335 335 335 335 334 335 334 331
321 322 322 323 325 325 325 326 326 326 326 326 327 327 326 326 327 325 325 326 327 328 328 329 332 314 304 303 306 310 317 330 331 332 334 333 333 333 333 332 330 330
320 321 321 322 323 324 324 324 324 323 323 323 324 325 326 325 326 325 323 324 324 323 326 327 324 299 301 301 303 306 310 320 328 329 329 330 331 330 331 331 330 329
319 319 319 320 321 321 321 321 321 319 318 320 322 323 322 321 322 321 321 322 323 323 323 321 317 299 298 299 302 303 306 312 328 329 329 329 329 330 332 332 331 330
317 318 319 319 318 317 316 316 317 316 315 316 316 316 317 318 317 317 317 318 320 321 318 315 308 294 297 297 299 301 304 311 330 330 329 330 330 332 331 331 330 329
315 317 318 318 318 316 314 313 313 314 314 314 314 314 315 316 316 316 316 316 318 318 316 312 307 293 296 297 298 301 304 329 332 332 331 330 329 331 330 330 328 328
314 315 316 317 316 315 314 313 313 314 313 314 312 312 312 312 312 314 315 316 317 318 316 312 307 296 295 297 300 300 312 330 331 329 329 328 327 327 328 327 325 327
313 314 314 315 314 313 312 312 313 313 312 312 310 309 308 309 311 311 312 312 312 314 314 311 310 300 294 295 297 294 308 330 329 328 327 326 324 323 321 319 313 302
312 312 313 313 313 313 313 312 311 312 312 313 311 309 308 309 310 309 309 310 312 313 310 313 312 306 295 295 295 296 316 330 327 325 322 321 321 320 320 319 316 307
309 310 311 312 311 312 313 312 312 312 311 311 311 309 308 309 308 307 306 307 308 309 310 312 311 308 300 294 296 299 300 328 325 322 320 320 320 318 316 315 314 312

ECMWFNIL_sfc_thetae_105.txt.gz
Theta_e
339 337 337 336 337 335 334 334 336 337 337 337 336 336 335 337 339 340 339 339 339 340 338 337 336 336 336 338 334 333 334 335 336 334 334 334 333 336 337 338 336 334
336 337 336 336 336 338 338 339 338 337 337 338 336 338 339 338 338 339 338 338 337 335 335 336 336 336 337 337 337 335 336 337 335 337 335 333 334 333 335 336 334 333
335 336 335 335 334 336 338 339 339 338 336 338 337 336 337 337 339 338 338 338 337 338 337 337 336 337 337 337 336 336 337 337 337 338 338 336 336 336 334 335 333 332
335 335 335 335 335 335 337 336 337 334 336 337 336 337 336 335 339 338 338 338 336 338 338 338 338 337 337 336 336 337 336 335 337 336 335 335 335 335 333 333 334 333
334 334 335 335 335 335 335 335 334 334 335 335 334 335 336 337 336 337 338 337 337 338 336 336 336 337 336 336 335 335 335 335 335 335 333 333 334 332 333 331 329 327
335 333 333 334 334 333 333 333 333 330 330 331 331 333 336 334 337 336 335 334 338 336 337 337 336 335 334 334 333 333 334 333 334 334 333 333 334 333 332 331 331 329
334 334 333 334 334 334 334 333 331 331 331 332 332 332 333 336 336 335 335 337 336 333 335 336 335 335 334 334 331 331 334 333 333 333 332 332 331 333 332 332 333 330
332 333 333 333 334 337 335 332 331 331 329 331 333 331 333 336 335 336 336 336 336 335 335 335 336 335 334 333 330 331 333 334 333 333 332 331 331 331 331 331 331 330
330 331 332 332 332 333 333 332 332 333 332 330 332 331 332 335 336 335 335 334 333 335 333 334 334 334 336 334 332 333 333 333 333 333 332 331 330 330 330 331 331 332
330 330 330 331 331 331 331 331 332 331 330 329 329 333 331 333 336 334 334 333 333 336 336 335 335 334 333 334 333 334 332 332 331 329 329 329 329 329 330 331 331 332
327 328 329 329 330 331 331 332 332 331 331 330 332 331 332 335 333 335 334 333 331 331 334 332 333 331 332 332 334 334 334 330 326 329 330 330 331 331 332 329 329 330
326 327 327 329 329 330 330 331 332 331 331 332 331 331 332 332 332 331 333 330 332 333 332 333 328 330 331 331 330 330 330 329 328 330 330 330 332 333 330 331 332 330
323 325 326 327 328 328 330 330 331 332 331 330 332 330 330 331 329 330 331 330 331 331 329 331 333 335 335 336 335 333 332 328 330 331 332 333 334 333 332 332 331 330
324 325 326 326 328 329 329 330 330 330 332 330 330 329 328 330 330 329 330 330 330 329 328 330 333 334 334 335 336 335 335 333 331 333 333 333 332 332 331 330 330 332
323 325 326 327 328 328 328 329 329 330 332 331 331 330 329 328 329 329 330 330 330 331 329 331 332 333 333 334 334 333 336 334 333 332 334 331 330 329 330 329 329 333
322 324 325 326 327 327 328 328 329 329 330 330 330 330 328 328 330 330 329 329 329 330 331 331 331 332 328 321 324 333 333 334 332 332 331 330 328 330 330 329 333 332
322 323 323 324 326 327 327 327 327 327 328 329 330 329 327 327 328 327 326 328 328 328 329 329 330 329 309 307 309 315 328 331 331 331 330 328 328 327 327 329 331 329
320 321 322 322 324 324 325 325 325 324 325 326 327 328 328 327 327 327 327 327 328 327 328 330 330 316 304 303 306 307 316 331 330 328 326 327 327 328 328 330 331 331
319 320 320 321 321 322 323 323 322 322 322 322 323 325 326 326 327 327 327 327 326 326 326 326 320 297 300 300 303 304 306 319 328 328 329 327 330 329 331 332 330 329
319 319 319 320 320 320 321 320 320 319 319 320 320 322 322 321 323 323 324 324 325 324 322 316 311 298 294 296 298 301 305 312 327 328 328 330 329 330 331 330 329 331
317 318 318 318 319 318 318 318 317 317 317 317 317 317 318 317 318 318 319 319 319 319 317 313 307 294 294 294 295 297 299 307 327 328 327 329 331 331 330 331 329 329
315 316 317 317 317 317 316 316 316 316 315 315 315 316 317 317 316 317 317 318 318 317 314 311 307 294 294 295 296 297 297 327 331 327 327 328 329 329 326 329 331 329
315 315 315 315 316 315 315 314 314 314 315 315 314 313 313 313 313 313 315 315 314 315 313 310 308 297 293 293 294 292 309 328 328 326 327 328 328 325 323 320 317 326
314 314 314 314 314 314 314 313 313 314 314 315 313 312 310 310 311 312 312 311 310 311 312 309 307 300 294 294 296 295 302 326 323 320 325 326 326 325 322 317 311 302
313 313 313 312 312 313 314 313 312 312 313 314 313 312 310 310 310 309 309 307 306 305 304 306 306 302 295 294 295 297 310 324 323 322 323 324 323 321 319 317 312 305
312 312 312 311 311 311 311 312 312 312 312 312 311 311 310 310 309 309 307 306 306 304 302 301 303 303 298 293 295 297 301 321 322 322 320 319 320 317 315 312 310 307

ECMWFNIL_sfc_thetae_108.txt.gz
Theta_e
338 338 338 337 336 337 337 336 336 335 335 336 335 335 334 333 333 332 332 334 337 337 337 334 334 335 336 336 335 335 334 333 333 334 334 333 333 333 331 330 331 331
337 336 336 336 335 336 337 339 338 337 335 336 336 336 334 333 332 333 332 332 334 335 336 335 335 335 334 335 335 333 333 332 331 334 333 332 332 332 331 331 330 334
336 336 335 334 334 335 336 336 337 338 335 335 336 335 333 331 329 331 331 333 332 333 335 333 332 334 334 334 334 333 333 332 331 332 331 331 332 331 330 332 333 332
335 335 334 334 335 335 336 335 335 336 336 334 332 334 331 331 331 331 331 332 332 331 332 332 333 333 334 333 333 332 332 333 331 331 329 329 331 331 330 333 333 332
333 334 334 334 334 335 334 333 333 334 334 334 333 333 332 330 329 327 330 332 332 330 332 333 332 332 333 334 333 332 332 333 332 331 329 328 331 330 332 332 331 331
332 332 332 333 333 333 333 332 333 332 332 331 332 332 332 331 330 330 330 330 330 331 331 331 333 334 334 333 334 331 332 330 331 333 332 330 330 331 332 331 330 329
330 331 331 331 332 333 333 332 333 333 332 332 331 331 331 331 330 329 329 330 331 328 328 330 332 332 333 331 331 331 330 330 329 330 330 331 331 331 331 330 329 328
329 330 330 331 331 331 331 331 332 332 332 332 331 331 331 330 330 329 329 329 329 330 330 331 331 331 330 330 330 330 330 330 330 331 328 330 331 330 330 330 330 329
328 328 328 328 329 330 331 330 330 331 331 330 329 329 331 329 330 329 328 329 331 330 329 330 331 328 332 333 331 330 329 329 329 329 327 329 329 330 330 330 330 329
325 326 326 327 327 328 329 330 330 331 331 331 330 331 330 331 332 330 328 330 330 329 329 330 330 331 331 332 330 330 330 328 330 329 331 330 330 330 330 330 328 327
324 324 325 326 326 327 328 330 330 331 331 329 330 330 329 329 331 331 330 331 330 330 329 330 329 329 328 330 329 328 329 329 329 329 330 330 330 330 331 330 327 327
323 324 324 326 327 327 329 330 330 329 329 329 329 328 330 331 330 330 331 331 329 330 330 330 329 329 331 330 330 329 329 329 329 329 329 330 330 330 330 331 329 329
322 323 325 326 327 328 329 329 329 330 329 328 329 329 329 328 329 329 330 329 330 331 330 330 328 328 328 328 329 330 329 328 327 327 330 329 330 332 332 331 330 328
322 324 325 325 327 327 328 328 328 328 330 330 330 329 328 328 329 329 329 329 329 330 330 330 330 330 329 328 330 330 329 329 328 328 329 331 331 330 330 330 329 328
321 323 324 324 325 325 325 325 325 326 327 327 328 328 328 328 328 330 331 331 331 330 329 329 330 331 330 330 331 330 329 328 329 329 328 329 330 330 330 329 329 330
321 322 322 322 322 322 322 323 323 323 324 324 326 327 327 327 326 328 328 329 329 329 330 330 329 330 324 319 320 329 328 328 328 327 327 328 329 329 327 326 327 330
319 320 320 320 320 321 321 320 319 319 319 320 321 323 325 324 326 327 326 327 326 326 326 327 320 307 297 298 305 313 328 328 328 327 328 328 328 328 326 326 327 324
318 318 318 318 319 319 319 318 318 317 317 317 318 319 322 323 323 323 324 324 323 319 316 314 311 300 295 296 296 297 304 324 328 326 327 326 327 327 326 325 325 323
316 317 317 317 317 318 318 317 316 315 315 315 315 317 318 319 319 319 318 319 318 316 312 311 307 297 295 296 295 295 294 307 329 328 328 326 324 325 326 326 325 325
315 316 316 316 316 316 315 315 314 314 315 314 314 315 315 315 317 316 316 316 315 313 311 308 303 296 294 296 296 296 294 303 324 329 328 327 326 326 326 326 326 325
314 314 315 315 315 315 314 314 314 314 314 313 312 312 312 312 313 314 313 313 313 312 310 307 301 294 295 295 295 296 298 309 324 325 325 324 324 324 324 326 326 326
312 313 313 313 313 313 313 313 313 313 312 312 311 310 311 310 308 307 307 307 309 310 309 307 303 294 295 296 296 296 307 323 323 323 323 323 317 314 311 311 320 322
311 311 311 311 311 312 311 311 312 312 312 312 310 310 309 309 307 305 305 304 303 304 305 304 302 296 294 296 297 299 311 320 321 322 321 316 313 311 309 305 304 313
310 310 310 310 310 309 310 310 311 312 311 312 310 309 308 308 308 306 306 304 301 301 302 302 301 297 295 296 298 302 311 320 319 320 318 312 310 309 307 305 303 301
310 309 309 309 309 308 309 308 309 309 311 311 311 310 309 308 307 306 305 304 302 301 300 300 300 298 294 295 297 300 312 318 318 315 313 311 308 305 304 303 302 300
308 307 307 307 308 307 308 308 308 308 308 309 310 310 309 308 307 306 304 303 302 300 299 298 299 298 295 294 296 298 302 310 309 307 304 303 304 303 301 301 300 299

ECMWFNIL_sfc_thetae_111.txt.gz
Theta_e
330 330 328 328 328 332 333 333 330 329 329 327 327 327 325 327 327 327 327 327 327 328 329 330 330 329 330 330 331 331 332 330 329 329 330 330 328 328 328 327 327 327
328 327 327 327 327 328 329 330 329 329 327 327 327 328 326 327 328 327 327 327 327 327 328 330 330 330 330 329 330 331 330 330 329 330 329 330 329 329 328 328 328 328
327 328 329 328 328 328 328 329 327 327 327 327 327 327 326 325 326 327 327 327 326 327 328 329 330 330 330 330 330 329 328 329 329 330 329 328 329 329 328 328 328 328
326 327 328 328 328 329 329 327 326 325 326 326 325 326 327 326 325 326 327 328 327 327 327 328 328 328 327 327 328 329 330 330 329 328 328 328 329 328 326 326 327 328
326 326 326 327 328 327 327 326 326 325 324 324 324 325 327 326 325 326 327 326 326 327 328 328 329 329 328 326 328 329 330 328 328 328 327 327 327 328 327 327 327 328
325 327 328 327 327 326 326 326 325 326 326 324 325 326 326 327 327 326 327 326 327 326 327 327 327 329 327 327 328 329 329 326 327 327 326 326 326 328 328 328 328 329
323 324 324 325 325 325 325 325 325 325 326 326 327 326 326 326 326 326 325 325 326 327 327 326 324 325 328 329 328 329 327 326 328 328 326 326 327 327 328 328 328 328
321 322 322 322 322 322 323 324 324 325 325 326 325 326 326 326 325 325 325 326 325 325 326 326 326 327 327 326 325 326 327 328 326 326 327 327 328 326 328 328 327 327
322 321 322 322 322 321 322 323 324 325 326 325 325 326 326 326 326 326 327 326 326 326 326 326 326 327 326 325 325 326 326 326 325 325 325 326 326 328 328 328 327 326
321 321 322 322 322 322 322 323 326 325 326 325 325 325 325 326 326 327 327 326 326 326 326 325 326 326 325 328 327 326 326 326 325 325 325 325 326 328 328 327 326 326
320 321 322 323 323 324 324 325 326 326 326 325 325 325 326 326 326 327 327 327 326 326 327 327 326 326 326 325 325 325 327 325 325 325 325 325 326 327 329 328 326 325
319 320 321 322 322 324 324 324 324 325 325 325 325 325 327 327 326 326 326 326 325 326 325 325 325 325 324 324 325 325 325 325 325 326 325 325 326 326 326 326 325 324
318 320 320 320 321 321 321 320 320 321 321 322 324 326 326 325 325 325 326 325 324 325 325 325 324 325 324 324 325 325 325 325 325 324 324 324 325 327 326 326 326 325
318 320 319 319 320 319 318 317 318 318 319 320 321 323 323 323 324 325 326 327 325 324 325 326 326 325 324 324 325 326 325 324 323 324 324 325 325 325 326 326 326 325
318 319 319 319 319 317 316 316 316 317 317 317 318 320 322 321 323 324 322 322 320 320 321 322 322 324 325 324 323 325 324 324 323 323 324 324 324 325 325 325 325 325
317 317 317 318 317 316 315 315 315 315 315 316 316 318 319 319 319 319 318 315 315 316 315 312 310 308 306 308 315 323 324 324 323 323 323 323 323 324 324 324 324 325
315 316 316 315 315 314 314 315 314 314 313 314 314 315 316 316 316 315 315 314 313 312 311 310 307 304 297 295 297 304 324 322 322 321 322 323 323 323 320 321 321 320
314 315 315 314 314 313 314 314 313 312 311 311 311 311 311 312 312 312 312 312 311 309 307 307 305 300 294 296 297 297 306 322 323 322 322 322 323 322 322 321 319 319
313 313 313 313 313 313 314 313 312 311 310 310 309 308 308 306 306 306 306 309 310 309 307 304 303 297 294 296 296 297 303 317 323 322 321 320 321 322 321 320 319 319
312 311 311 312 312 312 313 312 311 310 310 310 309 307 306 305 304 303 303 304 306 307 307 305 302 297 294 298 301 301 305 312 320 316 313 312 312 314 319 322 321 320
310 310 310 311 311 311 311 311 310 310 309 309 308 307 305 304 303 302 302 302 303 305 305 304 302 295 296 302 304 305 305 308 314 312 310 308 307 307 307 312 318 321
309 309 309 309 309 309 309 310 309 309 308 308 307 306 306 305 303 302 301 300 301 302 303 302 302 295 296 302 303 303 305 312 311 309 307 305 304 303 303 304 306 309
307 308 308 308 308 307 307 307 308 309 309 308 306 305 304 303 302 301 300 299 299 300 300 301 300 297 295 301 302 303 305 310 308 306 304 303 303 302 301 301 302 304
306 306 307 306 306 306 306 306 307 308 309 308 306 305 303 303 302 301 300 299 298 298 299 298 298 297 295 298 300 301 306 309 307 305 303 302 301 301 301 300 300 301
304 305 305 305 305 305 305 305 305 305 306 307 307 306 305 304 303 301 300 299 298 298 300 298 297 297 294 295 297 299 304 306 305 303 301 301 300 299 299 299 299 299
302 303 304 304 304 304 305 304 305 304 304 304 304 304 304 304 303 302 300 299 299 298 297 297 296 296 295 293 295 296 298 305 304 301 299 298 299 299 298 298 298 297

ECMWFNIL_sfc_thetae_114.txt.gz
Theta_e
328 328 328 328 328 328 328 327 327 327 326 324 325 325 324 325 325 324 324 324 325 325 326 327 327 327 327 328 329 329 329 328 328 328 327 328 328 328 327 326 326 326
326 326 325 324 324 325 324 323 324 323 324 323 325 324 324 325 325 325 324 324 324 325 326 326 327 327 327 327 328 327 327 328 327 329 328 328 327 328 327 327 326 326
323 322 323 322 322 323 324 324 323 323 322 323 322 323 324 323 325 326 325 325 324 325 326 327 327 328 328 328 328 327 326 327 327 328 328 327 328 328 327 327 326 326
324 324 325 325 325 324 325 325 323 323 323 323 323 324 324 324 325 325 325 327 325 325 325 326 327 328 329 328 327 327 327 327 328 329 328 327 328 328 327 327 326 327
323 323 321 320 321 320 320 321 322 321 322 322 323 323 324 324 323 324 324 324 326 326 326 326 327 327 327 326 325 324 325 326 327 328 328 327 327 327 327 327 326 326
319 318 320 320 320 319 320 320 321 322 322 322 323 324 323 323 323 323 324 326 327 326 326 327 327 327 327 327 326 325 325 326 327 327 327 326 326 327 328 327 326 326
317 317 318 319 319 319 319 321 323 323 322 323 323 323 323 323 323 324 324 324 324 325 325 325 325 325 326 327 326 325 326 327 327 327 326 325 325 325 327 326 326 326
318 319 320 321 320 320 321 323 325 324 323 323 321 322 322 323 323 323 323 324 324 324 323 324 325 326 325 326 326 326 326 327 326 326 325 325 325 325 325 326 325 325
321 321 322 323 322 322 322 323 323 323 323 322 322 323 323 323 324 324 324 324 324 324 324 325 326 327 327 326 326 327 327 326 326 326 325 324 324 324 325 326 324 324
320 321 321 321 320 319 318 318 318 320 322 322 322 323 323 324 325 324 324 325 325 325 325 325 326 326 326 327 327 326 326 326 325 325 325 325 325 325 325 325 324 323
319 319 319 318 317 317 315 315 316 318 320 320 321 322 322 323 324 324 325 326 324 323 323 324 326 326 326 326 325 325 326 326 325 324 324 325 325 325 328 327 326 324
316 316 316 315 315 314 313 314 315 316 318 319 320 321 321 322 322 323 323 322 322 322 323 325 325 326 326 325 324 324 324 325 323 323 323 324 324 325 326 327 326 325
314 314 315 314 313 312 313 314 315 316 316 317 318 319 318 318 318 317 317 317 317 319 320 323 325 325 324 324 325 325 325 324 322 323 324 324 324 324 324 324 325 325
315 316 315 314 313 312 313 314 314 314 315 315 316 316 316 316 315 315 314 314 314 315 315 315 315 317 318 320 323 324 323 323 323 323 323 323 323 323 323 322 323 324
315 315 314 313 313 313 313 312 312 312 313 312 312 312 313 313 313 313 312 311 311 311 311 311 310 309 309 308 314 323 322 321 320 321 321 321 321 322 322 323 323 322
314 313 313 313 313 312 311 311 311 311 310 309 308 308 308 309 309 309 310 310 310 309 309 309 308 307 306 301 300 315 323 322 321 321 321 320 321 322 322 322 323 323
313 313 313 312 313 312 311 310 310 309 308 307 307 306 306 306 306 305 306 307 308 308 307 306 306 304 297 295 297 308 322 322 321 320 321 321 320 320 320 320 319 319
312 312 312 312 312 311 310 310 309 308 307 306 306 305 305 304 303 303 303 304 306 307 307 305 304 301 295 299 302 303 310 318 316 316 317 319 320 321 319 318 318 318
310 311 311 310 311 310 310 309 308 307 306 305 304 305 304 302 302 302 302 302 304 305 306 305 303 298 298 300 300 300 301 308 309 309 308 307 307 311 317 318 318 318
309 309 309 309 310 310 309 308 307 305 305 305 304 303 302 301 301 300 301 301 302 304 305 304 301 298 298 298 299 299 299 303 307 306 304 303 304 304 306 309 316 317
308 308 308 308 308 309 308 307 306 305 304 304 303 302 301 300 300 299 300 300 301 303 303 303 300 296 296 297 298 298 298 301 306 304 304 303 302 302 302 304 305 310
307 307 307 307 307 307 307 306 305 304 303 303 302 302 301 300 300 299 299 299 300 301 301 299 298 294 295 296 297 298 299 305 304 303 302 302 301 301 301 302 303 305
306 306 306 306 306 305 305 305 305 305 304 304 302 301 300 299 298 298 299 298 299 299 299 298 297 294 293 295 296 298 301 304 303 302 301 301 300 301 301 300 301 303
305 305 304 304 304 304 303 304 304 304 304 304 302 300 299 298 298 298 298 298 298 298 298 297 296 295 293 294 295 296 301 304 303 302 301 301 300 300 300 300 300 300
303 304 303 303 303 303 303 303 303 303 303 303 302 301 299 298 298 297 297 298 298 298 299 296 296 296 294 293 294 295 300 302 302 301 300 300 300 299 299 298 298 299
301 302 302 302 302 302 303 302 303 302 301 301 300 300 298 298 298 297 297 297 298 297 297 297 296 295 294 293 294 295 296 300 299 298 297 297 297 298 297 297 297 297

ECMWFNIL_sfc_thetae_117.txt.gz
Theta_e
325 325 324 322 322 324 323 323 322 320 321 319 320 322 322 324 325 323 323 324 324 323 323 324 326 326 327 328 328 328 328 328 328 328 327 327 326 326 326 327 326 325
325 325 324 322 321 321 321 320 320 319 321 320 322 322 323 323 324 324 323 323 323 323 325 326 327 328 327 327 327 327 327 327 327 328 327 326 326 326 326 326 326 326
322 321 322 320 319 318 318 319 318 319 319 320 320 320 322 323 323 323 323 323 323 324 326 327 327 327 327 327 327 327 327 326 326 327 327 327 327 326 326 327 327 326
322 322 321 320 318 317 317 318 319 320 320 320 320 321 321 322 322 322 322 325 323 324 325 326 326 327 327 327 327 327 327 327 327 327 326 327 327 327 327 327 326 326
321 321 320 319 319 320 319 318 319 319 319 320 320 321 321 321 321 322 322 322 323 324 324 323 325 326 327 327 327 326 326 326 327 327 326 326 327 327 327 327 326 325
320 319 319 317 317 317 318 320 323 322 321 321 322 322 322 322 322 323 324 324 325 324 324 324 325 326 327 327 326 326 325 324 325 326 326 325 326 327 328 326 326 325
317 317 318 319 319 320 320 321 321 321 321 322 323 323 324 324 324 324 324 324 325 325 325 325 325 325 326 326 326 326 326 325 325 326 325 325 325 325 327 327 326 325
317 319 320 320 319 318 317 317 317 318 319 320 320 323 323 323 324 324 324 325 325 325 325 325 325 326 326 326 325 325 325 326 326 326 326 326 325 325 325 326 324 325
320 319 318 317 316 316 314 314 314 315 318 317 320 321 322 322 323 323 324 324 325 325 325 324 324 325 326 326 326 325 325 326 326 326 325 325 324 324 324 325 324 324
317 316 315 314 313 312 311 311 312 314 317 318 319 320 319 320 320 319 319 319 319 319 321 323 324 325 326 327 326 326 326 326 326 325 325 324 324 324 324 325 324 323
315 314 312 311 310 310 310 312 313 315 316 317 318 317 317 317 317 316 315 315 314 315 316 317 320 325 325 326 325 325 325 325 325 325 324 323 324 324 326 325 324 324
311 310 310 309 310 310 311 313 313 314 314 314 315 314 314 314 314 313 313 312 312 312 313 313 315 318 320 322 324 324 324 324 323 323 323 322 322 323 325 325 325 324
313 312 311 309 311 312 312 312 312 311 310 310 311 310 310 310 310 310 311 311 311 311 311 311 312 313 314 314 317 322 322 320 318 320 320 321 321 322 323 323 324 325
313 313 311 311 311 311 311 310 310 309 309 309 309 308 308 307 307 307 308 309 310 310 310 310 310 310 310 310 312 318 320 319 321 321 320 322 322 322 322 322 322 323
312 312 312 311 310 310 310 310 309 308 308 308 307 306 306 306 306 306 306 307 308 309 309 309 309 308 308 307 308 314 321 318 320 320 320 320 321 322 322 323 322 322
312 312 312 311 310 309 309 309 308 308 307 306 305 305 304 305 304 305 305 306 307 307 307 307 306 306 306 304 305 313 322 320 319 318 318 319 320 320 321 321 321 321
311 311 311 310 310 309 308 308 307 306 305 305 304 304 303 303 303 303 303 306 306 305 304 304 303 302 298 297 297 303 311 310 310 309 309 310 312 314 316 318 318 319
310 310 310 309 309 308 307 306 305 305 304 303 303 302 302 302 302 302 304 305 305 304 302 302 301 299 295 296 297 298 303 306 305 305 305 305 306 307 309 313 316 316
309 309 309 309 307 306 306 305 304 303 302 302 301 302 301 300 300 301 302 303 303 302 301 300 299 296 295 296 296 296 298 303 304 303 303 303 303 304 305 307 311 315
308 308 308 308 307 306 305 304 303 302 302 302 301 301 300 300 300 300 301 301 302 302 301 299 297 295 294 295 296 296 297 300 303 303 302 302 302 302 303 304 306 309
307 307 307 307 306 306 305 304 303 302 301 301 300 299 299 299 299 298 299 300 300 300 300 299 297 294 294 294 295 296 297 299 302 302 302 301 301 301 302 302 304 305
306 306 305 305 305 304 304 303 302 301 300 300 300 299 299 299 298 298 298 298 298 298 298 297 296 293 294 294 295 295 298 302 302 301 301 301 300 301 301 302 302 302
305 305 304 303 303 302 302 302 301 300 300 300 299 299 298 298 297 297 298 297 297 297 296 296 295 294 293 294 294 295 299 302 301 301 300 299 299 300 300 300 301 302
304 304 303 303 302 301 301 301 300 300 299 299 298 298 297 298 298 297 297 297 297 296 296 295 295 294 292 293 294 295 298 300 300 299 299 299 299 299 299 299 300 301
303 303 303 302 301 301 301 300 299 298 298 298 298 298 298 298 298 297 297 297 297 297 298 295 294 294 293 292 293 294 297 298 298 297 297 297 298 298 298 297 297 298
302 302 302 300 299 299 299 298 298 296 295 296 296 296 296 297 297 297 296 296 297 296 296 296 295 294 293 292 293 293 294 298 297 296 296 296 297 297 296 296 296 296

ECMWFNIL_sfc_thetae_120.txt.gz
Theta_e
323 322 321 320 320 321 322 323 322 322 322 321 322 322 322 323 324 324 324 324 325 325 325 325 325 325 326 327 328 328 328 328 328 328 328 328 327 326 326 326 326 326
323 323 323 321 321 322 322 321 321 321 321 321 322 321 321 322 323 323 323 324 325 325 326 326 326 326 327 327 328 327 327 327 327 328 327 326 327 327 326 326 326 327
322 321 320 319 319 319 320 321 321 321 321 321 320 320 322 323 323 324 324 324 325 326 326 327 327 327 327 327 328 327 327 326 326 327 327 326 327 326 326 327 326 326
321 320 319 319 320 320 320 321 320 320 320 321 321 322 323 324 324 324 324 325 325 325 326 326 326 327 327 327 327 327 327 327 327 327 327 327 327 327 327 327 326 326
318 319 319 320 320 320 319 319 320 321 321 322 322 324 324 324 324 324 324 325 325 325 326 326 326 326 327 327 327 326 326 326 327 327 326 326 327 327 327 327 326 326
319 320 320 319 318 318 318 318 318 319 320 320 321 323 323 324 324 324 324 324 325 325 326 326 326 326 327 326 326 326 326 326 326 326 325 325 326 327 327 327 326 325
317 318 318 317 316 317 316 316 316 316 317 319 321 322 322 322 322 321 320 321 321 322 323 324 325 325 326 326 326 326 326 326 326 326 325 325 325 325 327 327 326 326
316 316 316 315 315 314 314 314 314 314 316 319 319 321 320 319 318 317 316 317 317 317 318 319 321 323 325 326 326 326 326 326 326 326 325 325 326 325 326 326 326 325
314 314 314 313 312 312 311 312 312 314 317 317 317 317 318 318 316 314 315 315 314 315 315 316 316 318 322 325 326 326 325 326 326 326 325 325 325 325 326 326 325 325
313 313 312 312 311 310 310 312 313 313 314 313 313 313 313 313 313 313 313 313 313 313 313 313 314 315 317 320 323 324 325 325 325 326 326 325 325 325 325 325 324 324
311 311 310 309 309 309 311 311 311 310 310 310 310 310 310 310 310 311 311 311 311 311 311 311 312 313 313 315 317 321 323 324 325 325 325 324 324 324 325 325 324 324
310 309 308 308 310 310 310 310 310 309 309 309 309 308 308 308 308 308 309 309 310 310 310 310 311 311 312 312 313 316 320 323 323 323 324 324 323 324 325 325 325 324
310 309 309 309 310 310 310 309 309 308 308 307 307 307 306 306 306 307 308 308 309 309 308 308 308 308 308 309 311 313 317 321 322 322 323 323 323 323 324 324 324 324
310 310 310 310 310 310 309 308 308 307 307 306 306 305 305 305 305 306 307 308 307 306 306 306 305 304 304 306 310 314 319 318 318 318 320 321 322 323 323 322 323 323
311 311 311 310 309 308 307 307 306 306 305 305 305 304 305 305 305 306 306 305 304 304 304 304 303 303 303 303 308 313 313 312 312 312 313 315 317 319 320 321 320 320
311 310 309 308 307 306 305 305 305 305 304 303 303 303 303 304 304 305 305 303 302 302 303 302 301 302 302 300 301 308 309 308 308 308 309 310 311 312 315 317 318 317
310 309 308 306 306 305 305 304 304 303 303 303 302 302 302 303 303 303 303 303 302 301 300 300 300 300 297 295 296 299 306 306 305 306 306 307 307 308 309 312 315 315
309 307 306 305 305 304 304 304 303 302 302 301 301 301 301 302 301 301 302 302 302 301 300 299 299 298 295 296 296 296 300 305 304 304 304 304 305 306 307 309 311 312
308 306 305 305 304 304 304 303 302 301 301 300 300 301 300 300 299 299 300 301 301 300 299 299 298 295 295 296 296 296 297 302 303 303 303 303 303 304 305 305 307 308
307 306 305 305 304 303 303 302 301 300 300 300 300 300 299 299 299 298 299 299 299 299 298 298 297 295 294 295 296 296 296 299 303 302 302 301 301 302 303 304 305 306
306 305 304 303 303 302 301 300 300 300 300 300 299 299 298 298 298 297 298 298 298 298 297 296 296 293 293 294 295 296 297 299 303 302 301 300 300 300 301 302 303 304
304 303 303 302 302 301 300 299 299 299 299 299 299 299 299 298 298 298 297 297 297 297 296 295 295 292 292 293 294 295 298 303 302 301 300 300 300 300 299 300 301 303
304 302 302 301 301 300 299 298 298 298 299 300 298 298 298 297 297 297 297 296 296 296 295 294 295 293 292 292 293 294 299 302 302 301 300 299 299 299 299 299 300 301
303 302 301 300 299 298 298 298 298 298 298 299 298 297 297 297 297 297 296 297 296 295 295 294 294 294 292 292 293 294 298 301 301 301 299 299 299 299 299 298 299 300
302 301 300 299 298 297 297 297 297 297 298 298 298 298 297 297 297 296 296 296 296 296 297 294 294 294 292 292 292 293 297 299 299 299 298 298 298 297 298 297 297 298
301 300 299 298 297 296 296 296 296 296 296 296 296 296 296 296 296 295 295 295 296 295 295 295 294 293 293 292 292 293 294 298 298 297 296 296 297 297 296 296 296 296

ECMWFNIL_sfc_thetae_123.txt.gz
Theta_e
332 333 332 331 331 331 331 330 330 330 329 329 328 328 327 328 329 329 329 330 330 330 330 329 329 330 330 330 330 330 330 330 330 331 331 332 332 331 329 330 329 329
331 331 331 331 330 330 330 330 329 328 328 328 327 327 328 328 328 328 329 329 330 330 330 329 329 329 329 330 330 330 331 331 330 331 330 330 330 331 331 331 330 331
331 330 329 328 328 328 329 329 328 328 327 327 327 328 327 328 328 328 328 328 328 329 329 329 329 329 329 330 330 330 330 330 330 332 331 329 331 331 331 333 332 331
328 328 328 327 327 327 328 327 327 327 326 325 325 326 326 327 327 327 327 327 327 328 328 328 328 329 329 330 330 330 330 330 330 331 330 330 330 331 332 333 332 331
326 326 326 326 326 326 326 325 324 323 323 324 325 326 325 325 324 324 324 324 324 325 326 326 327 328 329 329 329 329 330 330 330 330 328 329 329 329 330 332 331 331
325 324 324 323 324 324 323 321 321 321 322 323 323 324 323 322 321 320 320 320 320 321 321 322 322 324 325 327 329 329 329 329 330 330 328 328 329 330 330 330 329 328
322 322 322 322 321 321 320 320 320 321 321 321 322 321 320 320 319 318 318 318 318 319 319 319 320 320 322 325 328 328 329 330 330 329 328 329 328 329 329 329 328 328
320 320 320 320 320 320 319 319 319 319 319 318 318 318 318 317 316 316 317 318 318 318 317 317 317 318 319 321 322 325 327 329 329 328 328 328 329 327 329 329 329 327
318 317 318 318 318 318 317 316 316 317 317 316 316 316 316 315 315 315 316 316 316 316 315 315 315 315 317 318 319 320 322 325 327 327 327 327 327 327 327 329 328 328
316 316 316 316 316 315 314 314 315 315 315 314 313 314 313 314 314 314 314 314 313 313 313 313 313 314 315 316 317 318 319 323 326 327 327 327 327 326 327 327 327 327
314 314 314 314 313 313 313 313 312 312 312 311 311 311 311 311 312 312 312 311 311 310 310 310 310 310 311 313 315 317 319 322 325 325 326 326 326 327 327 328 327 327
313 313 312 312 312 312 312 311 311 310 310 310 310 309 310 310 310 310 310 309 309 308 309 308 308 308 309 311 315 319 320 321 322 323 324 325 325 326 326 327 327 326
311 311 311 311 311 310 311 310 309 309 308 308 309 309 308 308 308 308 308 307 307 307 307 308 308 308 308 310 315 316 316 316 317 318 319 322 322 322 322 321 321 322
311 311 311 310 310 309 309 308 308 307 307 308 308 308 308 308 307 306 306 306 306 306 306 307 306 306 305 307 311 313 314 313 313 314 315 316 317 317 319 320 319 320
311 310 310 309 309 308 308 307 307 307 307 307 307 307 307 307 307 306 305 305 306 306 305 305 304 304 303 304 308 311 311 311 310 311 311 312 313 314 316 317 317 317
309 309 309 308 307 307 306 307 307 307 306 306 305 305 305 306 306 305 305 305 305 305 304 303 303 303 302 299 301 308 309 309 309 309 309 309 310 311 312 313 314 315
309 309 308 307 307 306 306 306 306 306 305 305 305 305 304 304 304 303 304 305 304 304 303 303 302 301 296 295 296 298 307 307 307 307 307 307 308 308 308 310 312 313
309 308 307 306 306 305 305 305 304 304 304 304 304 304 304 304 305 304 304 304 304 303 303 302 302 298 294 295 296 296 301 307 306 306 306 306 306 307 308 309 310 311
308 307 306 305 305 304 304 304 304 303 303 303 303 303 304 307 306 305 304 304 303 302 302 302 302 295 294 295 296 295 296 304 307 306 305 304 305 305 306 307 308 309
308 306 305 305 304 304 303 303 303 302 303 304 304 306 307 305 305 305 304 304 303 303 302 301 298 295 293 294 295 295 296 301 307 306 305 304 304 305 305 305 305 306
307 305 304 304 304 303 303 303 303 302 302 303 304 307 307 306 305 305 304 304 304 303 302 300 298 293 293 293 294 296 297 302 308 307 306 305 305 305 305 305 306 306
306 304 303 303 302 302 302 302 302 302 302 303 304 304 304 304 305 305 303 303 304 304 302 300 298 292 292 293 293 294 299 307 308 307 305 305 304 304 304 304 306 306
305 304 303 302 302 302 301 301 301 301 302 303 303 303 303 302 304 303 302 302 302 302 302 302 300 294 292 292 293 294 301 307 307 307 306 304 304 305 304 302 302 304
305 304 303 302 302 302 302 301 302 302 301 302 302 302 301 302 302 301 302 301 301 300 301 300 299 295 291 292 293 293 300 306 305 305 304 304 303 304 304 303 300 298
304 303 302 301 301 301 301 300 301 301 301 301 301 301 302 302 302 301 301 301 301 300 299 300 299 296 292 292 292 293 301 307 305 304 303 303 303 302 302 302 301 298
303 302 302 301 300 300 300 300 301 300 301 300 301 301 301 301 301 300 300 300 301 300 300 300 299 297 295 291 292 293 294 304 305 303 302 301 301 301 301 301 300 299